[[{"header":{"parameterUnit":"m.s-1","parameterCategory":1,"la1":31.0,"la2":29.5877,"lo1":-88.7671,"lo2":-86.6584,"dy":0.0162,"dx":0.0185,"nx":115,"ny":88,"refTime":"2026-04-04T12:00:00:Z","depth":0,"parameterNumber":2,"parameterNumberName":"U-component_of_WINDS"},"data":[0.0,0.0,0.0,0.0,0.0,0.0,0.0,0.0,0.0,0.0,0.0,0.0,0.0,0.0,0.0,0.0,0.0,0.0,0.0,0.0,0.0,0.0,0.0,0.0,0.0,0.0,0.0,0.0,0.0,0.0,0.0,0.0,0.0,0.0,0.0,0.0,0.0,0.0,0.0,0.0,0.0,0.0,0.0,0.0,0.0,0.0,0.0,0.0,0.0,0.0,0.0,0.0,0.0,0.0,0.0,0.0,0.0,0.0,0.0,0.0,0.0,0.0,0.0,0.0,0.0,0.0,0.0,0.0,0.0,0.0,0.0,0.0,0.0,0.0,0.0,0.0,0.0,0.0,0.0,0.0,0.0,0.0,0.0,0.0,0.0,0.0,0.0,0.0,0.0,0.0,0.0,0.0,0.0,0.0,0.0,0.0,0.0,0.0,0.0,0.0,0.0,0.0,0.0,0.0,0.0,0.0,0.0,0.0,0.0,0.0,0.0,0.0,0.0,0.0,0.0,0.0,0.0,0.0,0.0,0.0,0.0,0.0,0.0,0.0,0.0,0.0,0.0,0.0,0.0,0.0,0.0,0.0,0.0,0.0,0.0,0.0,0.0,0.0,0.0,0.0,0.0,0.0,0.0,0.0,0.0,0.0,0.0,0.0,0.0,0.0,0.0,0.0,0.0,0.0,0.0,0.0,0.0,0.0,0.0,0.0,0.0,0.0,0.0,0.0,0.0,0.0,0.0,0.0,0.0,0.0,0.0,0.0,0.0,0.0,0.0,0.0,0.0,0.0,0.0,0.0,0.0,0.0,0.0,0.0,0.0,0.0,0.0,0.0,0.0,0.0,0.0,0.0,0.0,0.0,0.0,0.0,0.0,0.0,0.0,0.0,0.0,0.0,0.0,0.0,0.0,0.0,0.0,0.0,0.0,0.0,0.0,0.0,0.0,0.0,0.0,0.0,0.0,0.0,0.0,0.0,0.0,0.0,0.0,0.0,0.0,0.0,0.0,0.0,0.0,0.0,0.0,0.0,0.0,0.0,0.0,0.0,0.0,0.0,0.0,0.0,0.0,0.0,0.0,0.0,0.0,0.0,0.0,0.0,0.0,0.0,0.0,0.0,0.0,0.0,0.0,0.0,0.0,0.0,0.0,0.0,0.0,0.0,0.0,0.0,0.0,0.0,0.0,0.0,0.0,0.0,0.0,0.0,0.0,0.0,0.0,0.0,0.0,0.0,0.0,0.0,0.0,0.0,0.0,0.0,0.0,0.0,0.0,0.0,0.0,0.0,0.0,0.0,0.0,0.0,0.0,0.0,0.0,0.0,0.0,0.0,0.0,0.0,0.0,0.0,0.0,0.0,0.0,0.0,0.0,0.0,0.0,0.0,0.0,0.0,0.0,0.0,0.0,0.0,0.0,0.0,0.0,0.0,0.0,0.0,0.0,0.0,0.0,0.0,0.0,0.0,0.0,0.0,0.0,0.0,0.0,0.0,0.0,0.0,0.0,0.0,0.0,0.0,0.0,0.0,0.0,0.0,0.0,0.0,0.0,0.0,0.0,0.0,0.0,0.0,0.0,0.0,0.0,0.0,0.0,0.0,0.0,0.0,0.0,0.0,0.0,0.0,0.0,0.0,0.0,0.0,0.0,0.0,0.0,0.0,0.0,0.0,0.0,0.0,0.0,0.0,0.0,0.0,0.0,0.0,0.0,0.0,0.0,0.0,0.0,0.0,0.0,0.0,0.0,0.0,0.0,0.0,0.0,0.0,0.0,0.0,0.0,0.0,0.0,0.0,0.0,0.0,0.0,0.0,0.0,0.0,0.0,0.0,0.0,0.0,0.0,0.0,0.0,0.0,0.0,0.0,0.0,0.0,0.0,0.0,0.0,0.0,0.0,0.0,0.0,0.0,0.0,0.0,0.0,0.0,0.0,0.0,0.0,0.0,0.0,0.0,0.0,0.0,0.0,0.0,0.0,0.0,0.0,0.0,0.0,0.0,0.0,0.0,0.0,0.0,0.0,0.0,0.0,0.0,0.0,0.0,0.0,0.0,0.0,0.0,0.0,0.0,0.0,0.0,0.0,0.0,0.0,0.0,0.0,0.0,0.0,0.0,0.0,0.0,0.0,0.0,0.0,0.0,0.0,0.0,0.0,0.0,0.0,0.0,0.0,0.0,0.0,0.0,0.0,0.0,0.0,0.0,0.0,0.0,0.0,0.0,0.0,0.0,0.0,0.0,0.0,0.0,0.0,0.0,0.0,0.0,0.0,0.0,0.0,0.0,0.0,0.0,0.0,0.0,0.0,0.0,0.0,0.0,0.0,0.0,0.0,0.0,0.0,0.0,0.0,0.0,0.0,0.0,0.0,0.0,0.0,0.0,0.0,0.0,0.0,0.0,0.0,0.0,0.0,0.0,0.0,0.0,0.0,0.0,0.0,0.0,0.0,0.0,0.0,0.0,0.0,0.0,0.0,0.0,0.0,0.0,0.0,0.0,0.0,0.0,0.0,0.0,0.0,0.0,0.0,0.0,0.0,0.0,0.0,0.0,0.0,0.0,0.0,0.0,0.0,0.0,0.0,0.0,0.0,0.0,0.0,0.0,0.0,0.0,0.0,0.0,0.0,0.0,0.0,0.0,0.0,0.0,0.0,0.0,0.0,0.0,0.0,0.0,0.0,0.0,0.0,0.0,0.0,0.0,0.0,0.0,0.0,0.0,0.0,0.0,0.0,0.0,0.0,0.0,0.0,0.0,0.0,0.0,0.0,0.0,0.0,0.0,0.0,0.0,0.0,0.0,0.0,0.0,0.0,0.0,0.0,0.0,0.0,0.0,0.0,0.0,0.0,0.0,0.0,0.0,0.0,0.0,0.0,0.0,0.0,0.0,0.0,0.0,0.0,0.0,0.0,0.0,0.0,0.0,0.0,0.0,0.0,0.0,0.0,0.0,0.0,0.0,0.0,0.0,0.0,0.0,0.0,0.0,0.0,0.0,0.0,0.0,0.0,0.0,0.0,0.0,0.0,0.0,0.0,0.0,0.0,0.0,0.0,0.0,0.0,0.0,0.0,0.0,0.0,0.0,0.0,0.0,0.0,0.0,0.0,0.0,0.0,0.0,0.0,0.0,0.0,0.0,0.0,0.0,0.0,0.0,0.0,0.0,0.0,0.0,0.0,0.0,0.0,0.0,0.0,0.0,0.0,0.0,0.0,0.0,0.0,0.0,0.0,0.0,0.0,0.0,0.0,0.0,0.0,0.0,0.0,0.0,0.0,0.0,0.0,0.0,0.0,0.0,0.0,0.0,0.0,0.0,0.0,0.0,0.0,0.0,0.0,0.0,0.0,0.0,0.0,0.0,0.0,0.0,0.0,0.0,0.0,0.0,0.0,0.0,0.0,0.0,0.0,0.0,0.0,0.0,0.0,0.0,0.0,0.0,0.0,0.0,0.0,0.0,0.0,0.0,0.0,0.0,0.0,0.0,0.0,0.0,0.0,0.0,0.0,0.0,0.0,0.0,0.0,0.0,0.0,0.0,0.0,0.0,0.0,0.0,0.0,0.0,0.0,0.0,0.0,0.0,0.0,0.0,0.0,0.0,0.0,0.0,0.0,0.0,0.0,0.0,0.0,0.0,0.0,0.0,0.0,0.0,0.0,0.0,0.0,0.0,0.0,0.0,0.0,0.0,0.0,0.0,0.0,0.0,0.0,0.0,0.0,0.0,0.0,0.0,0.0,0.0,0.0,0.0,0.0,0.0,0.0,0.0,0.0,0.0,0.0,0.0,0.0,0.0,0.0,0.0,0.0,0.0,0.0,0.0,0.0,0.0,0.0,0.0,0.0,0.0,0.0,0.0,0.0,0.0,0.0,0.0,0.0,0.0,0.0,0.0,0.0,0.0,0.0,0.0,0.0,0.0,0.0,0.0,0.0,0.0,0.0,0.0,0.0,0.0,0.0,0.0,0.0,0.0,0.0,0.0,0.0,0.0,0.0,0.0,0.0,0.0,0.0,0.0,0.0,0.0,0.0,0.0,0.0,0.0,0.0,0.0,0.0,0.0,0.0,0.0,0.0,0.0,0.0,0.0,0.0,0.0,0.0,0.0,0.0,0.0,0.0,0.0,0.0,0.0,0.0,0.0,0.0,0.0,0.0,0.0,0.0,0.0,0.0,0.0,0.0,0.0,0.0,0.0,0.0,0.0,0.0,0.0,0.0,0.0,0.0,0.0,0.0,0.0,0.0,0.0,0.0,0.0,0.0,0.0,0.0,0.0,0.0,0.0,0.0,0.0,0.4491,0.0,0.0,0.0,0.0,0.0,0.0,0.0,0.0,0.0,0.0,0.0,0.0,0.0,0.0,0.0,0.0,0.0,0.0,0.0,0.0,0.0,0.0,0.0,0.0,0.0,0.0,0.0,0.0,0.0,0.0,0.0,0.0,0.0,0.0,0.0,0.0,0.0,0.0,0.0,0.0,0.0,0.0,0.0,0.0,0.0,0.0,0.0,0.0,0.0,0.0,0.0,0.0,0.0,0.0,0.0,0.0,0.0,0.0,0.0,0.0,0.0,0.0,0.0,0.0,0.0,0.0,0.0,0.0,0.0,0.0,0.0,0.0,0.0,0.0,0.0,0.0,0.0,0.0,0.0,0.0,0.0,0.0,0.0,0.0,0.0,0.0,0.0,0.0,0.0,0.0,0.0,0.0,0.0,0.0,0.0,0.0,0.0,0.0,0.0,0.0,0.0,0.0,0.0,0.0,0.0,0.0,0.0,0.0,0.0,0.0,0.4491,0.4491,0.4491,0.4491,0.4491,0.0,0.0,0.0,0.0,0.0,0.0,0.0,0.0,0.0,0.0,0.0,0.0,0.0,0.0,0.0,0.0,0.0,0.0,0.0,0.0,0.0,0.0,0.0,0.0,0.0,0.0,0.0,0.0,0.0,0.0,0.0,0.0,0.0,0.0,0.0,0.0,0.0,0.0,0.0,0.0,0.0,0.0,0.0,0.0,0.0,0.0,0.0,0.0,0.0,0.0,0.0,0.0,0.0,0.0,0.0,0.0,0.0,0.0,0.0,0.0,0.0,0.0,0.0,0.0,0.0,0.0,0.0,0.0,0.0,0.0,0.0,0.0,0.0,0.0,0.0,0.0,0.0,0.0,0.0,0.0,0.0,0.0,0.0,0.0,0.0,0.0,0.0,0.0,0.0,0.0,0.0,0.0,0.0,0.0,0.0,0.0,0.0,0.0,0.0,0.0,0.0,0.0,0.0,0.0,0.0,0.0,0.0,0.0,0.0,0.0,0.0,0.0,0.4525,0.4491,0.4491,0.0,0.0,0.0,0.0,0.0,0.0,0.0,0.0,0.0,0.0,0.0,0.0,0.0,0.0,0.0,0.0,0.0,0.0,0.0,0.0,0.0,0.0,0.0,0.0,0.0,0.0,0.0,0.0,0.0,0.0,0.0,0.0,0.0,0.0,0.0,0.0,0.0,0.0,0.0,0.0,0.0,0.0,0.0,0.0,0.0,0.0,0.0,0.0,0.0,0.0,0.0,0.0,0.0,0.0,0.0,0.0,0.0,0.0,0.0,0.0,0.0,0.0,0.0,0.0,0.0,0.0,0.0,0.0,0.0,0.0,0.0,0.0,0.0,0.0,0.0,0.0,0.0,0.0,0.0,0.0,0.0,0.0,0.0,0.0,0.0,0.0,0.0,0.0,0.0,0.0,0.0,0.0,0.0,0.0,0.0,0.0,0.0,0.0,0.0,0.0,0.0,0.0,0.0,0.0,0.0,0.0,0.0,0.0,0.0,0.0,0.4559,0.4681,0.4566,0.0,0.4491,0.0,0.0,0.0,0.0,0.0,0.0,0.0,0.0,0.0,0.0,0.0,0.0,0.0,0.0,0.0,0.0,0.0,0.0,0.0,0.0,0.0,0.0,0.0,0.0,0.0,0.0,0.0,0.0,0.0,0.0,0.0,0.0,0.0,0.0,0.0,0.0,0.0,0.0,0.0,0.0,0.0,0.0,0.0,0.0,0.0,0.0,0.0,0.0,0.0,0.0,0.0,0.0,0.0,0.0,0.0,0.0,0.0,0.0,0.0,0.0,0.0,0.0,0.0,0.0,0.0,0.0,0.0,0.0,0.0,0.0,0.0,0.0,0.0,0.0,0.0,0.0,0.0,0.0,0.0,0.0,0.0,0.0,0.0,0.0,0.0,0.0,0.0,0.0,0.0,0.0,0.0,0.0,0.0,0.0,0.0,0.0,0.0,0.0,0.0,0.0,0.0,0.0,0.0,0.0,0.0,0.0,0.0,0.0,0.0,0.0,0.0,0.4808,0.4769,0.4687,0.0,0.0,0.0,0.0,0.0,0.0,0.0,0.0,0.0,0.0,0.0,0.0,0.0,0.0,0.0,0.0,0.0,0.0,0.0,0.0,0.0,0.0,0.0,0.0,0.0,0.0,0.0,0.0,0.0,0.0,0.0,0.0,0.0,0.0,0.0,0.0,0.0,0.0,0.0,0.0,0.0,0.0,0.0,0.0,0.0,0.0,0.0,0.0,0.0,0.0,0.0,0.0,0.0,0.0,0.0,0.0,0.0,0.0,0.0,0.0,0.0,0.0,0.0,0.0,0.0,0.0,0.0,0.0,0.0,0.0,0.0,0.0,0.0,0.0,0.0,0.0,0.0,0.0,0.0,0.0,0.0,0.0,0.0,0.0,0.0,0.0,0.0,0.0,0.0,0.0,0.0,0.0,0.0,0.0,0.0,0.0,0.0,0.0,0.0,0.0,0.0,0.0,0.0,0.0,0.0,0.0,0.0,0.0,0.0,0.0,0.4586,0.0,0.4789,0.4862,0.4815,0.4647,0.0,0.0,0.0,0.0,0.0,0.0,0.0,0.0,0.0,0.0,0.0,0.0,0.0,0.0,0.0,0.0,0.0,0.0,0.0,0.0,0.0,0.0,0.0,0.0,0.0,0.0,0.0,0.0,0.0,0.0,0.0,0.0,0.0,0.0,0.0,0.0,0.0,0.0,0.0,0.0,0.0,0.0,0.0,0.0,0.0,0.0,0.0,0.0,0.0,0.0,0.0,0.0,0.0,0.0,0.0,0.0,0.0,0.0,0.0,0.0,0.0,0.0,0.0,0.0,0.0,0.0,0.0,0.0,0.0,0.0,0.0,0.0,0.0,0.0,0.0,0.0,0.0,0.0,0.0,0.0,0.0,0.0,0.0,0.0,0.0,0.0,0.0,0.0,0.0,0.0,0.0,0.0,0.0,0.0,0.0,0.0,0.0,0.0,0.0,0.0,0.0,0.0,0.0,0.0,0.0,0.0,0.0,0.0,0.0,0.4512,0.4525,0.4546,0.4754,0.4767,0.0,0.0,0.0,0.0,0.0,0.0,0.0,0.0,0.0,0.0,0.0,0.0,0.0,0.0,0.0,0.0,0.0,0.0,0.0,0.0,0.0,0.0,0.0,0.0,0.0,0.0,0.0,0.0,0.0,0.0,0.0,0.0,0.0,0.0,0.0,0.0,0.0,0.0,0.0,0.0,0.0,0.0,0.0,0.0,0.0,0.0,0.0,0.0,0.0,0.0,0.0,0.0,0.0,0.0,0.0,0.0,0.0,0.0,0.0,0.0,0.0,0.0,0.0,0.0,0.0,0.0,0.0,0.0,0.0,0.0,0.0,0.0,0.0,0.0,0.0,0.0,0.0,0.0,0.0,0.0,0.0,0.0,0.0,0.0,0.0,0.0,0.0,0.0,0.0,0.0,0.0,0.0,0.0,0.0,0.0,0.0,0.0,0.0,0.0,0.0,0.0,0.0,0.0,0.0,0.0,0.0,0.0,0.0,0.0,0.4498,0.4668,0.4755,0.4755,0.4848,0.4808,0.0,0.0,0.0,0.0,0.0,0.0,0.0,0.0,0.0,0.0,0.0,0.0,0.0,0.0,0.0,0.0,0.0,0.0,0.0,0.0,0.0,0.0,0.0,0.0,0.0,0.0,0.0,0.0,0.0,0.0,0.0,0.0,0.0,0.0,0.0,0.0,0.0,0.0,0.0,0.0,0.0,0.0,0.0,0.0,0.0,0.0,0.0,0.0,0.0,0.0,0.0,0.0,0.0,0.0,0.0,0.0,0.0,0.0,0.0,0.0,0.0,0.0,0.0,0.0,0.0,0.0,0.0,0.0,0.0,0.0,0.0,0.0,0.0,0.0,0.0,0.0,0.0,0.0,0.0,0.0,0.0,0.0,0.0,0.0,0.0,0.0,0.0,0.0,0.0,0.0,0.0,0.0,0.0,0.0,0.0,0.0,0.0,0.0,0.0,0.0,0.0,0.0,0.0,0.0,0.0,0.0,0.0,0.0,0.0,0.4573,0.0,0.4945,0.0,0.4882,0.4808,0.0,0.0,0.0,0.0,0.0,0.0,0.0,0.0,0.0,0.0,0.0,0.0,0.0,0.0,0.0,0.0,0.0,0.0,0.0,0.0,0.0,0.0,0.0,0.0,0.0,0.0,0.0,0.0,0.0,0.0,0.0,0.0,0.0,0.0,0.0,0.0,0.0,0.0,0.0,0.0,0.0,0.0,0.0,0.0,0.0,0.0,0.0,0.0,0.0,0.0,0.0,0.0,0.0,0.0,0.0,0.0,0.0,0.0,0.0,0.0,0.0,0.0,0.0,0.0,0.0,0.0,0.0,0.0,0.0,0.0,0.0,0.0,0.0,0.0,0.0,0.0,0.0,0.0,0.0,0.0,0.0,0.0,0.0,0.0,0.0,0.0,0.0,0.0,0.0,0.0,0.0,0.0,0.0,0.0,0.0,0.0,0.0,0.0,0.0,0.0,0.0,0.0,0.0,0.0,0.0,0.0,0.0,0.0,0.4586,0.4715,0.4963,0.4984,0.4714,0.4843,0.4775,0.0,0.0,0.0,0.0,0.0,0.0,0.0,0.0,0.0,0.0,0.0,0.0,0.0,0.0,0.0,0.0,0.0,0.0,0.0,0.0,0.0,0.0,0.0,0.0,0.0,0.0,0.0,0.0,0.0,0.0,0.0,0.0,0.0,0.0,0.0,0.0,0.0,0.0,0.0,0.0,0.0,0.0,0.0,0.0,0.0,0.0,0.0,0.0,0.0,0.0,0.0,0.0,0.0,0.0,0.0,0.0,0.0,0.0,0.0,0.0,0.0,0.0,0.0,0.0,0.0,0.0,0.0,0.0,0.0,0.0,0.0,0.0,0.0,0.0,0.0,0.0,0.0,0.0,0.0,0.0,0.0,0.0,0.0,0.0,0.0,0.0,0.0,0.0,0.0,0.0,0.0,0.0,0.0,0.0,0.0,0.0,0.0,0.0,0.0,0.0,0.0,0.0,0.0,0.0,0.0,0.0,0.0,0.0,0.0,0.499,0.5189,0.5212,0.499,0.493,0.483,0.0,0.0,0.0,0.0,0.0,0.0,0.0,0.0,0.0,0.0,0.0,0.0,0.0,0.0,0.0,0.0,0.0,0.0,0.0,0.0,0.0,0.0,0.0,0.0,0.0,0.0,0.0,0.0,0.0,0.0,0.0,0.0,0.0,0.0,0.0,0.0,0.0,0.0,0.0,0.0,0.0,0.0,0.0,0.0,0.0,0.0,0.0,0.0,0.0,0.0,0.0,0.0,0.0,0.0,0.0,0.0,0.0,0.0,0.0,0.0,0.0,0.0,0.0,0.0,0.0,0.0,0.0,0.0,0.0,0.0,0.0,0.0,0.0,0.0,0.0,0.0,0.0,0.0,0.0,0.0,0.0,0.0,0.0,0.0,0.0,0.0,0.0,0.0,0.0,0.0,0.0,0.0,0.0,0.0,0.0,0.0,0.0,0.0,0.0,0.0,0.0,0.0,0.0,0.0,0.0,0.0,0.0,0.0,0.0,0.6025,0.5983,0.5838,0.5555,0.5396,0.5193,0.4982,0.0,0.0,0.0,0.0,0.0,0.0,0.0,0.0,0.0,0.0,0.0,0.0,0.0,0.0,0.0,0.0,0.0,0.0,0.0,0.0,0.0,0.0,0.0,0.0,0.0,0.0,0.0,0.0,0.0,0.0,0.0,0.0,0.0,0.0,0.0,0.0,0.0,0.0,0.0,0.0,0.0,0.0,0.0,0.0,0.0,0.0,0.0,0.0,0.0,0.0,0.0,0.0,0.0,0.0,0.0,0.0,0.0,0.0,0.0,0.0,0.0,0.0,0.0,0.0,0.0,0.0,0.0,0.0,0.0,0.0,0.0,0.0,0.0,0.0,0.0,0.0,0.0,0.0,0.0,0.0,0.0,0.0,0.0,0.0,0.0,0.0,0.0,0.0,0.0,0.0,0.0,0.0,0.0,0.0,0.0,0.0,0.0,0.0,0.0,0.0,0.0,0.0,0.0,0.0,0.0,0.0,0.0,0.0,0.7648,0.7256,0.6837,0.6382,0.6167,0.5863,0.0,0.0,0.0,0.0,0.0,0.0,0.0,0.0,0.0,0.0,0.0,0.0,0.0,0.0,0.0,0.0,0.0,0.0,0.0,0.0,0.0,0.0,0.0,0.0,0.0,0.0,0.0,0.0,0.0,0.0,0.0,0.0,0.0,0.0,0.0,0.0,0.0,0.0,0.0,0.0,0.0,0.0,0.0,0.0,0.0,0.0,0.0,0.0,0.0,0.0,0.0,0.0,0.0,0.0,0.0,0.0,0.0,0.0,0.0,0.0,0.0,0.0,0.0,0.0,0.0,0.0,0.0,0.0,0.0,0.0,0.0,0.0,0.0,0.0,0.0,0.0,0.0,0.0,0.0,0.0,0.0,0.0,0.0,0.0,0.0,0.0,0.0,0.0,0.0,0.0,0.0,0.0,0.0,0.0,0.0,0.0,0.0,0.0,0.0,0.0,0.0,0.0,0.0,0.0,0.0,0.0,0.0,0.0,0.0,0.8104,0.873,0.8507,0.7448,0.7026,0.6586,0.0,0.0,0.0,0.0,0.0,0.0,0.0,0.0,0.0,0.0,0.0,0.0,0.0,0.0,0.0,0.0,0.0,0.0,0.0,0.0,0.0,0.0,0.0,0.0,0.0,0.0,0.0,0.0,0.0,0.0,0.0,0.0,0.0,0.0,0.0,0.0,0.0,0.0,0.0,0.0,0.0,0.0,0.0,0.0,0.0,0.0,0.0,0.0,0.0,0.0,0.0,0.0,0.0,0.0,0.0,0.0,0.0,0.0,0.0,0.0,0.0,0.0,0.0,0.0,0.0,0.0,0.0,0.0,0.0,0.0,0.0,0.0,0.0,0.0,0.0,0.0,0.0,0.0,0.0,0.0,0.0,0.0,0.0,0.0,0.0,0.0,0.0,0.0,0.0,0.0,0.0,0.0,0.0,0.0,0.0,0.0,0.0,0.0,0.0,0.0,0.0,0.0,0.0,0.0,0.0,0.0,0.0,0.0,0.7858,0.8818,0.9765,0.9832,0.8933,0.8115,0.7366,0.0,0.0,0.0,0.0,0.0,0.0,0.0,0.0,0.0,0.0,0.0,0.0,0.0,0.0,0.0,0.0,0.0,0.0,0.0,0.0,0.0,0.0,0.0,0.0,0.0,0.0,0.0,0.0,0.0,0.0,0.0,0.0,0.0,0.0,0.0,0.0,0.0,0.0,0.0,0.0,0.0,0.0,0.0,0.0,0.0,0.0,0.0,0.0,0.0,0.0,0.0,0.0,0.0,0.0,0.0,0.0,0.0,0.0,0.0,0.0,0.0,0.0,0.0,0.0,0.0,0.0,0.0,0.0,0.0,0.0,0.0,0.0,0.0,0.0,0.0,0.0,0.0,0.0,0.0,0.0,0.0,0.0,0.0,0.0,0.0,0.0,0.0,0.0,0.0,0.0,0.0,0.0,0.0,0.0,0.0,0.0,0.0,0.0,0.0,0.0,0.0,0.0,0.0,0.0,0.0,0.0,0.0,0.0,0.8486,0.9602,1.0502,1.0806,1.0493,0.9273,0.818,0.0,0.0,0.0,0.0,0.0,0.0,0.0,0.0,0.0,0.0,0.0,0.0,0.0,0.0,0.0,0.0,0.0,0.0,0.0,0.0,0.0,0.0,0.0,0.0,0.0,0.0,0.0,0.0,0.0,0.0,0.0,0.0,0.0,0.0,0.0,0.0,0.0,0.0,0.0,0.0,0.0,0.0,0.0,0.0,0.0,0.0,0.0,0.0,0.0,0.0,0.0,0.0,0.0,0.0,0.0,0.0,0.0,0.0,0.0,0.0,0.0,0.0,0.0,0.0,0.0,0.0,0.0,0.0,0.0,0.0,0.0,0.0,0.0,0.0,0.0,0.0,0.0,0.0,0.0,0.0,0.0,0.0,0.0,0.0,0.0,0.0,0.0,0.0,0.0,0.0,0.0,0.0,0.0,0.0,0.0,0.0,0.0,0.0,0.0,0.0,0.0,0.0,0.0,0.0,0.0,0.0,0.0,0.0,0.9075,0.9913,1.0799,1.1097,1.065,0.9829,0.8947,0.0,0.0,0.0,0.0,0.0,0.0,0.0,0.0,0.0,0.0,0.0,0.0,0.0,0.0,0.0,0.0,0.0,0.0,0.0,0.0,0.0,0.0,0.0,0.0,0.0,0.0,0.0,0.0,0.0,0.0,0.0,0.0,0.0,0.0,0.0,0.0,0.0,0.0,0.0,0.0,0.0,0.0,0.0,0.0,0.0,0.0,0.0,0.0,1.1432,0.0,0.0,0.0,0.0,0.0,0.0,0.0,0.0,0.0,0.0,0.0,0.0,0.0,0.0,0.0,0.0,0.0,0.0,0.0,0.0,0.0,0.0,0.0,0.0,0.0,0.0,0.0,0.0,0.0,0.0,0.0,0.0,0.0,0.0,0.0,0.0,0.0,0.0,0.0,0.0,0.0,0.0,0.0,0.0,0.0,0.0,0.0,0.0,0.0,0.0,0.0,0.0,0.0,0.0,0.0,0.0,0.0,0.0,0.0,0.951,1.0211,1.1002,1.128,1.1029,1.0453,0.9578,0.0,0.0,0.0,0.0,0.0,0.0,0.0,0.0,0.0,0.0,0.0,0.0,0.0,0.0,0.0,0.0,0.0,0.0,0.0,0.0,0.0,0.0,0.0,0.0,0.0,0.0,0.0,0.0,0.0,0.0,0.0,0.0,0.0,0.0,0.0,0.0,0.0,0.0,0.0,0.0,0.0,0.0,0.0,0.0,0.0,0.0,0.0,0.0,0.0,0.0,0.0,0.0,0.0,0.0,0.0,0.0,0.0,0.0,0.0,0.0,0.0,0.0,0.0,0.0,0.0,0.0,0.0,0.0,0.0,0.0,0.0,0.0,0.0,0.0,0.0,0.0,0.0,0.0,0.0,0.0,0.0,0.0,0.0,0.0,0.0,0.0,0.0,0.0,0.0,0.0,0.0,0.0,0.0,0.0,0.0,0.0,0.0,0.0,0.0,0.0,0.0,0.0,0.0,0.0,0.0,0.0,0.0,0.8961,0.9876,1.0548,1.1124,1.1396,1.1321,1.0887,0.9971,0.8533,0.0,0.0,0.0,0.0,0.0,0.0,0.0,0.0,0.0,0.0,0.0,0.0,0.0,0.0,0.0,0.0,0.0,0.0,0.0,0.0,0.0,0.0,0.0,0.0,0.0,0.0,0.0,0.0,0.0,0.0,0.0,0.0,0.0,0.0,0.0,0.0,0.0,0.0,1.0721,1.0731,0.0,0.0,0.0,0.0,0.0,0.0,0.0,0.0,1.2115,0.0,0.0,0.0,0.0,0.0,0.0,0.0,0.0,0.0,0.0,0.0,0.0,0.0,0.0,0.0,0.0,0.0,0.0,0.0,0.0,0.0,0.0,0.0,0.0,0.0,0.0,0.0,0.0,0.0,0.0,0.0,0.0,0.0,0.0,0.0,0.0,0.0,0.0,0.0,0.0,0.0,0.0,0.0,0.0,0.0,0.0,0.0,0.0,0.0,0.0,0.0,0.0,0.0,0.0,0.0,0.0,0.833,0.9639,1.0493,1.0833,1.13,1.1402,1.0995,1.0588,0.9761,0.856,0.0,0.0,0.0,0.0,0.0,0.0,0.0,0.0,0.0,0.0,0.0,0.0,0.0,0.0,0.0,0.0,0.0,0.0,0.0,0.0,0.0,0.0,0.0,0.0,0.0,0.0,0.0,0.0,0.0,0.0,0.0,0.0,0.0,0.0,0.0,0.0,0.0,0.0,0.0,1.1412,1.1207,0.0,0.0,0.0,0.0,0.0,0.0,0.0,0.0,1.2069,0.0,0.0,0.0,0.0,0.0,0.0,0.0,0.0,0.0,0.0,0.0,0.0,0.0,0.0,0.0,0.0,0.0,0.0,0.0,0.0,0.0,0.0,0.0,0.0,0.0,0.0,0.0,0.0,0.0,0.0,0.0,0.0,0.0,0.0,0.0,0.0,0.0,0.0,0.0,0.0,0.0,0.0,0.0,0.0,0.0,0.0,0.0,0.0,0.0,0.0,0.0,0.0,0.0,0.0,0.0,0.8852,1.0086,1.084,1.1172,1.147,1.1367,1.0921,1.0326,0.958,0.0,0.0,0.0,0.0,0.0,0.0,0.0,0.0,0.0,0.0,0.0,0.0,0.0,0.0,0.0,0.0,0.0,0.0,0.0,0.0,0.0,0.0,0.0,0.0,0.0,0.0,0.0,0.0,0.0,0.0,0.0,0.0,0.0,0.0,0.0,0.0,0.0,0.0,0.0,0.0,1.1706,1.1359,1.1286,0.0,0.0,0.0,0.0,0.0,0.0,1.222,1.1839,0.0,0.0,0.0,0.0,0.0,0.0,0.0,0.0,0.0,0.0,0.0,0.0,0.0,0.0,0.0,0.0,0.0,0.0,0.0,0.0,0.0,0.0,0.0,0.0,0.0,0.0,0.0,0.0,0.0,0.0,0.0,0.0,0.0,0.0,0.0,0.0,0.0,0.0,0.0,0.0,0.0,0.0,0.0,0.0,0.0,0.0,0.0,0.0,0.0,0.0,0.0,0.0,0.0,0.0,0.0,0.9248,1.0446,1.1164,1.143,1.1613,1.1428,1.0921,1.0211,0.9372,0.0,0.0,0.0,0.0,0.0,0.0,0.0,0.0,0.0,0.0,0.0,0.0,0.0,0.0,0.0,0.0,0.0,0.0,0.0,0.0,0.0,0.0,0.0,0.0,0.0,0.0,0.0,0.0,0.0,0.0,0.0,0.0,0.0,0.0,0.0,0.0,0.0,0.0,0.0,0.0,0.0,1.1588,1.1926,1.1029,0.0,0.0,0.0,0.0,1.2831,1.2274,0.0,0.0,0.0,0.0,0.0,0.0,0.0,0.0,0.0,0.0,0.0,0.0,0.0,0.0,0.0,0.0,0.0,0.0,0.0,0.0,0.0,0.0,0.0,0.0,0.0,0.0,0.0,0.0,0.0,0.0,0.0,0.0,0.0,0.0,0.0,0.0,0.0,0.0,0.0,0.0,0.0,0.0,0.0,0.0,0.0,0.0,0.0,0.0,0.0,0.0,0.0,0.0,0.0,0.0,0.0,0.0,0.939,1.0799,1.1558,1.1606,1.1864,1.1674,1.09,1.0312,0.9386,0.0,0.0,0.0,0.0,0.0,0.0,0.0,0.0,0.0,0.0,0.0,0.0,0.0,0.0,0.0,0.0,0.0,0.0,0.0,0.0,0.0,0.0,0.0,0.0,0.0,0.0,0.0,0.0,0.0,0.0,0.0,0.0,0.0,0.0,0.0,0.0,0.0,0.0,0.0,0.0,0.0,1.2271,1.2798,1.2073,1.1831,0.0,0.0,1.2821,1.3345,1.3058,0.0,0.0,0.0,0.0,0.0,0.0,0.0,0.0,0.0,0.0,0.0,0.0,0.0,0.0,0.0,0.0,0.0,0.0,0.0,0.0,0.0,0.0,0.0,0.0,0.0,0.0,0.0,0.0,0.0,0.0,0.0,0.0,0.0,0.0,0.0,0.0,0.0,0.0,0.0,0.0,0.0,0.0,0.0,0.0,0.0,0.0,0.0,0.0,0.0,0.0,0.0,0.0,0.0,0.0,0.0,0.8411,0.9625,1.0941,1.1701,1.187,1.203,1.1785,1.109,1.0373,0.9467,0.0,0.0,0.0,0.0,0.0,0.0,0.0,0.0,0.0,0.0,0.0,0.0,0.0,0.0,0.0,0.0,0.0,0.0,0.0,0.0,0.0,0.0,0.0,0.0,0.0,0.0,0.0,0.0,0.0,0.0,0.0,0.0,0.0,0.0,0.0,0.0,0.0,0.0,0.0,0.0,0.0,0.0,1.3608,1.3078,0.0,0.0,0.0,1.315,1.3693,0.0,0.0,0.0,0.0,0.0,0.0,0.0,0.0,0.0,0.0,0.0,0.0,0.0,0.0,0.0,0.0,0.0,0.0,0.0,0.0,0.0,0.0,0.0,0.0,0.0,0.0,0.0,0.0,0.0,0.0,0.0,0.0,0.0,0.0,0.0,0.0,0.0,0.0,0.0,0.0,0.0,0.0,0.0,0.0,0.0,0.0,0.0,0.0,0.0,0.0,0.0,0.0,0.0,0.0,0.0,0.0,0.0,0.9863,1.1138,1.1911,1.22,1.2247,1.1938,1.1376,1.0677,0.0,0.0,0.0,0.0,0.0,0.0,0.0,0.0,0.0,0.0,0.0,0.0,0.0,0.0,0.0,0.0,0.0,0.0,0.0,0.0,0.0,0.0,0.0,0.0,0.0,0.0,0.0,0.6069,0.0,0.0,0.0,0.0,0.0,0.0,0.0,0.0,0.0,0.0,0.0,0.0,0.0,0.0,1.3049,1.4189,1.3904,1.385,0.0,0.0,1.3527,1.3888,1.2846,1.2122,0.0,0.0,0.0,0.0,0.0,0.0,0.0,0.0,0.0,0.0,0.0,0.0,0.0,0.0,0.0,0.0,0.0,0.0,0.0,0.0,0.0,0.0,0.0,0.0,0.0,0.0,0.0,0.0,0.0,0.0,0.0,0.0,0.0,0.0,0.0,0.0,0.0,0.0,0.0,0.0,0.0,0.0,0.0,0.0,0.0,0.0,0.0,0.0,0.0,0.0,0.0,0.0,0.0,0.0,0.0,1.0063,1.1491,1.2311,1.2467,1.261,1.2361,1.1803,1.1335,1.0437,0.0,0.0,0.0,0.0,0.0,0.0,0.0,0.0,0.0,0.0,0.0,0.0,0.0,0.0,0.0,0.0,0.0,0.0,0.0,0.0,0.0,0.0,0.0,0.0,0.0,0.0,0.0,0.0,0.0,0.0,0.0,0.0,0.0,0.0,0.0,0.0,0.0,0.0,0.0,0.0,0.0,1.3547,1.4361,1.4435,1.4492,0.0,0.0,1.4037,1.384,1.3048,1.2465,1.2408,0.0,0.0,0.0,0.0,0.0,0.0,0.0,0.0,0.0,0.0,0.0,0.0,0.0,0.0,0.0,0.0,0.0,0.0,0.0,0.0,0.0,0.0,0.0,0.0,0.0,0.0,0.0,0.0,0.0,0.0,0.0,0.0,0.0,0.0,0.0,0.0,0.0,0.0,0.0,0.0,0.0,0.0,0.0,0.0,0.0,0.0,0.0,0.0,0.0,0.0,0.0,0.0,0.0,0.8723,1.0213,1.1579,1.2406,1.2637,1.2793,1.2671,1.225,1.1934,1.1091,0.0,0.0,0.0,0.0,0.0,0.0,0.0,0.0,0.0,0.0,0.0,0.0,0.0,0.0,0.0,0.0,0.0,0.0,0.0,0.0,0.0,0.0,0.0,0.0,0.0,0.0,0.0,0.0,0.6645,0.684,0.6863,0.0,0.0,0.0,0.0,0.0,0.0,0.0,0.0,0.0,0.0,1.3273,1.4246,1.4344,0.0,0.0,1.4413,1.3959,1.3614,1.2579,1.1772,1.1681,1.1699,0.0,0.0,0.0,0.0,0.0,0.0,0.0,0.0,0.0,0.0,0.0,0.0,0.0,0.0,0.0,0.0,0.0,0.0,0.0,0.0,0.0,0.0,0.0,0.0,0.0,0.0,0.0,0.0,0.0,0.0,0.0,0.0,0.0,0.0,0.0,0.0,0.0,0.0,0.0,0.0,0.0,0.0,0.0,0.0,0.0,0.0,0.0,0.0,0.0,0.0,0.0,0.0,0.8308,0.9723,1.1025,1.1765,1.2034,1.2181,1.2176,1.2057,1.1925,1.1283,0.0,0.0,0.0,0.0,0.0,0.0,0.0,0.0,0.0,0.0,0.0,0.0,0.0,0.0,0.0,0.0,0.0,0.0,0.0,0.0,0.0,0.0,0.0,0.0,0.0,0.0,0.0,0.0,0.6594,0.6559,0.6373,0.0,0.0,0.0,0.0,0.0,0.0,0.0,0.0,0.0,0.0,1.3075,1.3953,1.4208,1.4383,1.4667,1.4364,1.3904,1.3326,1.2258,1.1393,1.1236,0.0,0.0,0.0,0.0,0.0,0.0,0.0,0.0,0.0,0.0,0.0,0.0,0.0,0.0,0.0,0.0,0.0,0.0,0.0,0.0,0.0,0.0,0.0,0.0,0.0,0.0,0.0,0.0,0.0,0.0,0.2244,0.0,0.0,0.0,0.0,0.0,0.0,0.0,0.0,0.0,0.0,0.0,0.0,0.0,0.0,0.0,0.0,0.0,0.0,0.0,0.0,0.0,0.0,0.7261,0.8426,0.9574,1.0287,1.0408,1.0487,1.0655,1.0976,1.1122,1.0915,1.0285,0.0,0.0,0.0,0.0,0.0,0.0,0.0,0.0,0.0,0.0,0.0,0.0,0.0,0.0,0.0,0.0,0.0,0.0,0.0,0.0,0.0,0.0,0.0,0.0,0.0,0.0,0.6285,0.6137,0.5988,0.0,0.0,0.0,0.0,0.0,0.0,0.0,0.0,0.0,0.0,1.2386,1.3033,1.3446,1.4049,1.4398,1.4239,1.4215,1.395,1.302,1.2185,1.1515,0.0,0.0,0.0,0.0,0.0,0.0,0.0,0.0,0.0,0.0,0.0,0.0,0.0,0.0,0.0,0.0,0.0,0.0,0.0,0.0,0.0,0.0,0.0,0.0,0.0,0.0,0.0,0.2004,0.1985,0.0,0.0,0.0,0.0,0.0,0.0,0.0,0.0,0.0,0.0,0.0,0.2636,0.2619,0.0,0.0,0.0,0.0,0.0,0.0,0.0,0.0,0.0,0.0,0.0,0.0,0.532,0.6179,0.7103,0.7673,0.7815,0.7909,0.8247,0.8857,0.9687,1.0113,1.0077,0.0,0.0,0.0,0.0,0.0,0.0,0.0,0.0,0.0,0.0,0.0,0.0,0.0,0.0,0.0,0.0,0.0,0.0,0.0,0.0,0.0,0.0,0.0,0.0,0.0,0.6532,0.0,0.0,0.0,0.0,0.0,0.0,0.0,0.0,0.0,0.0,0.0,1.0026,1.0791,1.1641,1.2323,1.2786,1.3373,1.3745,0.0,0.0,0.0,0.0,0.0,0.0,0.0,0.0,0.0,0.0,0.0,0.0,0.0,0.0,1.1326,1.1681,1.1791,1.2008,1.2527,0.0,0.0,0.0,0.0,0.0,0.0,0.0,0.0,0.0,0.0,0.0,0.0,0.0,0.0,0.1103,0.0,0.1054,0.0,0.0,0.0,0.0,0.0,0.0,0.0,0.0,0.1527,0.1614,0.1684,0.17,0.1706,0.0,0.172,0.1685,0.0,0.0,0.0,0.0,0.0,0.0,0.0,0.0,0.385,0.4453,0.514,0.5517,0.5598,0.5723,0.6129,0.6965,0.8326,0.9238,0.9615,0.9018,0.816,0.0,0.0,0.0,0.0,0.0,0.0,0.0,0.0,0.0,0.0,0.0,0.0,0.0,0.0,0.0,0.0,0.0,0.0,0.0,0.0,0.0,0.0,0.0,0.7168,0.0,0.0,0.0,0.0,0.0,0.0,0.0,0.0,0.0,0.8581,0.9273,1.0046,1.0785,1.1525,1.2169,1.2664,0.0,0.0,0.0,0.0,0.0,0.0,0.0,1.1694,1.1653,1.1647,1.1714,1.1911,1.2182,1.2461,1.2712,0.0,0.0,1.2989,1.2883,1.2998,1.3354,1.3251,1.3143,1.3205,1.3444,1.3768,0.0,0.0,0.0,0.0,0.0,0.0,0.0,0.0,0.0,0.0,0.0,0.0,0.0,0.0,0.0,0.0,0.0,0.0,0.0,0.0,0.0,0.0,0.0,0.0,0.0,0.0,0.0,0.0,0.0,0.1315,0.0,0.0,0.0,0.0,0.0,0.0,0.2798,0.3087,0.3529,0.3785,0.3747,0.3821,0.4338,0.5326,0.7067,0.8255,0.8842,0.8645,0.8239,0.7701,0.7443,0.0,0.0,0.0,0.0,0.0,0.0,0.0,0.0,0.0,0.0,0.0,0.0,0.0,0.0,0.0,0.0,0.0,0.0,0.0,0.0,0.8029,0.0,0.0,0.0,0.0,0.0,0.0,0.0,0.0,0.0,0.0,0.9751,1.0209,1.0812,1.1509,0.0,0.0,0.0,0.0,1.3808,1.3808,1.3808,1.3707,1.3458,1.3004,1.2813,1.3009,0.0,0.0,1.3424,1.3471,1.3532,1.3626,1.3939,1.4027,1.3749,1.3609,1.3493,1.3486,1.3398,1.3309,1.3438,1.3638,1.3863,0.1566,0.0,0.0,0.0,0.0,0.0787,0.0319,0.0,0.0,0.0,0.0,0.0,0.0,0.0,0.0,0.0,0.0,0.0,0.0,0.0,0.0,0.0,0.0,0.0,0.0,0.0,0.0,0.0,0.0,0.0402,0.0559,0.0533,0.0,0.0,0.0,0.0,0.0823,0.0914,0.1054,0.1111,0.1119,0.1126,0.204,0.3944,0.4977,0.5963,0.6805,0.7043,0.7268,0.7456,0.7455,0.0,0.0,0.0,0.0,0.0,0.0,0.0,0.0,0.0,0.0,0.0,0.0,0.0,0.0,0.0,0.0,0.0,0.0,0.0,0.8892,0.8994,0.8845,0.0,0.0,0.0,0.0,0.0,0.0,0.0,0.0,0.0,1.1753,1.1701,1.1769,0.0,0.0,1.3057,1.3444,1.3878,1.417,1.417,0.0,0.0,0.0,1.3675,1.3572,1.3871,1.4265,1.4645,1.4897,1.4997,1.4965,1.4998,1.5133,1.5187,1.5187,1.474,1.4387,1.4309,1.4275,1.4299,1.4309,1.4475,1.4652,0.0656,0.1598,0.1269,0.0949,0.0688,0.0394,0.0163,0.0,0.0,0.0,0.0,0.0,0.0,0.0,0.0,0.0,0.0,0.0,0.0,0.0,0.0,0.0,0.0,0.0,0.0,0.0,0.0,0.0,0.0,0.0,0.0,0.0,0.0,0.0,0.0,0.0,0.0,0.0,0.0,0.0,0.0,0.0176,0.1098,0.2793,0.3433,0.4208,0.5141,0.5645,0.6167,0.6821,0.7002,0.7251,0.0,0.0,0.0,0.0,0.0,0.0,0.0,0.0,0.0,0.0,0.0,0.5149,0.4571,0.0,0.0,0.0,0.7568,0.8961,0.9849,0.9964,0.0,0.0,0.0,0.0,0.0,0.0,0.0,1.1531,1.221,1.2774,1.324,1.322,1.3125,1.3125,1.3458,1.381,1.4116,0.0,1.4652,1.4652,1.4652,1.4618,1.4529,1.4387,1.4394,1.4692,1.5079,1.5404,1.5546,1.5587,1.5587,1.5593,1.5634,1.5771,1.592,1.5615,1.5337,1.5235,1.5276,1.5289,1.5343,1.5438,1.5547,0.0,0.0,0.0,0.0,0.0,0.0,0.0,0.0,0.0,0.0,0.0,0.0,0.0,0.0,0.0,0.0,0.0,0.0,0.0,0.0,0.0,0.0,0.0,0.0,0.0,0.0,0.0,0.0,0.0,0.0,0.0,0.0,0.0,0.0,0.0,0.0,0.0,0.0,0.0,0.0,0.0,0.0402,0.1027,0.1812,0.2273,0.284,0.3583,0.4198,0.4899,0.5693,0.6049,0.6463,0.7,0.0,0.0,0.0,0.0,0.0,0.0,0.0,0.0,0.0,0.0,0.0,0.0,0.0,0.0,0.0,0.819,0.0,1.0552,1.0744,0.0,0.0,0.0,1.0048,1.0756,1.1345,1.1998,1.2782,0.0,0.0,0.0,0.0,1.4393,1.4108,1.4352,1.4706,1.4997,1.5153,1.5262,1.5276,1.5282,1.5296,1.5303,1.5201,1.5208,1.5452,1.5566,1.5723,1.5695,1.5695,1.5675,1.5695,1.5818,1.601,1.616,1.6225,1.63,1.6157,1.6117,1.6144,1.6232,1.6259,1.6293,0.0,0.0,0.0,0.0,0.0,0.0,0.0,0.0,0.0,0.0,0.0,0.0,0.0,0.0,0.0,0.0,0.0,0.0,0.0,0.0,0.0,0.0,0.0,0.0,0.0,0.0,0.0,0.0,0.0,0.0,0.0,0.0,0.0,0.0,0.0,0.0,0.0,0.0,0.0,0.0,0.0,0.009,0.0269,0.0492,0.0571,0.0737,0.0905,0.1712,0.265,0.3741,0.4221,0.4905,0.5789,0.5686,0.0,0.0,0.0,0.0,0.0,0.0,0.0,0.0,0.0,0.4657,0.3946,0.0,0.4587,0.0,0.7544,0.9328,0.9669,0.9977,0.0,0.0,0.9647,0.961,1.0103,1.0618,1.1129,1.1545,1.2068,1.2464,1.276,1.2839,1.311,1.3644,1.4652,1.5438,1.567,1.5771,1.5913,1.6008,1.6103,1.6205,1.6171,1.6178,1.6151,1.6246,1.6286,1.6313,1.6256,1.6313,1.6313,1.6313,1.6334,1.6422,1.65,1.6574,1.6621,1.6727,1.6585,1.6429,1.6469,1.6469,1.6483,-0.1331,-0.1541,-0.126,-0.1023,-0.0743,-0.0199,0.0,0.0,0.0,0.0,0.0,0.0,0.0,0.0,0.0,0.0,0.0,0.0,0.0,0.0,0.0,0.0,0.0,0.0,0.0,0.0,0.0,0.0,0.0,0.0,0.0,0.0,0.0,0.0,0.0,0.0,0.0,0.0,0.0,0.0,0.0,0.0,0.0,0.0,0.0,0.0,0.0,0.0671,0.1526,0.2497,0.2961,0.3555,0.4374,0.4467,0.4576,0.0,0.0,0.0,0.0,0.0,0.0,0.0,0.0,0.0,0.0,0.0,0.3602,0.4257,0.6069,0.7406,0.7841,0.8169,0.8411,0.8408,0.824,0.8232,0.8551,0.8884,0.9213,0.958,0.988,1.0161,1.0346,1.0377,1.0767,1.1746,1.3162,1.4533,1.5552,1.5981,1.6239,1.6381,1.6469,1.6517,1.6517,1.6517,1.6517,1.6517,1.6517,1.6517,1.6517,1.6517,1.6517,1.6517,1.6517,1.6571,1.6662,1.6696,1.675,1.691,1.6849,1.6741,1.6727,1.6727,1.6741,-0.352,-0.4107,-0.3457,-0.2747,-0.2007,-0.0839,-0.0211,0.0,0.0,0.0,0.0,0.0,0.0,0.0,0.0,0.0,0.0,0.0,0.0,0.0,0.0,0.0,0.0,0.0,0.0,0.0,0.0,0.0,0.0,0.0,0.0,0.0,0.0,0.0,0.0,0.0,0.0,0.0,0.0,0.0,0.0,0.0,0.0,0.0,0.0,0.0,0.0,0.0374,0.0905,0.1625,0.191,0.2244,0.2772,0.3039,0.3393,0.0,0.4385,0.0,0.0,0.0,0.0,0.0,0.0,0.0,0.0,0.1798,0.2522,0.3483,0.4391,0.5163,0.569,0.6019,0.6273,0.6389,0.6413,0.6466,0.6585,0.6713,0.6918,0.719,0.738,0.7477,0.7635,0.7612,0.8022,0.9208,1.0784,1.2538,1.4497,1.5658,1.6422,1.6537,1.6513,1.6619,1.6612,1.6598,1.6598,1.6592,1.6605,1.6578,1.6598,1.6592,1.6598,1.6619,1.6639,1.6628,1.6757,1.6797,1.6838,1.7032,1.7046,1.7019,1.6971,1.6951,1.7026,-0.6484,-0.7734,-0.674,-0.5415,-0.39,-0.2708,-0.1345,0.0,0.0,0.0,0.0,0.0,0.0,0.0,0.0,0.0,0.0,0.0,0.0,0.0,0.0,0.0,0.0,0.0,0.0,0.0,0.0,0.0,0.0,0.0,0.0,0.0,0.0,0.0,0.0,0.0,0.0,0.0,0.0,0.0,0.0,0.0,0.0,0.0,0.0,0.0,0.0,0.0083,0.0204,0.0366,0.0396,0.0,0.0,0.0,0.0,0.0,0.0,0.0,0.0,0.0,0.0,0.0,0.2117,0.1783,0.134,0.1536,0.199,0.2668,0.3532,0.4133,0.4383,0.4608,0.4762,0.4816,0.4808,0.4904,0.5011,0.5087,0.5205,0.5229,0.5411,0.5525,0.5491,0.555,0.5969,0.7014,0.8576,1.0114,1.1522,1.4479,1.6518,1.6662,1.6587,1.6831,1.689,1.6831,1.6706,1.6897,1.689,1.6883,1.6876,1.6883,1.6937,1.7019,1.7066,1.71,1.7196,1.7237,1.7277,1.7331,1.7331,1.7263,1.7032,1.6978,1.7019,-0.9272,0.0,-0.9353,-0.7852,0.0,-0.4914,-0.3434,-0.1683,-0.0538,0.0,0.0,0.0,0.0,0.0,0.0,0.0,0.0,0.0,0.0,0.0,0.0,0.0,0.0,0.0,0.0,0.0,0.0,0.0,0.0,0.0,0.0,0.0,0.0,0.0,0.0,0.0,0.0,0.0,0.0,0.0,0.0,0.0,0.0,0.0,0.0,0.0,0.0,0.0,0.0,0.0,0.0,0.0,0.0,0.0,0.0,0.1274,0.1864,0.2459,0.298,0.2763,0.2318,0.174,0.1128,0.0702,0.068,0.0732,0.0921,0.1253,0.1683,0.1939,0.2015,0.2102,0.2188,0.2217,0.2232,0.225,0.2332,0.2355,0.2372,0.2384,0.2457,0.2527,0.2537,0.2549,0.298,0.4045,0.5583,0.7122,0.8532,1.225,1.5054,1.5167,1.5228,1.5336,1.5336,1.5605,1.5815,1.6078,1.6394,1.6663,1.6985,1.6978,1.7026,1.7154,1.7195,1.7243,1.7378,1.7419,1.7419,1.7419,1.7419,1.7385,1.7222,1.7195,1.7243,-1.2171,-1.3262,-1.2083,-1.0569,-0.8872,-0.7673,-0.616,-0.4366,0.0,0.0,0.0,-0.0641,-0.058,-0.0462,-0.0349,-0.0242,-0.0142,-0.0046,0.0,0.0,0.0,0.0,0.0,0.0,0.0,0.0,0.0,0.0,0.0,0.0,0.0,0.0,0.0,0.0,0.0,0.0,0.0,0.0,0.0,0.0,0.0,0.0,0.0,0.0,0.0,0.0,0.0,0.0,0.0,0.0,0.0,0.0,0.0,0.0278,0.0585,0.1035,0.1432,0.188,0.2418,0.2003,0.1617,0.1342,0.0516,0.0,0.0,0.0,0.0,0.0,0.0,0.0,0.0,0.0,0.0,0.0,0.0,0.0,0.0,0.0,0.0,0.0,0.0,0.0,0.0,0.0,0.0378,0.1516,0.3093,0.4418,0.5984,0.9637,1.2458,1.2528,1.2552,1.2649,1.275,1.3237,1.3916,1.4733,1.5415,1.6096,1.6848,1.706,1.7114,1.727,1.727,1.7351,1.7467,1.7521,1.75,1.7494,1.75,1.75,1.75,1.75,1.7528,-1.5555,-1.7054,-1.5814,-1.4304,-1.2569,-1.1355,-0.982,-0.7886,-0.4578,-0.3075,-0.3104,-0.3026,-0.2719,-0.2197,-0.1667,-0.118,-0.0673,-0.0187,0.0,0.0,0.0,0.0,0.0,0.0,0.0,0.0,0.0,0.0,0.0,0.0,0.0,0.0,0.0,0.0,0.0,0.0,0.0,0.0,0.0,0.0,0.0,0.0,0.0,0.0,0.0,0.0,0.0,0.0,0.0,0.0,0.0,0.0,0.0,0.0,0.0085,0.017,0.0,0.0305,0.0,0.0,0.0277,0.0238,0.0098,0.0,0.0,0.0,0.0,0.0,0.0,0.0,0.0,0.0,0.0,0.0,0.0,0.0,0.0,0.0,0.0,0.0,0.0,0.0,0.0,0.0,0.0217,0.1036,0.197,0.3336,0.4916,0.7445,0.905,0.9223,0.9223,0.9226,0.9424,1.0196,1.1429,1.3066,1.4143,1.5266,1.6781,1.6996,1.7056,1.7439,1.7276,1.7452,1.7642,1.7799,1.7779,1.7765,1.782,1.7827,1.7765,1.7827,1.7758,-1.6865,-1.7749,-1.6926,-1.5751,-1.4237,-1.2738,-1.1654,-1.072,-0.9177,-0.7675,-0.6486,-0.6376,-0.5814,-0.492,-0.3638,-0.2559,-0.1739,-0.0563,0.0,0.0,0.0,0.0,0.0,0.0,0.0,0.0,0.0,0.0,0.0,0.0,0.0,0.0,0.0,0.0,0.0,0.0,0.0,0.0,0.0,0.0,0.0,0.0,0.0,0.0,0.0,0.0,0.0,0.0,0.0,0.0,0.0,0.0,0.0,0.0,0.0,0.0,0.0,0.0,0.0,0.0,0.0,0.0,0.0,0.0,0.0,0.0,0.0,0.0,0.0,0.0,0.0,0.0,0.0,0.0,0.0,0.0,0.0,0.0,0.0,0.0,0.0,0.0,0.0,0.0,0.0,0.0441,0.0,0.0,0.0,0.0,0.4628,0.6176,0.6652,0.6652,0.6709,0.7686,0.9103,1.0841,1.2043,1.3457,1.5092,1.547,1.553,1.5693,1.5949,1.6382,1.6784,1.7203,1.748,1.786,1.7915,1.7915,1.7915,1.7915,1.7833,-1.748,-1.786,-1.7424,-1.665,-1.5702,-1.4303,-1.3692,-1.3692,-1.3692,-1.2691,-1.0942,-0.9984,-0.885,-0.7489,-0.5575,-0.4001,-0.2656,-0.0866,0.0,0.0,0.0,0.0,0.0,0.0,0.0,0.0,0.0,0.0,0.0,0.0,0.0,0.0,0.0,0.0,0.0,0.0,0.0,0.0,0.0,0.0,0.0,0.0,0.0,0.0,0.0,0.0,0.0,0.0,0.0,0.0,0.0,0.0,0.0,0.0,0.0,0.0,0.0,0.0,0.0,0.0,0.0,0.0,0.0,0.0,0.0,0.0,0.0,0.0,0.0,0.0,0.0,0.0,0.0,0.0,0.0,0.0,0.0,0.0,0.0,0.0,0.0,0.0,0.0,0.0,0.0,0.0,0.0,0.0,0.0,0.0,0.0,0.2982,0.3955,0.3903,0.401,0.4945,0.6317,0.8065,0.9273,1.0707,1.2128,1.2773,1.2798,1.2887,1.3502,1.431,1.5223,1.6089,1.6865,1.7584,1.7915,1.7915,1.7915,1.7956,1.7894,-1.7867,-1.7915,-1.7811,-1.7749,-1.7584,-1.7363,-1.7252,-1.7252,-1.7363,-1.7294,-1.6451,-1.3531,-1.1173,-0.9385,-0.7078,-0.5092,-0.3332,-0.1032,0.0,0.0,0.0,0.0,0.0,0.0,0.0,0.0,0.0,0.0,0.0,0.0,0.0,0.0,0.0,0.0,0.0,0.0,0.0,0.0,0.0,0.0,0.0,0.0,0.0,0.0,0.0,0.0,0.0,0.0,0.0,0.0,0.0,0.0,0.0,0.0,0.0,0.0,0.0,0.0,0.0,0.0,0.0,0.0,0.0,0.0,0.0,0.0,0.0,0.0,0.0,0.0,0.0,0.0,0.0,0.0,0.0,0.0,0.0,0.0,0.0,0.0,0.0,0.0,0.0,0.0,0.0,0.0,0.0,0.0,0.0,0.0,0.0,0.0,0.0,0.0,0.0,0.151,0.329,0.4849,0.6023,0.757,0.8948,0.9506,0.9417,0.9787,1.0476,1.1654,1.3218,1.457,1.5862,1.6975,1.7473,1.7749,1.788,1.7782,1.7697,-1.797,-1.7989,-1.7956,-1.7915,-1.7915,-1.7915,-1.7915,-1.7915,-1.7915,-1.7915,-1.7743,-1.6298,-1.4437,-1.2237,-0.9107,-0.6515,-0.4353,-0.1341,0.0,0.0,0.0,0.0,0.0,0.0,0.0,0.0,0.0,0.0,0.0,0.0,0.0,0.0,0.0,0.0,0.0,0.0,0.0,0.0,0.0,0.0,0.0,0.0,0.0,0.0,0.0,0.0,0.0,0.0,0.0,0.0,0.0,0.0,0.0,0.0,0.0,0.0,0.0,0.0,0.0,0.0,0.0,0.0,0.0,0.0,0.0,0.0,0.0,0.0,0.0,0.0,0.0,0.0,0.0,0.0,0.0,0.0,0.0,0.0,0.0,0.0,0.0,0.0,0.0,0.0,0.0,0.0,0.0,0.0,0.0,0.0,0.0,0.0,0.0,0.0,0.0,0.0673,0.185,0.308,0.4142,0.5261,0.6318,0.6823,0.6823,0.6765,0.7772,0.9111,1.0949,1.2293,1.3637,1.5025,1.5751,1.5751,1.5751,1.5793,1.5799,-1.7989,-1.8063,-1.7968,-1.7921,-1.7921,-1.7936,-1.7915,-1.7915,-1.7915,-1.7915,-1.7915,-1.7915,-1.6752,-1.4387,-1.0883,-0.7959,-0.5496,-0.2091,-0.0386,-0.0275,-0.0055,0.0,0.0,0.0,0.0,0.0,0.0,0.0,0.0,0.0,0.0,0.0,0.0,0.0,0.0,0.0,0.0,0.0,0.0,0.0,0.0,0.0,0.0,0.0,0.0,0.0,0.0,0.0,0.0,0.0,0.0,0.0,0.0,0.0,0.0,0.0,0.0,0.0,0.0,0.0,0.0,0.0,0.0,0.0,0.0,0.0,0.0,0.0,0.0,0.0,0.0,0.0,0.0,0.0,0.0,0.0,0.0,0.0,0.0,0.0,0.0,0.0,0.0,0.0,0.0,0.0,0.0,0.0,0.0,0.0,0.0,0.0,0.0,0.0,0.0,0.0337,0.1122,0.1626,0.2354,0.2856,0.3748,0.3858,0.3912,0.368,0.492,0.6269,0.7772,0.9222,1.079,1.2177,1.2849,1.2849,1.2677,1.2813,1.2823,-1.8084,-1.8097,-1.8084,-1.8077,-1.807,-1.7935,-1.7929,-1.7949,-1.7929,-1.7922,-1.7929,-1.7922,-1.7197,-1.5739,-1.2311,-0.9375,-0.6876,-0.341,-0.1455,-0.0895,-0.0278,0.0,0.0,0.0,0.0,0.0,0.0,0.0,0.0,0.0,0.0,0.0,0.0,0.0,0.0,0.0,0.0,0.0,0.0,0.0,0.0,0.0,0.0,0.0,0.0,0.0,0.0,0.0,0.0,0.0,0.0,0.0,0.0,0.0,0.0,0.0,0.0,0.0,0.0,0.0,0.0,0.0,0.0,0.0,0.0,0.0,0.0,0.0,0.0,0.0,0.0,0.0,0.0,0.0,0.0,0.0,0.0,0.0,0.0,0.0,0.0,0.0,0.0,0.0,0.0,0.0,0.0,0.0,0.0,0.0,0.0,0.0,0.0,0.0,0.0,0.0,0.0,0.0,0.0,0.0,0.0,0.0223,0.0,0.078,0.2012,0.3303,0.4476,0.5927,0.749,0.8658,0.9327,0.9438,0.9609,0.945,0.9506,-1.824,-1.824,-1.824,-1.824,-1.8219,-1.8077,-1.8063,-1.8145,-1.805,-1.8009,-1.7989,-1.7963,-1.7424,-1.6539,-1.4525,-1.1848,-0.8671,-0.5149,-0.3024,-0.196,-0.0667,0.0,0.0,0.0,0.0,0.0,0.0,0.0,0.0,0.0,0.0,0.0,0.0,0.0,0.0,0.0,0.0,0.0,0.0,0.0,0.0,0.0,0.0,0.0,0.0,0.0,0.0,0.0,0.0,0.0,0.0,0.0,0.0,0.0,0.0,0.0,0.0,0.0,0.0,0.0,0.0,0.0,0.0,0.0,0.0,0.0,0.0,0.0,0.0,0.0,0.0,0.0,0.0,0.0,0.0,0.0,0.0,0.0,0.0,0.0,0.0,0.0,0.0,0.0,0.0,0.0,0.0,0.0,0.0,0.0,0.0,0.0,0.0,0.0,0.0,0.0,0.0,0.0,0.0,0.0,0.0,0.0,0.0,0.0,0.0835,0.1566,0.3184,0.4303,0.5586,0.5929,0.6486,0.6364,0.6656,0.6508,0.6564,-1.8416,-1.845,-1.8409,-1.8332,-1.8319,-1.8233,-1.8219,-1.8308,-1.8206,-1.8138,-1.8077,-1.7982,-1.7693,-1.721,-1.6422,-1.4636,-1.1514,-0.7605,-0.4925,-0.3472,-0.1505,-0.05,-0.0277,-0.011,0.0,0.0,0.0,0.0,0.0,0.0,0.0,0.0,0.0,0.0,0.0,0.0,0.0,0.0,0.0,0.0,0.0,0.0,0.0,0.0,0.0,0.0,0.0,0.0,0.0,0.0,0.0,0.0,0.0,0.0,0.0,0.0,0.0,0.0,0.0,0.0,0.0,0.0,0.0,0.0,0.0,0.0,0.0,0.0,0.0,0.0,0.0,0.0,0.0,0.0,0.0,0.0,0.0,0.0,0.0,0.0,0.0,0.0,0.0,0.0,0.0,0.0,0.0,0.0,0.0,0.0,0.0,0.0,0.0,0.0,0.0,0.0,0.0,0.0,0.0,0.0,0.0,0.0,0.0,0.0,0.0,0.0,0.0,0.0,0.0,0.0,0.3519,0.3285,0.3459,0.3574,0.0,-1.862,-1.8708,-1.8593,-1.8467,-1.8511,-1.8325,-1.8321,-1.8348,-1.8271,-1.8253,-1.8152,-1.8091,-1.8002,-1.7839,-1.7652,-1.7031,-1.4914,-1.0619,-0.7443,-0.5487,-0.3024,-0.1563,-0.0998,0.0,0.0,0.0,0.0,0.0,0.0,0.0,0.0,0.0,0.0,0.0,0.0,0.0,0.0,0.0,0.0,0.0,0.0,0.0,0.0,0.0,0.0,0.0,0.0,0.0,0.0,0.0,0.0,0.0,0.0,0.0,0.0,0.0,0.0,0.0,0.0,0.0,0.0,0.0,0.0,0.0,0.0,0.0,0.0,0.0,0.0,0.0,0.0,0.0,0.0,0.0,0.0,0.0,0.0,0.0,0.0,0.0,0.0,0.0,0.0,0.0,0.0,0.0,0.0,0.0,0.0,0.0,0.0,0.0,0.0,0.0,0.0,0.0,0.0,0.0,0.0,0.0,0.0,0.0,0.0,0.0,0.0,0.0,0.0,0.0,0.0,0.0,0.0,0.0,0.0,0.0,0.0,-1.8721,-1.88,-1.8599,-1.8593,-1.866,-1.8525,-1.8518,-1.8606,-1.8511,-1.8437,-1.8362,-1.8179,-1.8063,-1.8002,-1.797,-1.748,-1.6539,-1.397,-1.1347,-0.8278,-0.5147,-0.3077,-0.2009,-0.0667,0.0,0.0,0.0,0.0,0.0,0.0,0.0,0.0,0.0,0.0,0.0,0.0,0.0,0.0,0.0,0.0,0.0,0.0,0.0,0.0,0.0,0.0,0.0,0.0,0.0,0.0,0.0,0.0,0.0,0.0,0.0,0.0,0.0,0.0,0.0,0.0,0.0,0.0,0.0,0.0,0.0,0.0,0.0,0.0,0.0,0.0,0.0,0.0,0.0,0.0,0.0,0.0,0.0,0.0,0.0,0.0,0.0,0.0,0.0,0.0,0.0,0.0,0.0,0.0,0.0,0.0,0.0,0.0,0.0,0.0,0.0,0.0,0.0,0.0,0.0,0.0,0.0,0.0,0.0,0.0,0.0,0.0,0.0,0.0,0.0,0.0,0.0,0.0,0.0,0.0,0.0,-1.882,-1.8807,-1.8654,-1.8674,-1.8807,-1.8654,-1.8674,-1.8742,-1.866,-1.8586,-1.8498,-1.8342,-1.8226,-1.8165,-1.807,-1.778,-1.7344,-1.6614,-1.4569,-1.1124,-0.6988,-0.4478,-0.2912,-0.0949,0.0,0.0,0.0,0.0,0.0,0.0,0.0,0.0,0.0,0.0,0.0,0.0,0.0,0.0,0.0,0.0,0.0,0.0,0.0,0.0,0.0,0.0,0.0,0.0,0.0,0.0,0.0,0.0,0.0,0.0,0.0,0.0,0.0,0.0,0.0,0.0,0.0,0.0,0.0,0.0,0.0,0.0,0.0,0.0,0.0,0.0,0.0,0.0,0.0,0.0,0.0,0.0,0.0,0.0,0.0,0.0,0.0,0.0,0.0,0.0,0.0,0.0,0.0,0.0,0.0,0.0,0.0,0.0,0.0,0.0,0.0,0.0,0.0,0.0,0.0,0.0,0.0,0.0,0.0,0.0,0.0,0.0,0.0,0.0,0.0,0.0,0.0,0.0,0.0,0.0,0.0,-1.882,-1.882,-1.882,-1.8813,-1.882,-1.8807,-1.8807,-1.882,-1.8813,-1.8674,-1.8565,-1.8504,-1.8379,-1.8348,-1.8287,-1.815,-1.8068,-1.7903,-1.6385,-1.3167,-0.8947,-0.5371,-0.2857,-0.084,0.0,0.0,0.0,0.0,0.0,0.0,0.0,0.0,0.0,0.0,0.0,0.0,0.0,0.0,0.0,0.0,0.0,0.0,0.0,0.0,0.0,0.0,0.0,0.0,0.0,0.0,0.0,0.0,0.0,0.0,0.0,0.0,0.0,0.0,0.0,0.0,0.0,0.0,0.0,0.0,0.0,0.0,0.0,0.0,0.0,0.0,0.0,0.0,0.0,0.0,0.0,0.0,0.0,0.0,0.0,0.0,0.0,0.0,0.0,0.0,0.0,0.0,0.0,0.0,0.0,0.0,0.0,0.0,0.0,0.0,0.0,0.0,0.0,0.0,0.0,0.0,0.0,0.0,0.0,0.0,0.0,0.0,0.0,0.0,0.0,0.0,0.0,0.0,0.0,0.0,0.0,-1.882,-1.882,-1.882,-1.882,-1.882,-1.882,-1.882,-1.882,-1.882,-1.8735,-1.8681,-1.8579,-1.8461,-1.847,-1.8369,-1.8294,-1.8247,-1.8152,-1.679,-1.4087,-1.0245,-0.5426,-0.1738,0.0,0.0,0.0,0.0,0.0,0.0,0.0,0.0,0.0,0.0,0.0,0.0,0.0,0.0,0.0,0.0,0.0,0.0,0.0,0.0,0.0,0.0,0.0,0.0,0.0,0.0,0.0,0.0,0.0,0.0,0.0,0.0,0.0,0.0,0.0,0.0,0.0,0.0,0.0,0.0,0.0,0.0,0.0,0.0,0.0,0.0,0.0,0.0,0.0,0.0,0.0,0.0,0.0,0.0,0.0,0.0,0.0,0.0,0.0,0.0,0.0,0.0,0.0,0.0,0.0,0.0,0.0,0.0,0.0,0.0,0.0,0.0,0.0,0.0,0.0,0.0,0.0,0.0,0.0,0.0,0.0,0.0,0.0,0.0,0.0,0.0,0.0,0.0,0.0,0.0,0.0,0.0,-1.882,-1.882,-1.882,-1.882,-1.882,-1.882,-1.882,-1.882,-1.882,-1.882,-1.8742,-1.8674,-1.8633,-1.862,-1.8545,-1.8464,-1.8403,-1.8321,-1.6884,-1.404,-0.9571,-0.4736,0.0,0.0,0.0,0.0,0.0,0.0,0.0,0.0,0.0,0.0,0.0,0.0,0.0,0.0,0.0,0.0,0.0,0.0,0.0,0.0,0.0,0.0,0.0,0.0,0.0,0.0,0.0,0.0,0.0,0.0,0.0,0.0,0.0,0.0,0.0,0.0,0.0,0.0,0.0,0.0,0.0,0.0,0.0,0.0,0.0,0.0,0.0,0.0,0.0,0.0,0.0,0.0,0.0,0.0,0.0,0.0,0.0,0.0,0.0,0.0,0.0,0.0,0.0,0.0,0.0,0.0,0.0,0.0,0.0,0.0,0.0,0.0,0.0,0.0,0.0,0.0,0.0,0.0,0.0,0.0,0.0,0.0,0.0,0.0,0.0,0.0,0.0,0.0,0.0,0.0,0.0,0.0,0.0,-1.882,-1.882,-1.882,-1.882,-1.882,-1.882,-1.882,-1.882,-1.882,-1.882,-1.8813,-1.882,-1.88,-1.882,-1.8766,-1.8674,-1.8552,-1.8504,-1.6521,-1.3186,-0.8745,-0.4044,0.0,0.0,0.0,0.0,0.0,0.0,0.0,0.0,0.0,0.0,0.0,0.0,0.0,0.0,0.0,0.0,0.0,0.0,0.0,0.0,0.0,0.0,0.0,0.0,0.0,0.0,0.0,0.0,0.0,0.0,0.0,0.0,0.0,0.0,0.0,0.0,0.0,0.0,0.0,0.0,0.0,0.0,0.0,0.0,0.0,0.0,0.0,0.0,0.0,0.0,0.0,0.0,0.0,0.0,0.0,0.0,0.0,0.0,0.0,0.0,0.0,0.0,0.0,0.0,0.0,0.0,0.0,0.0,0.0,0.0,0.0,0.0,0.0,0.0,0.0,0.0,0.0,0.0,0.0,0.0,0.0,0.0,0.0,0.0,0.0,0.0,0.0,0.0,0.0,0.0,0.0,0.0,0.0,-1.882,-1.882,-1.882,-1.882,-1.882,-1.882,-1.882,-1.882,-1.882,-1.882,-1.882,-1.882,-1.882,-1.882,-1.882,-1.88,-1.8681,-1.8298,-1.6202,-1.1632,-0.8714,-0.499,-0.1941,-0.0683,0.0,0.0,0.0,0.0,0.0,0.0,0.0,0.0,0.0,0.0,0.0,0.0,0.0,0.0,0.0,0.0,0.0,0.0,0.0,0.0,0.0,0.0,0.0,0.0,0.0,0.0,0.0,0.0,0.0,0.0,0.0,0.0,0.0,0.0,0.0,0.0,0.0,0.0,0.0,0.0,0.0,0.0,0.0,0.0,0.0,0.0,0.0,0.0,0.0,0.0,0.0,0.0,0.0,0.0,0.0,0.0,0.0,0.0,0.0,0.0,0.0,0.0,0.0,0.0,0.0,0.0,0.0,0.0,0.0,0.0,0.0,0.0,0.0,0.0,0.0,0.0,0.0,0.0,0.0,0.0,0.0,0.0,0.0,0.0,0.0,0.0,0.0,0.0,0.0,0.0,0.0,-1.882,-1.882,-1.882,-1.882,-1.882,-1.882,-1.882,-1.882,-1.882,-1.882,-1.882,-1.882,-1.882,-1.882,-1.882,-1.882,-1.8626,-1.7987,-1.593,-1.2516,-0.9856,-0.6788,-0.3594,-0.1902,0.0,0.0,0.0,0.0,0.0,0.0,0.0,0.0,0.0,0.0,0.0,0.0,0.0,0.0,0.0,0.0,0.0,0.0,0.0,0.0,0.0,0.0,0.0,0.0,0.0,0.0,0.0,0.0,0.0,0.0,0.0,0.0,0.0,0.0,0.0,0.0,0.0,0.0,0.0,0.0,0.0,0.0,0.0,0.0,0.0,0.0,0.0,0.0,0.0,0.0,0.0,0.0,0.0,0.0,0.0,0.0,0.0,0.0,0.0,0.0,0.0,0.0,0.0,0.0,0.0,0.0,0.0,0.0,0.0,0.0,0.0,0.0,0.0,0.0,0.0,0.0,0.0,0.0,0.0,0.0,0.0,0.0,0.0,0.0,0.0,0.0,0.0,0.0,0.0,0.0,0.0,-1.882,-1.882,-1.882,-1.882,-1.882,-1.882,-1.882,-1.882,-1.882,-1.882,-1.882,-1.882,-1.882,-1.882,-1.882,-1.882,-1.8523,-1.7646,-1.5971,-1.4148,-1.1645,-0.8428,-0.5324,-0.3437,0.0,0.0,0.0,0.0,0.0,0.0,0.0,0.0,0.0,0.0,0.0,0.0,0.0,0.0,0.0,0.0,0.0,0.0,0.0,0.0,0.0,0.0,0.0,0.0,0.0,0.0,0.0,0.0,0.0,0.0,0.0,0.0,0.0,0.0,0.0,0.0,0.0,0.0,0.0,0.0,0.0,0.0,0.0,0.0,0.0,0.0,0.0,0.0,0.0,0.0,0.0,0.0,0.0,0.0,0.0,0.0,0.0,0.0,0.0,0.0,0.0,0.0,0.0,0.0,0.0,0.0,0.0,0.0,0.0,0.0,0.0,0.0,0.0,0.0,0.0,0.0,0.0,0.0,0.0,0.0,0.0,0.0,0.0,0.0,0.0,0.0,0.0,0.0,0.0,0.0,0.0,-1.882,-1.882,-1.882,-1.882,-1.882,-1.882,-1.882,-1.882,-1.882,-1.882,-1.882,-1.882,-1.882,-1.882,-1.882,-1.882,-1.8588,-1.7943,-1.7,-1.5476,-1.3085,-0.9978,-0.6692,-0.4518,-0.2393,0.0,0.0,0.0,0.0,0.0,0.0,0.0,0.0,0.0,0.0,0.0,0.0,0.0,0.0,0.0,0.0,0.0,0.0,0.0,0.0,0.0,0.0,0.0,0.0,0.0,0.0,0.0,0.0,0.0,0.0,0.0,0.0,0.0,0.0,0.0,0.0,0.0,0.0,0.0,0.0,0.0,0.0,0.0,0.0,0.0,0.0,0.0,0.0,0.0,0.0,0.0,0.0,0.0,0.0,0.0,0.0,0.0,0.0,0.0,0.0,0.0,0.0,0.0,0.0,0.0,0.0,0.0,0.0,0.0,0.0,0.0,0.0,0.0,0.0,0.0,0.0,0.0,0.0,0.0,0.0,0.0,0.0,0.0,0.0,0.0,0.0,0.0,0.0,0.0,0.0,-1.882,-1.882,-1.882,-1.882,-1.882,-1.882,-1.882,-1.882,-1.882,-1.882,-1.882,-1.882,-1.882,-1.882,-1.882,-1.882,-1.8704,-1.853,-1.7936,-1.6884,-1.4782,-1.1674,-0.8043,-0.576,-0.2937,0.0,0.0,0.0,0.0,0.0,0.0,0.0,0.0,0.0,0.0,0.0,0.0,0.0,0.0,0.0,0.0,0.0,0.0,0.0,0.0,0.0,0.0,0.0,0.0,0.0,0.0,0.0,0.0,0.0,0.0,0.0,0.0,0.0,0.0,0.0,0.0,0.0,0.0,0.0,0.0,0.0,0.0,0.0,0.0,0.0,0.0,0.0,0.0,0.0,0.0,0.0,0.0,0.0,0.0,0.0,0.0,0.0,0.0,0.0,0.0,0.0,0.0,0.0,0.0,0.0,0.0,0.0,0.0,0.0,0.0,0.0,0.0,0.0,0.0,0.0,0.0,0.0,0.0,0.0,0.0,0.0,0.0,0.0,0.0,0.0,0.0,0.0,0.0,0.0,0.0,-1.8773,-1.8721,-1.8807,-1.882,-1.882,-1.882,-1.882,-1.882,-1.882,-1.882,-1.882,-1.882,-1.882,-1.882,-1.882,-1.882,-1.882,-1.8762,-1.8704,-1.8117,-1.5959,-1.2959,-0.9562,-0.6694,0.0,0.0,0.0,0.0,0.0,0.0,0.0,0.0,0.0,0.0,0.0,0.0,0.0,0.0,0.0,0.0,0.0,0.0,0.0,0.0,0.0,0.0,0.0,0.0,0.0,0.0,0.0,0.0,0.0,0.0,0.0,0.0,0.0,0.0,0.0,0.0,0.0,0.0,0.0,0.0,0.0,0.0,0.0,0.0,0.0,0.0,0.0,0.0,0.0,0.0,0.0,0.0,0.0,0.0,0.0,0.0,0.0,0.0,0.0,0.0,0.0,0.0,0.0,0.0,0.0,0.0,0.0,0.0,0.0,0.0,0.0,0.0,0.0,0.0,0.0,0.0,0.0,0.0,0.0,0.0,0.0,0.0,0.0,0.0,0.0,0.0,0.0,0.0,0.0,0.0,0.0,-1.8559,-1.8572,-1.8766,-1.882,-1.882,-1.882,-1.882,-1.882,-1.882,-1.882,-1.882,-1.882,-1.882,-1.882,-1.882,-1.882,-1.882,-1.882,-1.882,-1.8407,-1.6128,-1.3018,-0.9441,-0.6814,-0.3588,0.0,0.0,0.0,0.0,0.0,0.0,0.0,0.0,0.0,0.0,0.0,0.0,0.0,0.0,0.0,0.0,0.0,0.0,0.0,0.0,0.0,0.0,0.0,0.0,0.0,0.0,0.0,0.0,0.0,0.0,0.0,0.0,0.0,0.0,0.0,0.0,0.0,0.0,0.0,0.0,0.0,0.0,0.0,0.0,0.0,0.0,0.0,0.0,0.0,0.0,0.0,0.0,0.0,0.0,0.0,0.0,0.0,0.0,0.0,0.0,0.0,0.0,0.0,0.0,0.0,0.0,0.0,0.0,0.0,0.0,0.0,0.0,0.0,0.0,0.0,0.0,0.0,0.0,0.0,0.0,0.0,0.0,0.0,0.0,0.0,0.0,0.0,0.0,0.0,0.0,-1.8382,-1.8481,-1.8606,-1.8681,-1.8813,-1.882,-1.882,-1.882,-1.882,-1.882,-1.882,-1.882,-1.882,-1.882,-1.882,-1.882,-1.882,-1.882,-1.882,-1.8291,-1.6128,-1.3018,-0.9558,-0.6694,-0.3588,0.0,0.0,0.0,0.0,0.0,0.0,0.0,0.0,0.0,0.0,0.0,0.0,0.0,0.0,0.0,0.0,0.0,0.0,0.0,0.0,0.0,0.0,0.0,0.0,0.0,0.0,0.0,0.0,0.0,0.0,0.0,0.0,0.0,0.0,0.0,0.0,0.0,0.0,0.0,0.0,0.0,0.0,0.0,0.0,0.0,0.0,0.0,0.0,0.0,0.0,0.0,0.0,0.0,0.0,0.0,0.0,0.0,0.0,0.0,0.0,0.0,0.0,0.0,0.0,0.0,0.0,0.0,0.0,0.0,0.0,0.0,0.0,0.0,0.0,0.0,0.0,0.0,0.0,0.0,0.0,0.0,0.0,0.0,0.0,0.0,0.0,0.0,0.0,0.0,0.0,-1.8186,-1.8423,-1.8447,-1.8599,-1.8708,-1.88,-1.882,-1.882,-1.882,-1.882,-1.882,-1.882,-1.882,-1.882,-1.882,-1.882,-1.882,-1.882,-1.882,-1.8001,-1.6244,-1.3314,-1.0205,-0.7283,-0.4177,-0.0471,0.0,0.0,0.0,0.0,0.0,0.0,0.0,0.0,0.0,0.0,0.0,0.0,0.0,0.0,0.0,0.0,0.0,0.0,0.0,0.0,0.0,0.0,0.0,0.0,0.0,0.0,0.0,0.0,0.0,0.0,0.0,0.0,0.0,0.0,0.0,0.0,0.0,0.0,0.0,0.0,0.0,0.0,0.0,0.0,0.0,0.0,0.0,0.0,0.0,0.0,0.0,0.0,0.0,0.0,0.0,0.0,0.0,0.0,0.0,0.0,0.0,0.0,0.0,0.0,0.0,0.0,0.0,0.0,0.0,0.0,0.0,0.0,0.0,0.0,0.0,0.0,0.0,0.0,0.0,0.0,0.0,0.0,0.0,0.0,0.0,0.0,0.0,0.0,0.0,-1.7975,-1.8145,-1.8409,-1.8531,-1.8559,-1.8701,-1.8813,-1.88,-1.8807,-1.8755,-1.882,-1.882,-1.882,-1.882,-1.882,-1.882,-1.882,-1.882,-1.882,-1.8175,-1.6715,-1.4194,-1.132,-0.8514,-0.5588,-0.2296,-0.1295,-0.0648,0.0,0.0,0.0,0.0,0.0,0.0,0.0,0.0,0.0,0.0,0.0,0.0,0.0,0.0,0.0,0.0,0.0,0.0,0.0,0.0,0.0,0.0,0.0,0.0,0.0,0.0,0.0,0.0,0.0,0.0,0.0,0.0,0.0,0.0,0.0,0.0,0.0,0.0,0.0,0.0,0.0,0.0,0.0,0.0,0.0,0.0,0.0,0.0,0.0,0.0,0.0,0.0,0.0,0.0,0.0,0.0,0.0,0.0,0.0,0.0,0.0,0.0,0.0,0.0,0.0,0.0,0.0,0.0,0.0,0.0,0.0,0.0,0.0,0.0,0.0,0.0,0.0,0.0,0.0,0.0,0.0,0.0,0.0,0.0,0.0,0.0,0.0,-1.7956,-1.8031,-1.8179,-1.8314,-1.8346,-1.8464,-1.8538,-1.8613,-1.862,-1.8681,-1.882,-1.882,-1.882,-1.882,-1.882,-1.882,-1.882,-1.882,-1.882,-1.8349,-1.7064,-1.519,-1.2784,-1.0209,-0.7283,-0.4174,-0.2648,-0.1237,0.0,0.0,0.0,0.0,0.0,0.0,0.0,0.0,0.0,0.0,0.0,0.0,0.0,0.0,0.0,0.0,0.0,0.0,0.0,0.0,0.0,0.0,0.0,0.0,0.0,0.0,0.0,0.0,0.0,0.0,0.0,0.0,0.0,0.0,0.0,0.0,0.0,0.0,0.0,0.0,0.0,0.0,0.0,0.0,0.0,0.0,0.0,0.0,0.0,0.0,0.0,0.0,0.0,0.0,0.0,0.0,0.0,0.0,0.0,0.0,0.0,0.0,0.0,0.0,0.0,0.0,0.0,0.0,0.0,0.0,0.0,0.0,0.0,0.0,0.0,0.0,0.0,0.0,0.0,0.0,0.0,0.0,0.0,0.0,0.0,0.0,0.0,-1.7915,-1.7929,-1.7982,-1.8111,-1.8247,-1.8301,-1.8396,-1.8461,-1.8481,-1.862,-1.882,-1.882,-1.882,-1.882,-1.882,-1.882,-1.882,-1.882,-1.882,-1.8356,-1.7594,-1.6186,-1.4364,-1.2083,-0.9334,-0.6284,-0.4526,-0.3119,-0.1472,-0.1178,0.0,0.0,0.0,0.0,0.0,0.0,0.0,0.0,0.0,0.0,0.0,0.0,0.0,0.0,0.0,0.0,0.0,0.0,0.0,0.0,0.0,0.0,0.0,0.0,0.0,0.0,0.0,0.0,0.0,0.0,0.0,0.0,0.0,0.0,0.0,0.0,0.0,0.0,0.0,0.0,0.0,0.0,0.0,0.0,0.0,0.0,0.0,0.0,0.0,0.0,0.0,0.0,0.0,0.0,0.0,0.0,0.0,0.0,0.0,0.0,0.0,0.0,0.0,0.0,0.0,0.0,0.0,0.0,0.0,0.0,0.0,0.0,0.0,0.0,0.0,0.0,0.0,0.0,0.0,0.0,0.0,0.0,0.0,0.0,0.0,-1.7915,-1.7915,-1.7929,-1.7962,-1.8104,-1.8253,-1.8382,-1.8484,-1.8467,-1.8606,-1.8793,-1.8807,-1.882,-1.882,-1.882,-1.882,-1.882,-1.882,-1.882,-1.8588,-1.8117,-1.7058,-1.5773,-1.3844,-1.1737,-0.8872,-0.7355,-0.5951,-0.3947,-0.4133,-0.4031,-0.3633,-0.3162,0.0,0.0,0.0,0.0,0.0,0.0,0.0,0.0,0.0,0.0,0.0,0.0,0.0,0.0,0.0,0.0,0.0,0.0,0.0,0.0,0.0,0.0,0.0,0.0,0.0,0.0,0.0,0.0,0.0,0.0,0.0,0.0,0.0,0.0,0.0,0.0,0.0,0.0,0.0,0.0,0.0,0.0,0.0,0.0,0.0,0.0,0.0,0.0,0.0,0.0,0.0,0.0,0.0,0.0,0.0,0.0,0.0,0.0,0.0,0.0,0.0,0.0,0.0,0.0,0.0,0.0,0.0,0.0,0.0,0.0,0.0,0.0,0.0,0.0,0.0,0.0,0.0,0.0,0.0,0.0,0.0,0.0,-1.7915,-1.7915,-1.7915,-1.7942,-1.8004,-1.7989,-1.8104,-1.826,-1.8437,-1.8565,-1.8626,-1.8708,-1.882,-1.882,-1.882,-1.882,-1.882,-1.882,-1.882,-1.8762,-1.8465,-1.8349,-1.7355,-1.6011,-1.4252,-1.2452,-1.0895,-0.9336,-0.7693,-0.7527,-0.7627,-0.7366,-0.5169,-0.2897,0.0,0.0,0.0,0.0,0.0,0.0,0.0,0.0,0.0,0.0,0.0,0.0,0.0,0.0,0.0,0.0,0.0,0.0,0.0,0.0,0.0,0.0,0.0,0.0,0.0,0.0,0.0,0.0,0.0,0.0,0.0,0.0,0.0,0.0,0.0,0.0,0.0,0.0,0.0,0.0,0.0,0.0,0.0,0.0,0.0,0.0,0.0,0.0,0.0,0.0,0.0,0.0,0.0,0.0,0.0,0.0,0.0,0.0,0.0,0.0,0.0,0.0,0.0,0.0,0.0,0.0,0.0,0.0,0.0,0.0,0.0,0.0,0.0,0.0,0.0,0.0,0.0,0.0,0.0,0.0,0.0,-1.7915,-1.7915,-1.7915,-1.7915,-1.7915,-1.7915,-1.7948,-1.8131,-1.8396,-1.8474,-1.8565,-1.8694,-1.882,-1.882,-1.882,-1.882,-1.882,-1.882,-1.882,-1.882,-1.882,-1.8704,-1.8356,-1.771,-1.6064,-1.4851,-1.3724,-1.2356,-1.0848,-1.0875,-1.0487,-0.9398,-0.7439,-0.5152,-0.3031,0.0,0.0,0.0,0.0,0.0,0.0,0.0,0.0,0.0,0.0,0.0,0.0,0.0,0.0,0.0,0.0,0.0,0.0,0.0,0.0,0.0,0.0,0.0,0.0,0.0,0.0,0.0,0.0,0.0,0.0,0.0,0.0,0.0,0.0,0.0,0.0,0.0,0.0,0.0,0.0,0.0,0.0,0.0,0.0,0.0,0.0,0.0,0.0,0.0,0.0,0.0,0.0,0.0,0.0,0.0,0.0,0.0,0.0,0.0,0.0,0.0,0.0,0.0,0.0,0.0,0.0,0.0,0.0,0.0,0.0,0.0,0.0,0.0,0.0,0.0,0.0,0.0,0.0,0.0,0.0,-1.7915,-1.7915,-1.7915,-1.7915,-1.7915,-1.7915,-1.7941,-1.8097,-1.8375,-1.844,-1.8454,-1.8647,-1.8752,-1.8779,-1.8793,-1.8793,-1.8807,-1.8807,-1.882,-1.882,-1.882,-1.882,-1.8639,-1.8117,-1.7239,-1.6302,-1.5526,-1.4959,-1.3695,-1.3793,-1.3091,-1.1678,-1.0115,-0.7931,-0.5594,0.0,0.0,0.0,0.0,0.0,0.0,0.0,0.0,0.0,0.0,0.0,0.0,0.0,0.0,0.0,0.0,0.0,0.0,0.0,0.0,0.0,0.0,0.0,0.0,0.0,0.0,0.0,0.0,0.0,0.0,0.0,0.0,0.0,0.0,0.0,0.0,0.0,0.0,0.0,0.0,0.0,0.0,0.0,0.0,0.0,0.0,0.0,0.0,0.0,0.0,0.0,0.0,0.0,0.0,0.0,0.0,0.0,0.0,0.0,0.0,0.0,0.0,0.0,0.0,0.0,0.0,0.0,0.0,0.0,0.0,0.0,0.0,0.0,0.0,0.0,0.0,0.0,0.0,0.0,0.0,-1.7915,-1.7915,-1.7915,-1.7915,-1.7915,-1.7915,-1.7949,-1.801,-1.8138,-1.8219,-1.8226,-1.8382,-1.8477,-1.845,-1.8545,-1.8593,-1.864,-1.8701,-1.8807,-1.882,-1.882,-1.882,-1.8704,-1.8523,-1.8233,-1.8033,-1.7677,-1.7324,-1.7315,-1.7148,-1.6503,-1.5509,-1.3103,-1.1135,-0.8487,-0.5308,-0.3004,-0.1108,-0.0555,0.0,0.0,0.0,0.0,0.0,0.0,0.0,0.0,0.0,0.0,0.0,0.0,0.0,0.0,0.0,0.0,0.0,0.0,0.0,0.0,0.0,0.0,0.0,0.0,0.0,0.0,0.0,0.0,0.0,0.0,0.0,0.0,0.0,0.0,0.0,0.0,0.0,0.0,0.0,0.0,0.0,0.0,0.0,0.0,0.0,0.0,0.0,0.0,0.0,0.0,0.0,0.0,0.0,0.0,0.0,0.0,0.0,0.0,0.0,0.0,0.0,0.0,0.0,0.0,0.0,0.0,0.0,0.0,0.0,0.0,0.0,0.0,0.0,0.0,0.0,0.0,-1.7915,-1.7915,-1.7915,-1.7915,-1.7915,-1.7915,-1.7915,-1.7949,-1.8023,-1.8091,-1.8111,-1.826,-1.8321,-1.8355,-1.847,-1.8545,-1.8552,-1.8694,-1.882,-1.882,-1.882,-1.882,-1.882,-1.882,-1.8704,-1.8861,-1.8909,-1.8547,-1.8959,-1.8927,-1.8327,-1.7216,-1.558,-1.3729,-1.1132,-0.806,-0.5421,-0.3239,0.0,0.0,0.0,0.0,0.0,0.0,0.0,0.0,0.0,0.0,0.0,0.0,0.0,0.0,0.0,0.0,0.0,0.0,0.0,0.0,0.0,0.0,0.0,0.0,0.0,0.0,0.0,0.0,0.0,0.0,0.0,0.0,0.0,0.0,0.0,0.0,0.0,0.0,0.0,0.0,0.0,0.0,0.0,0.0,0.0,0.0,0.0,0.0,0.0,0.0,0.0,0.0,0.0,0.0,0.0,0.0,0.0,0.0,0.0,0.0,0.0,0.0,0.0,0.0,0.0,0.0,0.0,0.0,0.0,0.0,0.0,0.0,0.0,0.0,0.0,0.0,0.0,-1.7915,-1.7915,-1.7915,-1.7915,-1.7915,-1.7915,-1.7915,-1.7936,-1.8002,-1.807,-1.8091,-1.8213,-1.8247,-1.8247,-1.8389,-1.8427,-1.8545,-1.866,-1.882,-1.882,-1.882,-1.882,-1.882,-1.882,-1.882,-1.882,-1.8841,-1.8909,-1.8932,-1.888,-1.8585,-1.7833,-1.6877,-1.5377,-1.3481,-1.0828,-0.8577,-0.6954,-0.4062,0.0,0.0,0.0,-0.0121,0.0,0.0,0.0,0.0,0.0,0.0,0.0,0.0,0.0,0.0,0.0,0.0,0.0,0.0,0.0,0.0,0.0,0.0,0.0,0.0,0.0,0.0,0.0,0.0,0.0,0.0,0.0,0.0,0.0,0.0,0.0,0.0,0.0,0.0,0.0,0.0,0.0,0.0,0.0,0.0,0.0,0.0,0.0,0.0,0.0,0.0,0.0,0.0,0.0,0.0,0.0,0.0,0.0,0.0,0.0,0.0,0.0,0.0,0.0,0.0,0.0,0.0,0.0,0.0,0.0,0.0,0.0,0.0,0.0,0.0,0.0,0.0,-1.7915,-1.7915,-1.7915,-1.7915,-1.7915,-1.7915,-1.7915,-1.7922,-1.7956,-1.7928,-1.7983,-1.7962,-1.7989,-1.8092,-1.828,-1.8389,-1.8437,-1.8647,-1.88,-1.882,-1.882,-1.882,-1.882,-1.882,-1.882,-1.882,-1.8827,-1.8841,-1.8888,-1.8823,-1.8816,-1.8537,-1.7949,-1.7046,-1.5767,-1.3318,-1.1784,-1.042,-0.8149,-0.4928,-0.2953,-0.1811,-0.1268,-0.0788,0.0,0.0,0.0,0.0,0.0,0.0,0.0,0.0,0.0,0.0,0.0,0.0,0.0,0.0,0.0,0.0,0.0,0.0,0.0,0.0,0.0,0.0,0.0,0.0,0.0,0.0,0.0,0.0,0.0,0.0,0.0,0.0,0.0,0.0,0.0,0.0,0.0,0.0,0.0,0.0,0.0,0.0,0.0,0.0,0.0,0.0,0.0,0.0,0.0,0.0,0.0,0.0,0.0,0.0,0.0,0.0,0.0,0.0,0.0,0.0,0.0,0.0,0.0,0.0,0.0,0.0,0.0,0.0,0.0,0.0,0.0,-1.7915,-1.7915,-1.7915,-1.7915,-1.7915,-1.7915,-1.7915,-1.7915,-1.7915,-1.7915,-1.7915,-1.7915,-1.7915,-1.7963,-1.8179,-1.8308,-1.8369,-1.8633,-1.8786,-1.882,-1.8807,-1.882,-1.882,-1.8813,-1.882,-1.882,-1.882,-1.882,-1.882,-1.882,-1.8827,-1.882,-1.8711,-1.8273,-1.7188,-1.5739,-1.453,-1.3424,-1.1865,-0.9512,-0.6146,-0.459,-0.2809,-0.1919,0.0,0.0,0.0,0.0,0.0,0.0,0.0,0.0,0.0,0.0,0.0,0.0,0.0,0.0,0.0,0.0,0.0,0.0,0.0,0.0,0.0,0.0,0.0,0.0,0.0,0.0,0.0,0.0,0.0,0.0,0.0,0.0,0.0,0.0,0.0,0.0,0.0,0.0,0.0,0.0,0.0,0.0,0.0,0.0,0.0,0.0,0.0,0.0,0.0,0.0,0.0,0.0,0.0,0.0,0.0,0.0,0.0,0.0,0.0,0.0,0.0,0.0,0.0,0.0,0.0,0.0,0.0,0.0,0.0,0.0,0.0,-1.7915,-1.7915,-1.7915,-1.7915,-1.7915,-1.7915,-1.7915,-1.7915,-1.7915,-1.7915,-1.7915,-1.7915,-1.7915,-1.8017,-1.8138,-1.8233,-1.8355,-1.8525,-1.8647,-1.8681,-1.8701,-1.8687,-1.8708,-1.8749,-1.8813,-1.882,-1.882,-1.882,-1.882,-1.882,-1.882,-1.882,-1.8704,-1.8472,-1.7742,-1.7028,-1.608,-1.5577,-1.45,-1.3396,-1.0657,-0.7632,-0.5081,-0.3086,-0.143,-0.0359,0.0,0.0,0.0,0.0,0.0,0.0,0.0,0.0,0.0,0.0,0.0,0.0,0.0,0.0,0.0,0.0,0.0,0.0,0.0,0.0,0.0,0.0,0.0,0.0,0.0,0.0,0.0,0.0,0.0,0.0,0.0,0.0,0.0,0.0,0.0,0.0,0.0,0.0,0.0,0.0,0.0,0.0,0.0,0.0,0.0,0.0,0.0,0.0,0.0,0.0,0.0,0.0,0.0,0.0,0.0,0.0,0.0,0.0,0.0,0.0,0.0,0.0,0.0,0.0,0.0,0.0,0.0,0.0,0.0,-1.7915,-1.7915,-1.7915,-1.7915,-1.7915,-1.7915,-1.7915,-1.7915,-1.7915,-1.7915,-1.7915,-1.7915,-1.7922,-1.7929,-1.8043,-1.8145,-1.8206,-1.8375,-1.8403,-1.8409,-1.8559,-1.8586,-1.8626,-1.8721,-1.8807,-1.882,-1.882,-1.882,-1.882,-1.882,-1.882,-1.882,-1.882,-1.8704,-1.8646,-1.8098,-1.7813,-1.7438,-1.7322,-1.6454,-1.44,-1.1094,-0.7289,-0.4961,-0.2791,-0.1615,0.0,0.0,0.0,0.0,0.0,0.0,0.0,0.0,0.0,0.0,0.0,0.0,0.0,0.0,0.0,0.0,0.0,0.0,0.0,0.0,0.0,0.0,0.0,0.0,0.0,0.0,0.0,0.0,0.0,0.0,0.0,0.0,0.0,0.0,0.0,0.0,0.0,0.0,0.0,0.0,0.0,0.0,0.0,0.0,0.0,0.0,0.0,0.0,0.0,0.0,0.0,0.0,0.0,0.0,0.0,0.0,0.0,0.0,0.0,0.0,0.0,0.0,0.0,0.0,0.0,0.0,0.0,0.0,0.0]},{"header":{"parameterUnit":"m.s-1","parameterCategory":1,"la1":31.0,"la2":29.5877,"lo1":-88.7671,"lo2":-86.6584,"dy":0.0162,"dx":0.0185,"nx":115,"ny":88,"refTime":"2026-04-04T12:00:00:Z","depth":0,"parameterNumber":3,"parameterNumberName":"V-component_of_WINDS"},"data":[0.0,0.0,0.0,0.0,0.0,0.0,0.0,0.0,0.0,0.0,0.0,0.0,0.0,0.0,0.0,0.0,0.0,0.0,0.0,0.0,0.0,0.0,0.0,0.0,0.0,0.0,0.0,0.0,0.0,0.0,0.0,0.0,0.0,0.0,0.0,0.0,0.0,0.0,0.0,0.0,0.0,0.0,0.0,0.0,0.0,0.0,0.0,0.0,0.0,0.0,0.0,0.0,0.0,0.0,0.0,0.0,0.0,0.0,0.0,0.0,0.0,0.0,0.0,0.0,0.0,0.0,0.0,0.0,0.0,0.0,0.0,0.0,0.0,0.0,0.0,0.0,0.0,0.0,0.0,0.0,0.0,0.0,0.0,0.0,0.0,0.0,0.0,0.0,0.0,0.0,0.0,0.0,0.0,0.0,0.0,0.0,0.0,0.0,0.0,0.0,0.0,0.0,0.0,0.0,0.0,0.0,0.0,0.0,0.0,0.0,0.0,0.0,0.0,0.0,0.0,0.0,0.0,0.0,0.0,0.0,0.0,0.0,0.0,0.0,0.0,0.0,0.0,0.0,0.0,0.0,0.0,0.0,0.0,0.0,0.0,0.0,0.0,0.0,0.0,0.0,0.0,0.0,0.0,0.0,0.0,0.0,0.0,0.0,0.0,0.0,0.0,0.0,0.0,0.0,0.0,0.0,0.0,0.0,0.0,0.0,0.0,0.0,0.0,0.0,0.0,0.0,0.0,0.0,0.0,0.0,0.0,0.0,0.0,0.0,0.0,0.0,0.0,0.0,0.0,0.0,0.0,0.0,0.0,0.0,0.0,0.0,0.0,0.0,0.0,0.0,0.0,0.0,0.0,0.0,0.0,0.0,0.0,0.0,0.0,0.0,0.0,0.0,0.0,0.0,0.0,0.0,0.0,0.0,0.0,0.0,0.0,0.0,0.0,0.0,0.0,0.0,0.0,0.0,0.0,0.0,0.0,0.0,0.0,0.0,0.0,0.0,0.0,0.0,0.0,0.0,0.0,0.0,0.0,0.0,0.0,0.0,0.0,0.0,0.0,0.0,0.0,0.0,0.0,0.0,0.0,0.0,0.0,0.0,0.0,0.0,0.0,0.0,0.0,0.0,0.0,0.0,0.0,0.0,0.0,0.0,0.0,0.0,0.0,0.0,0.0,0.0,0.0,0.0,0.0,0.0,0.0,0.0,0.0,0.0,0.0,0.0,0.0,0.0,0.0,0.0,0.0,0.0,0.0,0.0,0.0,0.0,0.0,0.0,0.0,0.0,0.0,0.0,0.0,0.0,0.0,0.0,0.0,0.0,0.0,0.0,0.0,0.0,0.0,0.0,0.0,0.0,0.0,0.0,0.0,0.0,0.0,0.0,0.0,0.0,0.0,0.0,0.0,0.0,0.0,0.0,0.0,0.0,0.0,0.0,0.0,0.0,0.0,0.0,0.0,0.0,0.0,0.0,0.0,0.0,0.0,0.0,0.0,0.0,0.0,0.0,0.0,0.0,0.0,0.0,0.0,0.0,0.0,0.0,0.0,0.0,0.0,0.0,0.0,0.0,0.0,0.0,0.0,0.0,0.0,0.0,0.0,0.0,0.0,0.0,0.0,0.0,0.0,0.0,0.0,0.0,0.0,0.0,0.0,0.0,0.0,0.0,0.0,0.0,0.0,0.0,0.0,0.0,0.0,0.0,0.0,0.0,0.0,0.0,0.0,0.0,0.0,0.0,0.0,0.0,0.0,0.0,0.0,0.0,0.0,0.0,0.0,0.0,0.0,0.0,0.0,0.0,0.0,0.0,0.0,0.0,0.0,0.0,0.0,0.0,0.0,0.0,0.0,0.0,0.0,0.0,0.0,0.0,0.0,0.0,0.0,0.0,0.0,0.0,0.0,0.0,0.0,0.0,0.0,0.0,0.0,0.0,0.0,0.0,0.0,0.0,0.0,0.0,0.0,0.0,0.0,0.0,0.0,0.0,0.0,0.0,0.0,0.0,0.0,0.0,0.0,0.0,0.0,0.0,0.0,0.0,0.0,0.0,0.0,0.0,0.0,0.0,0.0,0.0,0.0,0.0,0.0,0.0,0.0,0.0,0.0,0.0,0.0,0.0,0.0,0.0,0.0,0.0,0.0,0.0,0.0,0.0,0.0,0.0,0.0,0.0,0.0,0.0,0.0,0.0,0.0,0.0,0.0,0.0,0.0,0.0,0.0,0.0,0.0,0.0,0.0,0.0,0.0,0.0,0.0,0.0,0.0,0.0,0.0,0.0,0.0,0.0,0.0,0.0,0.0,0.0,0.0,0.0,0.0,0.0,0.0,0.0,0.0,0.0,0.0,0.0,0.0,0.0,0.0,0.0,0.0,0.0,0.0,0.0,0.0,0.0,0.0,0.0,0.0,0.0,0.0,0.0,0.0,0.0,0.0,0.0,0.0,0.0,0.0,0.0,0.0,0.0,0.0,0.0,0.0,0.0,0.0,0.0,0.0,0.0,0.0,0.0,0.0,0.0,0.0,0.0,0.0,0.0,0.0,0.0,0.0,0.0,0.0,0.0,0.0,0.0,0.0,0.0,0.0,0.0,0.0,0.0,0.0,0.0,0.0,0.0,0.0,0.0,0.0,0.0,0.0,0.0,0.0,0.0,0.0,0.0,0.0,0.0,0.0,0.0,0.0,0.0,0.0,0.0,0.0,0.0,0.0,0.0,0.0,0.0,0.0,0.0,0.0,0.0,0.0,0.0,0.0,0.0,0.0,0.0,0.0,0.0,0.0,0.0,0.0,0.0,0.0,0.0,0.0,0.0,0.0,0.0,0.0,0.0,0.0,0.0,0.0,0.0,0.0,0.0,0.0,0.0,0.0,0.0,0.0,0.0,0.0,0.0,0.0,0.0,0.0,0.0,0.0,0.0,0.0,0.0,0.0,0.0,0.0,0.0,0.0,0.0,0.0,0.0,0.0,0.0,0.0,0.0,0.0,0.0,0.0,0.0,0.0,0.0,0.0,0.0,0.0,0.0,0.0,0.0,0.0,0.0,0.0,0.0,0.0,0.0,0.0,0.0,0.0,0.0,0.0,0.0,0.0,0.0,0.0,0.0,0.0,0.0,0.0,0.0,0.0,0.0,0.0,0.0,0.0,0.0,0.0,0.0,0.0,0.0,0.0,0.0,0.0,0.0,0.0,0.0,0.0,0.0,0.0,0.0,0.0,0.0,0.0,0.0,0.0,0.0,0.0,0.0,0.0,0.0,0.0,0.0,0.0,0.0,0.0,0.0,0.0,0.0,0.0,0.0,0.0,0.0,0.0,0.0,0.0,0.0,0.0,0.0,0.0,0.0,0.0,0.0,0.0,0.0,0.0,0.0,0.0,0.0,0.0,0.0,0.0,0.0,0.0,0.0,0.0,0.0,0.0,0.0,0.0,0.0,0.0,0.0,0.0,0.0,0.0,0.0,0.0,0.0,0.0,0.0,0.0,0.0,0.0,0.0,0.0,0.0,0.0,0.0,0.0,0.0,0.0,0.0,0.0,0.0,0.0,0.0,0.0,0.0,0.0,0.0,0.0,0.0,0.0,0.0,0.0,0.0,0.0,0.0,0.0,0.0,0.0,0.0,0.0,0.0,0.0,0.0,0.0,0.0,0.0,0.0,0.0,0.0,0.0,0.0,0.0,0.0,0.0,0.0,0.0,0.0,0.0,0.0,0.0,0.0,0.0,0.0,0.0,0.0,0.0,0.0,0.0,0.0,0.0,0.0,0.0,0.0,0.0,0.0,0.0,0.0,0.0,0.0,0.0,0.0,0.0,0.0,0.0,0.0,0.0,0.0,0.0,0.0,0.0,0.0,0.0,0.0,0.0,0.0,0.0,0.0,0.0,0.0,0.0,0.0,0.0,0.0,0.0,0.0,0.0,0.0,0.0,0.0,0.0,0.0,0.0,0.0,0.0,0.0,0.0,0.0,0.0,0.0,0.0,0.0,0.0,0.0,0.0,0.0,0.0,0.0,0.0,0.0,0.0,0.0,0.0,0.0,0.0,0.0,0.0,0.0,0.0,0.0,0.0,0.0,0.0,0.0,0.0,0.0,0.0,0.0,0.0,0.0,0.0,0.0,0.0,0.0,0.0,0.0,0.0,0.0,0.0,0.0,0.0,0.0,0.0,0.0,0.0,0.0,0.0,0.0,0.0,0.0,0.0,0.0,0.0,0.0,0.0,0.0,0.0,0.0,0.0,0.0,0.0,0.0,0.0,0.0,0.0,0.0,0.0,0.0,0.0,0.0,2.5308,0.0,0.0,0.0,0.0,0.0,0.0,0.0,0.0,0.0,0.0,0.0,0.0,0.0,0.0,0.0,0.0,0.0,0.0,0.0,0.0,0.0,0.0,0.0,0.0,0.0,0.0,0.0,0.0,0.0,0.0,0.0,0.0,0.0,0.0,0.0,0.0,0.0,0.0,0.0,0.0,0.0,0.0,0.0,0.0,0.0,0.0,0.0,0.0,0.0,0.0,0.0,0.0,0.0,0.0,0.0,0.0,0.0,0.0,0.0,0.0,0.0,0.0,0.0,0.0,0.0,0.0,0.0,0.0,0.0,0.0,0.0,0.0,0.0,0.0,0.0,0.0,0.0,0.0,0.0,0.0,0.0,0.0,0.0,0.0,0.0,0.0,0.0,0.0,0.0,0.0,0.0,0.0,0.0,0.0,0.0,0.0,0.0,0.0,0.0,0.0,0.0,0.0,0.0,0.0,0.0,0.0,0.0,0.0,0.0,0.0,2.5308,2.5308,2.5308,2.5308,2.5308,0.0,0.0,0.0,0.0,0.0,0.0,0.0,0.0,0.0,0.0,0.0,0.0,0.0,0.0,0.0,0.0,0.0,0.0,0.0,0.0,0.0,0.0,0.0,0.0,0.0,0.0,0.0,0.0,0.0,0.0,0.0,0.0,0.0,0.0,0.0,0.0,0.0,0.0,0.0,0.0,0.0,0.0,0.0,0.0,0.0,0.0,0.0,0.0,0.0,0.0,0.0,0.0,0.0,0.0,0.0,0.0,0.0,0.0,0.0,0.0,0.0,0.0,0.0,0.0,0.0,0.0,0.0,0.0,0.0,0.0,0.0,0.0,0.0,0.0,0.0,0.0,0.0,0.0,0.0,0.0,0.0,0.0,0.0,0.0,0.0,0.0,0.0,0.0,0.0,0.0,0.0,0.0,0.0,0.0,0.0,0.0,0.0,0.0,0.0,0.0,0.0,0.0,0.0,0.0,0.0,0.0,0.0,0.0,0.0,0.0,0.0,0.0,2.5421,2.5308,2.5308,0.0,0.0,0.0,0.0,0.0,0.0,0.0,0.0,0.0,0.0,0.0,0.0,0.0,0.0,0.0,0.0,0.0,0.0,0.0,0.0,0.0,0.0,0.0,0.0,0.0,0.0,0.0,0.0,0.0,0.0,0.0,0.0,0.0,0.0,0.0,0.0,0.0,0.0,0.0,0.0,0.0,0.0,0.0,0.0,0.0,0.0,0.0,0.0,0.0,0.0,0.0,0.0,0.0,0.0,0.0,0.0,0.0,0.0,0.0,0.0,0.0,0.0,0.0,0.0,0.0,0.0,0.0,0.0,0.0,0.0,0.0,0.0,0.0,0.0,0.0,0.0,0.0,0.0,0.0,0.0,0.0,0.0,0.0,0.0,0.0,0.0,0.0,0.0,0.0,0.0,0.0,0.0,0.0,0.0,0.0,0.0,0.0,0.0,0.0,0.0,0.0,0.0,0.0,0.0,0.0,0.0,0.0,0.0,0.0,0.0,2.5692,2.6464,2.5731,0.0,2.5308,0.0,0.0,0.0,0.0,0.0,0.0,0.0,0.0,0.0,0.0,0.0,0.0,0.0,0.0,0.0,0.0,0.0,0.0,0.0,0.0,0.0,0.0,0.0,0.0,0.0,0.0,0.0,0.0,0.0,0.0,0.0,0.0,0.0,0.0,0.0,0.0,0.0,0.0,0.0,0.0,0.0,0.0,0.0,0.0,0.0,0.0,0.0,0.0,0.0,0.0,0.0,0.0,0.0,0.0,0.0,0.0,0.0,0.0,0.0,0.0,0.0,0.0,0.0,0.0,0.0,0.0,0.0,0.0,0.0,0.0,0.0,0.0,0.0,0.0,0.0,0.0,0.0,0.0,0.0,0.0,0.0,0.0,0.0,0.0,0.0,0.0,0.0,0.0,0.0,0.0,0.0,0.0,0.0,0.0,0.0,0.0,0.0,0.0,0.0,0.0,0.0,0.0,0.0,0.0,0.0,0.0,0.0,0.0,0.0,0.0,0.0,2.7354,2.7044,2.6582,0.0,0.0,0.0,0.0,0.0,0.0,0.0,0.0,0.0,0.0,0.0,0.0,0.0,0.0,0.0,0.0,0.0,0.0,0.0,0.0,0.0,0.0,0.0,0.0,0.0,0.0,0.0,0.0,0.0,0.0,0.0,0.0,0.0,0.0,0.0,0.0,0.0,0.0,0.0,0.0,0.0,0.0,0.0,0.0,0.0,0.0,0.0,0.0,0.0,0.0,0.0,0.0,0.0,0.0,0.0,0.0,0.0,0.0,0.0,0.0,0.0,0.0,0.0,0.0,0.0,0.0,0.0,0.0,0.0,0.0,0.0,0.0,0.0,0.0,0.0,0.0,0.0,0.0,0.0,0.0,0.0,0.0,0.0,0.0,0.0,0.0,0.0,0.0,0.0,0.0,0.0,0.0,0.0,0.0,0.0,0.0,0.0,0.0,0.0,0.0,0.0,0.0,0.0,0.0,0.0,0.0,0.0,0.0,0.0,0.0,2.5926,0.0,2.7159,2.7662,2.7393,2.6272,0.0,0.0,0.0,0.0,0.0,0.0,0.0,0.0,0.0,0.0,0.0,0.0,0.0,0.0,0.0,0.0,0.0,0.0,0.0,0.0,0.0,0.0,0.0,0.0,0.0,0.0,0.0,0.0,0.0,0.0,0.0,0.0,0.0,0.0,0.0,0.0,0.0,0.0,0.0,0.0,0.0,0.0,0.0,0.0,0.0,0.0,0.0,0.0,0.0,0.0,0.0,0.0,0.0,0.0,0.0,0.0,0.0,0.0,0.0,0.0,0.0,0.0,0.0,0.0,0.0,0.0,0.0,0.0,0.0,0.0,0.0,0.0,0.0,0.0,0.0,0.0,0.0,0.0,0.0,0.0,0.0,0.0,0.0,0.0,0.0,0.0,0.0,0.0,0.0,0.0,0.0,0.0,0.0,0.0,0.0,0.0,0.0,0.0,0.0,0.0,0.0,0.0,0.0,0.0,0.0,0.0,0.0,0.0,0.0,2.5344,2.5421,2.5536,2.7046,2.7123,0.0,0.0,0.0,0.0,0.0,0.0,0.0,0.0,0.0,0.0,0.0,0.0,0.0,0.0,0.0,0.0,0.0,0.0,0.0,0.0,0.0,0.0,0.0,0.0,0.0,0.0,0.0,0.0,0.0,0.0,0.0,0.0,0.0,0.0,0.0,0.0,0.0,0.0,0.0,0.0,0.0,0.0,0.0,0.0,0.0,0.0,0.0,0.0,0.0,0.0,0.0,0.0,0.0,0.0,0.0,0.0,0.0,0.0,0.0,0.0,0.0,0.0,0.0,0.0,0.0,0.0,0.0,0.0,0.0,0.0,0.0,0.0,0.0,0.0,0.0,0.0,0.0,0.0,0.0,0.0,0.0,0.0,0.0,0.0,0.0,0.0,0.0,0.0,0.0,0.0,0.0,0.0,0.0,0.0,0.0,0.0,0.0,0.0,0.0,0.0,0.0,0.0,0.0,0.0,0.0,0.0,0.0,0.0,0.0,2.5346,2.6387,2.6967,2.6967,2.7585,2.7354,0.0,0.0,0.0,0.0,0.0,0.0,0.0,0.0,0.0,0.0,0.0,0.0,0.0,0.0,0.0,0.0,0.0,0.0,0.0,0.0,0.0,0.0,0.0,0.0,0.0,0.0,0.0,0.0,0.0,0.0,0.0,0.0,0.0,0.0,0.0,0.0,0.0,0.0,0.0,0.0,0.0,0.0,0.0,0.0,0.0,0.0,0.0,0.0,0.0,0.0,0.0,0.0,0.0,0.0,0.0,0.0,0.0,0.0,0.0,0.0,0.0,0.0,0.0,0.0,0.0,0.0,0.0,0.0,0.0,0.0,0.0,0.0,0.0,0.0,0.0,0.0,0.0,0.0,0.0,0.0,0.0,0.0,0.0,0.0,0.0,0.0,0.0,0.0,0.0,0.0,0.0,0.0,0.0,0.0,0.0,0.0,0.0,0.0,0.0,0.0,0.0,0.0,0.0,0.0,0.0,0.0,0.0,0.0,0.0,2.5769,0.0,2.8044,0.0,2.7777,2.7354,0.0,0.0,0.0,0.0,0.0,0.0,0.0,0.0,0.0,0.0,0.0,0.0,0.0,0.0,0.0,0.0,0.0,0.0,0.0,0.0,0.0,0.0,0.0,0.0,0.0,0.0,0.0,0.0,0.0,0.0,0.0,0.0,0.0,0.0,0.0,0.0,0.0,0.0,0.0,0.0,0.0,0.0,0.0,0.0,0.0,0.0,0.0,0.0,0.0,0.0,0.0,0.0,0.0,0.0,0.0,0.0,0.0,0.0,0.0,0.0,0.0,0.0,0.0,0.0,0.0,0.0,0.0,0.0,0.0,0.0,0.0,0.0,0.0,0.0,0.0,0.0,0.0,0.0,0.0,0.0,0.0,0.0,0.0,0.0,0.0,0.0,0.0,0.0,0.0,0.0,0.0,0.0,0.0,0.0,0.0,0.0,0.0,0.0,0.0,0.0,0.0,0.0,0.0,0.0,0.0,0.0,0.0,0.0,2.5846,2.6656,2.8239,2.8354,2.6736,2.7467,2.7082,0.0,0.0,0.0,0.0,0.0,0.0,0.0,0.0,0.0,0.0,0.0,0.0,0.0,0.0,0.0,0.0,0.0,0.0,0.0,0.0,0.0,0.0,0.0,0.0,0.0,0.0,0.0,0.0,0.0,0.0,0.0,0.0,0.0,0.0,0.0,0.0,0.0,0.0,0.0,0.0,0.0,0.0,0.0,0.0,0.0,0.0,0.0,0.0,0.0,0.0,0.0,0.0,0.0,0.0,0.0,0.0,0.0,0.0,0.0,0.0,0.0,0.0,0.0,0.0,0.0,0.0,0.0,0.0,0.0,0.0,0.0,0.0,0.0,0.0,0.0,0.0,0.0,0.0,0.0,0.0,0.0,0.0,0.0,0.0,0.0,0.0,0.0,0.0,0.0,0.0,0.0,0.0,0.0,0.0,0.0,0.0,0.0,0.0,0.0,0.0,0.0,0.0,0.0,0.0,0.0,0.0,0.0,0.0,0.0,2.8393,2.9429,2.9464,2.8393,2.8047,2.739,0.0,0.0,0.0,0.0,0.0,0.0,0.0,0.0,0.0,0.0,0.0,0.0,0.0,0.0,0.0,0.0,0.0,0.0,0.0,0.0,0.0,0.0,0.0,0.0,0.0,0.0,0.0,0.0,0.0,0.0,0.0,0.0,0.0,0.0,0.0,0.0,0.0,0.0,0.0,0.0,0.0,0.0,0.0,0.0,0.0,0.0,0.0,0.0,0.0,0.0,0.0,0.0,0.0,0.0,0.0,0.0,0.0,0.0,0.0,0.0,0.0,0.0,0.0,0.0,0.0,0.0,0.0,0.0,0.0,0.0,0.0,0.0,0.0,0.0,0.0,0.0,0.0,0.0,0.0,0.0,0.0,0.0,0.0,0.0,0.0,0.0,0.0,0.0,0.0,0.0,0.0,0.0,0.0,0.0,0.0,0.0,0.0,0.0,0.0,0.0,0.0,0.0,0.0,0.0,0.0,0.0,0.0,0.0,0.0,3.4279,3.393,3.3003,3.1506,3.0701,2.9547,2.8077,0.0,0.0,0.0,0.0,0.0,0.0,0.0,0.0,0.0,0.0,0.0,0.0,0.0,0.0,0.0,0.0,0.0,0.0,0.0,0.0,0.0,0.0,0.0,0.0,0.0,0.0,0.0,0.0,0.0,0.0,0.0,0.0,0.0,0.0,0.0,0.0,0.0,0.0,0.0,0.0,0.0,0.0,0.0,0.0,0.0,0.0,0.0,0.0,0.0,0.0,0.0,0.0,0.0,0.0,0.0,0.0,0.0,0.0,0.0,0.0,0.0,0.0,0.0,0.0,0.0,0.0,0.0,0.0,0.0,0.0,0.0,0.0,0.0,0.0,0.0,0.0,0.0,0.0,0.0,0.0,0.0,0.0,0.0,0.0,0.0,0.0,0.0,0.0,0.0,0.0,0.0,0.0,0.0,0.0,0.0,0.0,0.0,0.0,0.0,0.0,0.0,0.0,0.0,0.0,0.0,0.0,0.0,0.0,4.3235,4.1281,3.8896,3.608,3.5087,3.3356,0.0,0.0,0.0,0.0,0.0,0.0,0.0,0.0,0.0,0.0,0.0,0.0,0.0,0.0,0.0,0.0,0.0,0.0,0.0,0.0,0.0,0.0,0.0,0.0,0.0,0.0,0.0,0.0,0.0,0.0,0.0,0.0,0.0,0.0,0.0,0.0,0.0,0.0,0.0,0.0,0.0,0.0,0.0,0.0,0.0,0.0,0.0,0.0,0.0,0.0,0.0,0.0,0.0,0.0,0.0,0.0,0.0,0.0,0.0,0.0,0.0,0.0,0.0,0.0,0.0,0.0,0.0,0.0,0.0,0.0,0.0,0.0,0.0,0.0,0.0,0.0,0.0,0.0,0.0,0.0,0.0,0.0,0.0,0.0,0.0,0.0,0.0,0.0,0.0,0.0,0.0,0.0,0.0,0.0,0.0,0.0,0.0,0.0,0.0,0.0,0.0,0.0,0.0,0.0,0.0,0.0,0.0,0.0,0.0,4.5812,4.951,4.8399,4.2239,3.9973,3.7353,0.0,0.0,0.0,0.0,0.0,0.0,0.0,0.0,0.0,0.0,0.0,0.0,0.0,0.0,0.0,0.0,0.0,0.0,0.0,0.0,0.0,0.0,0.0,0.0,0.0,0.0,0.0,0.0,0.0,0.0,0.0,0.0,0.0,0.0,0.0,0.0,0.0,0.0,0.0,0.0,0.0,0.0,0.0,0.0,0.0,0.0,0.0,0.0,0.0,0.0,0.0,0.0,0.0,0.0,0.0,0.0,0.0,0.0,0.0,0.0,0.0,0.0,0.0,0.0,0.0,0.0,0.0,0.0,0.0,0.0,0.0,0.0,0.0,0.0,0.0,0.0,0.0,0.0,0.0,0.0,0.0,0.0,0.0,0.0,0.0,0.0,0.0,0.0,0.0,0.0,0.0,0.0,0.0,0.0,0.0,0.0,0.0,0.0,0.0,0.0,0.0,0.0,0.0,0.0,0.0,0.0,0.0,0.0,4.4705,5.001,5.5555,5.5939,5.0822,4.6167,4.1777,0.0,0.0,0.0,0.0,0.0,0.0,0.0,0.0,0.0,0.0,0.0,0.0,0.0,0.0,0.0,0.0,0.0,0.0,0.0,0.0,0.0,0.0,0.0,0.0,0.0,0.0,0.0,0.0,0.0,0.0,0.0,0.0,0.0,0.0,0.0,0.0,0.0,0.0,0.0,0.0,0.0,0.0,0.0,0.0,0.0,0.0,0.0,0.0,0.0,0.0,0.0,0.0,0.0,0.0,0.0,0.0,0.0,0.0,0.0,0.0,0.0,0.0,0.0,0.0,0.0,0.0,0.0,0.0,0.0,0.0,0.0,0.0,0.0,0.0,0.0,0.0,0.0,0.0,0.0,0.0,0.0,0.0,0.0,0.0,0.0,0.0,0.0,0.0,0.0,0.0,0.0,0.0,0.0,0.0,0.0,0.0,0.0,0.0,0.0,0.0,0.0,0.0,0.0,0.0,0.0,0.0,0.0,0.0,4.8125,5.4631,5.9748,6.1479,5.9511,5.2587,4.6394,0.0,0.0,0.0,0.0,0.0,0.0,0.0,0.0,0.0,0.0,0.0,0.0,0.0,0.0,0.0,0.0,0.0,0.0,0.0,0.0,0.0,0.0,0.0,0.0,0.0,0.0,0.0,0.0,0.0,0.0,0.0,0.0,0.0,0.0,0.0,0.0,0.0,0.0,0.0,0.0,0.0,0.0,0.0,0.0,0.0,0.0,0.0,0.0,0.0,0.0,0.0,0.0,0.0,0.0,0.0,0.0,0.0,0.0,0.0,0.0,0.0,0.0,0.0,0.0,0.0,0.0,0.0,0.0,0.0,0.0,0.0,0.0,0.0,0.0,0.0,0.0,0.0,0.0,0.0,0.0,0.0,0.0,0.0,0.0,0.0,0.0,0.0,0.0,0.0,0.0,0.0,0.0,0.0,0.0,0.0,0.0,0.0,0.0,0.0,0.0,0.0,0.0,0.0,0.0,0.0,0.0,0.0,0.0,5.163,5.6401,6.1441,6.2935,6.0594,5.5742,5.0741,0.0,0.0,0.0,0.0,0.0,0.0,0.0,0.0,0.0,0.0,0.0,0.0,0.0,0.0,0.0,0.0,0.0,0.0,0.0,0.0,0.0,0.0,0.0,0.0,0.0,0.0,0.0,0.0,0.0,0.0,0.0,0.0,0.0,0.0,0.0,0.0,0.0,0.0,0.0,0.0,0.0,0.0,0.0,0.0,0.0,0.0,0.0,0.0,3.1464,0.0,0.0,0.0,0.0,0.0,0.0,0.0,0.0,0.0,0.0,0.0,0.0,0.0,0.0,0.0,0.0,0.0,0.0,0.0,0.0,0.0,0.0,0.0,0.0,0.0,0.0,0.0,0.0,0.0,0.0,0.0,0.0,0.0,0.0,0.0,0.0,0.0,0.0,0.0,0.0,0.0,0.0,0.0,0.0,0.0,0.0,0.0,0.0,0.0,0.0,0.0,0.0,0.0,0.0,0.0,0.0,0.0,0.0,0.0,5.3933,5.8094,6.2397,6.3974,6.2551,5.9281,5.4318,0.0,0.0,0.0,0.0,0.0,0.0,0.0,0.0,0.0,0.0,0.0,0.0,0.0,0.0,0.0,0.0,0.0,0.0,0.0,0.0,0.0,0.0,0.0,0.0,0.0,0.0,0.0,0.0,0.0,0.0,0.0,0.0,0.0,0.0,0.0,0.0,0.0,0.0,0.0,0.0,0.0,0.0,0.0,0.0,0.0,0.0,0.0,0.0,0.0,0.0,0.0,0.0,0.0,0.0,0.0,0.0,0.0,0.0,0.0,0.0,0.0,0.0,0.0,0.0,0.0,0.0,0.0,0.0,0.0,0.0,0.0,0.0,0.0,0.0,0.0,0.0,0.0,0.0,0.0,0.0,0.0,0.0,0.0,0.0,0.0,0.0,0.0,0.0,0.0,0.0,0.0,0.0,0.0,0.0,0.0,0.0,0.0,0.0,0.0,0.0,0.0,0.0,0.0,0.0,0.0,0.0,0.0,5.0659,5.6011,5.9819,6.3089,6.4628,6.4205,6.1743,5.6549,4.8394,0.0,0.0,0.0,0.0,0.0,0.0,0.0,0.0,0.0,0.0,0.0,0.0,0.0,0.0,0.0,0.0,0.0,0.0,0.0,0.0,0.0,0.0,0.0,0.0,0.0,0.0,0.0,0.0,0.0,0.0,0.0,0.0,0.0,0.0,0.0,0.0,0.0,0.0,2.981,3.3027,0.0,0.0,0.0,0.0,0.0,0.0,0.0,0.0,3.3626,0.0,0.0,0.0,0.0,0.0,0.0,0.0,0.0,0.0,0.0,0.0,0.0,0.0,0.0,0.0,0.0,0.0,0.0,0.0,0.0,0.0,0.0,0.0,0.0,0.0,0.0,0.0,0.0,0.0,0.0,0.0,0.0,0.0,0.0,0.0,0.0,0.0,0.0,0.0,0.0,0.0,0.0,0.0,0.0,0.0,0.0,0.0,0.0,0.0,0.0,0.0,0.0,0.0,0.0,0.0,0.0,4.724,5.4664,5.9511,6.1633,6.4288,6.4666,6.2557,6.005,5.5357,4.8389,0.0,0.0,0.0,0.0,0.0,0.0,0.0,0.0,0.0,0.0,0.0,0.0,0.0,0.0,0.0,0.0,0.0,0.0,0.0,0.0,0.0,0.0,0.0,0.0,0.0,0.0,0.0,0.0,0.0,0.0,0.0,0.0,0.0,0.0,0.0,0.0,0.0,0.0,0.0,3.7399,3.8845,0.0,0.0,0.0,0.0,0.0,0.0,0.0,0.0,3.5051,0.0,0.0,0.0,0.0,0.0,0.0,0.0,0.0,0.0,0.0,0.0,0.0,0.0,0.0,0.0,0.0,0.0,0.0,0.0,0.0,0.0,0.0,0.0,0.0,0.0,0.0,0.0,0.0,0.0,0.0,0.0,0.0,0.0,0.0,0.0,0.0,0.0,0.0,0.0,0.0,0.0,0.0,0.0,0.0,0.0,0.0,0.0,0.0,0.0,0.0,0.0,0.0,0.0,0.0,0.0,5.0043,5.7203,6.1672,6.3358,6.5051,6.4673,6.2133,5.8748,5.4159,0.0,0.0,0.0,0.0,0.0,0.0,0.0,0.0,0.0,0.0,0.0,0.0,0.0,0.0,0.0,0.0,0.0,0.0,0.0,0.0,0.0,0.0,0.0,0.0,0.0,0.0,0.0,0.0,0.0,0.0,0.0,0.0,0.0,0.0,0.0,0.0,0.0,0.0,0.0,0.0,4.049,4.2209,4.0609,0.0,0.0,0.0,0.0,0.0,0.0,3.8538,3.7266,0.0,0.0,0.0,0.0,0.0,0.0,0.0,0.0,0.0,0.0,0.0,0.0,0.0,0.0,0.0,0.0,0.0,0.0,0.0,0.0,0.0,0.0,0.0,0.0,0.0,0.0,0.0,0.0,0.0,0.0,0.0,0.0,0.0,0.0,0.0,0.0,0.0,0.0,0.0,0.0,0.0,0.0,0.0,0.0,0.0,0.0,0.0,0.0,0.0,0.0,0.0,0.0,0.0,0.0,0.0,5.2115,5.9242,6.3518,6.482,6.5859,6.5019,6.2133,5.8094,5.3323,0.0,0.0,0.0,0.0,0.0,0.0,0.0,0.0,0.0,0.0,0.0,0.0,0.0,0.0,0.0,0.0,0.0,0.0,0.0,0.0,0.0,0.0,0.0,0.0,0.0,0.0,0.0,0.0,0.0,0.0,0.0,0.0,0.0,0.0,0.0,0.0,0.0,0.0,0.0,0.0,0.0,4.542,4.4605,4.3426,0.0,0.0,0.0,0.0,4.2887,4.2196,0.0,0.0,0.0,0.0,0.0,0.0,0.0,0.0,0.0,0.0,0.0,0.0,0.0,0.0,0.0,0.0,0.0,0.0,0.0,0.0,0.0,0.0,0.0,0.0,0.0,0.0,0.0,0.0,0.0,0.0,0.0,0.0,0.0,0.0,0.0,0.0,0.0,0.0,0.0,0.0,0.0,0.0,0.0,0.0,0.0,0.0,0.0,0.0,0.0,0.0,0.0,0.0,0.0,0.0,0.0,0.0,5.3082,6.1243,6.5551,6.582,6.7282,6.6205,6.2216,5.8671,5.34,0.0,0.0,0.0,0.0,0.0,0.0,0.0,0.0,0.0,0.0,0.0,0.0,0.0,0.0,0.0,0.0,0.0,0.0,0.0,0.0,0.0,0.0,0.0,0.0,0.0,0.0,0.0,0.0,0.0,0.0,0.0,0.0,0.0,0.0,0.0,0.0,0.0,0.0,0.0,0.0,0.0,4.8874,4.7971,4.7755,4.7453,0.0,0.0,4.6426,4.7416,4.8103,0.0,0.0,0.0,0.0,0.0,0.0,0.0,0.0,0.0,0.0,0.0,0.0,0.0,0.0,0.0,0.0,0.0,0.0,0.0,0.0,0.0,0.0,0.0,0.0,0.0,0.0,0.0,0.0,0.0,0.0,0.0,0.0,0.0,0.0,0.0,0.0,0.0,0.0,0.0,0.0,0.0,0.0,0.0,0.0,0.0,0.0,0.0,0.0,0.0,0.0,0.0,0.0,0.0,0.0,0.0,4.7702,5.4587,6.205,6.6359,6.7321,6.8007,6.6622,6.2897,5.9017,5.3862,0.0,0.0,0.0,0.0,0.0,0.0,0.0,0.0,0.0,0.0,0.0,0.0,0.0,0.0,0.0,0.0,0.0,0.0,0.0,0.0,0.0,0.0,0.0,0.0,0.0,0.0,0.0,0.0,0.0,0.0,0.0,0.0,0.0,0.0,0.0,0.0,0.0,0.0,0.0,0.0,0.0,0.0,5.1231,5.1732,0.0,0.0,0.0,5.131,5.3187,0.0,0.0,0.0,0.0,0.0,0.0,0.0,0.0,0.0,0.0,0.0,0.0,0.0,0.0,0.0,0.0,0.0,0.0,0.0,0.0,0.0,0.0,0.0,0.0,0.0,0.0,0.0,0.0,0.0,0.0,0.0,0.0,0.0,0.0,0.0,0.0,0.0,0.0,0.0,0.0,0.0,0.0,0.0,0.0,0.0,0.0,0.0,0.0,0.0,0.0,0.0,0.0,0.0,0.0,0.0,0.0,0.0,5.5934,6.3166,6.7552,6.8968,6.9237,6.7705,6.4314,6.055,0.0,0.0,0.0,0.0,0.0,0.0,0.0,0.0,0.0,0.0,0.0,0.0,0.0,0.0,0.0,0.0,0.0,0.0,0.0,0.0,0.0,0.0,0.0,0.0,0.0,0.0,0.0,2.5338,0.0,0.0,0.0,0.0,0.0,0.0,0.0,0.0,0.0,0.0,0.0,0.0,0.0,0.0,5.4354,5.5238,5.6156,5.6732,0.0,0.0,5.6208,5.841,5.9008,5.7805,0.0,0.0,0.0,0.0,0.0,0.0,0.0,0.0,0.0,0.0,0.0,0.0,0.0,0.0,0.0,0.0,0.0,0.0,0.0,0.0,0.0,0.0,0.0,0.0,0.0,0.0,0.0,0.0,0.0,0.0,0.0,0.0,0.0,0.0,0.0,0.0,0.0,0.0,0.0,0.0,0.0,0.0,0.0,0.0,0.0,0.0,0.0,0.0,0.0,0.0,0.0,0.0,0.0,0.0,0.0,5.689,6.5166,6.9821,7.0706,7.1514,7.0328,6.6936,6.4282,5.9006,0.0,0.0,0.0,0.0,0.0,0.0,0.0,0.0,0.0,0.0,0.0,0.0,0.0,0.0,0.0,0.0,0.0,0.0,0.0,0.0,0.0,0.0,0.0,0.0,0.0,0.0,0.0,0.0,0.0,0.0,0.0,0.0,0.0,0.0,0.0,0.0,0.0,0.0,0.0,0.0,0.0,5.8972,6.0546,6.1452,6.2001,0.0,0.0,6.1104,6.2269,6.256,6.0925,5.5825,0.0,0.0,0.0,0.0,0.0,0.0,0.0,0.0,0.0,0.0,0.0,0.0,0.0,0.0,0.0,0.0,0.0,0.0,0.0,0.0,0.0,0.0,0.0,0.0,0.0,0.0,0.0,0.0,0.0,0.0,0.0,0.0,0.0,0.0,0.0,0.0,0.0,0.0,0.0,0.0,0.0,0.0,0.0,0.0,0.0,0.0,0.0,0.0,0.0,0.0,0.0,0.0,0.0,4.963,5.7736,6.5667,7.036,7.1668,7.2552,7.186,6.9475,6.7468,6.2698,0.0,0.0,0.0,0.0,0.0,0.0,0.0,0.0,0.0,0.0,0.0,0.0,0.0,0.0,0.0,0.0,0.0,0.0,0.0,0.0,0.0,0.0,0.0,0.0,0.0,0.0,0.0,0.0,3.1015,3.0932,3.0407,0.0,0.0,0.0,0.0,0.0,0.0,0.0,0.0,0.0,0.0,6.2113,6.426,6.5718,0.0,0.0,6.5863,6.5322,6.5275,6.4527,6.2375,5.7736,5.2501,0.0,0.0,0.0,0.0,0.0,0.0,0.0,0.0,0.0,0.0,0.0,0.0,0.0,0.0,0.0,0.0,0.0,0.0,0.0,0.0,0.0,0.0,0.0,0.0,0.0,0.0,0.0,0.0,0.0,0.0,0.0,0.0,0.0,0.0,0.0,0.0,0.0,0.0,0.0,0.0,0.0,0.0,0.0,0.0,0.0,0.0,0.0,0.0,0.0,0.0,0.0,0.0,5.0493,5.8692,6.6554,7.1262,7.2643,7.3529,7.3253,7.1807,7.0086,6.5877,0.0,0.0,0.0,0.0,0.0,0.0,0.0,0.0,0.0,0.0,0.0,0.0,0.0,0.0,0.0,0.0,0.0,0.0,0.0,0.0,0.0,0.0,0.0,0.0,0.0,0.0,0.0,0.0,3.3339,3.2788,3.1949,0.0,0.0,0.0,0.0,0.0,0.0,0.0,0.0,0.0,0.0,6.4628,6.708,6.9061,7.0301,7.0322,6.9627,6.8725,6.7765,6.6139,6.3597,5.9535,0.0,0.0,0.0,0.0,0.0,0.0,0.0,0.0,0.0,0.0,0.0,0.0,0.0,0.0,0.0,0.0,0.0,0.0,0.0,0.0,0.0,0.0,0.0,0.0,0.0,0.0,0.0,0.0,0.0,0.0,2.831,0.0,0.0,0.0,0.0,0.0,0.0,0.0,0.0,0.0,0.0,0.0,0.0,0.0,0.0,0.0,0.0,0.0,0.0,0.0,0.0,0.0,0.0,5.2074,5.9721,6.8119,7.291,7.3761,7.4618,7.4634,7.3718,7.1997,6.8194,6.2083,0.0,0.0,0.0,0.0,0.0,0.0,0.0,0.0,0.0,0.0,0.0,0.0,0.0,0.0,0.0,0.0,0.0,0.0,0.0,0.0,0.0,0.0,0.0,0.0,0.0,0.0,3.5304,3.4696,3.3849,0.0,0.0,0.0,0.0,0.0,0.0,0.0,0.0,0.0,0.0,6.1738,6.6469,6.8975,7.1444,7.3008,7.3039,7.2287,7.1145,6.9613,6.7384,6.4686,0.0,0.0,0.0,0.0,0.0,0.0,0.0,0.0,0.0,0.0,0.0,0.0,0.0,0.0,0.0,0.0,0.0,0.0,0.0,0.0,0.0,0.0,0.0,0.0,0.0,0.0,0.0,3.948,3.8269,0.0,0.0,0.0,0.0,0.0,0.0,0.0,0.0,0.0,0.0,0.0,5.6814,5.7127,0.0,0.0,0.0,0.0,0.0,0.0,0.0,0.0,0.0,0.0,0.0,0.0,5.2544,6.0702,6.8657,7.3389,7.4749,7.5642,7.5685,7.4829,7.3584,6.8436,5.9029,0.0,0.0,0.0,0.0,0.0,0.0,0.0,0.0,0.0,0.0,0.0,0.0,0.0,0.0,0.0,0.0,0.0,0.0,0.0,0.0,0.0,0.0,0.0,0.0,0.0,3.7165,0.0,0.0,0.0,0.0,0.0,0.0,0.0,0.0,0.0,0.0,0.0,5.2807,5.787,6.3194,6.7517,7.0053,7.3044,7.4842,0.0,0.0,0.0,0.0,0.0,0.0,0.0,0.0,0.0,0.0,0.0,0.0,0.0,0.0,6.1862,5.8892,5.7634,5.6951,5.6799,0.0,0.0,0.0,0.0,0.0,0.0,0.0,0.0,0.0,0.0,0.0,0.0,0.0,0.0,4.7018,0.0,4.2917,0.0,0.0,0.0,0.0,0.0,0.0,0.0,0.0,6.084,6.4316,6.5681,6.6306,6.654,0.0,6.568,6.0562,0.0,0.0,0.0,0.0,0.0,0.0,0.0,0.0,5.463,6.2224,7.0203,7.4797,7.5887,7.7014,7.7335,7.6716,7.489,6.9585,6.0491,5.5562,4.9765,0.0,0.0,0.0,0.0,0.0,0.0,0.0,0.0,0.0,0.0,0.0,0.0,0.0,0.0,0.0,0.0,0.0,0.0,0.0,0.0,0.0,0.0,0.0,4.0781,0.0,0.0,0.0,0.0,0.0,0.0,0.0,0.0,0.0,4.8822,5.2587,5.6973,6.1166,6.5359,6.9013,7.1822,0.0,0.0,0.0,0.0,0.0,0.0,0.0,6.632,6.609,6.6051,6.6436,6.7552,6.909,7.0667,7.2091,0.0,0.0,6.8824,6.7254,6.6674,6.6564,6.5868,6.5331,6.5638,6.6825,6.8433,0.0,0.0,0.0,0.0,0.0,0.0,0.0,0.0,5.6523,5.4805,0.0,4.9648,0.0,0.0,0.0,0.0,0.0,5.082,0.0,0.0,6.8945,7.2656,7.3555,7.5156,7.5117,7.3594,7.418,7.1875,6.6484,5.6039,0.0,0.0,0.0,0.0,0.0,0.0,5.8253,6.4262,7.2649,7.7055,7.7135,7.8657,7.9452,7.9274,7.6,7.1753,6.6603,6.2254,5.7262,5.134,4.6992,0.0,0.0,0.0,0.0,0.0,0.0,0.0,0.0,0.0,0.0,0.0,0.0,0.0,0.0,0.0,0.0,0.0,0.0,0.0,0.0,4.5825,0.0,0.0,0.0,0.0,0.0,0.0,0.0,0.0,0.0,0.0,5.5478,5.7896,6.132,6.548,0.0,0.0,0.0,0.0,7.8561,7.8561,7.8561,7.7984,7.6322,7.3983,7.2668,7.3546,0.0,0.0,7.613,7.6399,7.6746,7.7522,7.9054,7.9554,7.7977,7.6692,7.6038,7.6,7.5262,7.5238,7.5969,7.637,7.7877,6.8341,0.0,0.0,0.0,0.0,6.2729,6.4999,6.6953,6.5898,6.4453,6.2617,5.918,0.0,0.0,0.0,0.0,0.0,0.0,6.3906,6.9219,7.4297,7.7422,7.8789,7.9297,7.8945,7.789,7.7539,7.5351,7.1367,6.6991,6.0271,5.1403,0.0,0.0,0.0,0.0,6.0385,6.7025,7.4328,7.8351,7.8898,7.9406,7.9544,7.9394,7.7222,7.4723,7.1905,6.7721,6.3177,5.8354,5.3467,0.0,0.0,0.0,0.0,0.0,0.0,0.0,0.0,0.0,0.0,0.0,0.0,0.0,0.0,0.0,0.0,0.0,0.0,0.0,5.0592,5.101,5.0164,0.0,0.0,0.0,0.0,0.0,0.0,0.0,0.0,0.0,6.6865,6.6359,6.6744,0.0,0.0,7.4053,7.6245,7.8707,8.0362,8.0362,0.0,0.0,0.0,7.7553,7.7215,7.8669,8.09,8.3054,8.4755,8.5055,8.514,8.5332,8.5824,8.6132,8.6132,8.3593,8.1593,8.1408,8.1216,8.1093,8.1408,8.2093,8.3093,8.0192,7.3225,7.0496,6.9564,7.0075,7.2303,7.4843,7.7265,7.5742,7.4492,7.3242,6.914,6.5625,6.2617,6.0742,0.0,0.0,0.0,7.1289,7.5742,8.0078,8.2617,8.3554,8.3906,8.3242,8.1758,8.1289,7.9414,7.6328,7.5312,7.0703,6.2578,0.0,0.0,5.5469,5.9101,6.3828,6.9687,7.6172,7.9726,8.0195,8.0546,8.05,7.999,7.8636,7.7073,7.5293,7.1731,6.7924,6.3895,5.9157,5.4165,0.0,0.0,0.0,0.0,0.0,0.0,0.0,0.0,0.0,0.0,0.0,3.3948,3.5015,0.0,0.0,0.0,4.7447,5.1809,5.5857,5.6511,0.0,0.0,0.0,0.0,0.0,0.0,0.0,6.5397,6.9244,7.2675,7.5329,7.4976,7.4437,7.4437,7.6322,7.8323,8.0054,0.0,8.3093,8.3093,8.3093,8.2901,8.2401,8.1593,8.1631,8.3324,8.5517,8.7363,8.8449,8.8679,8.8679,8.8718,8.8949,8.944,9.0287,8.8556,8.6978,8.6679,8.6632,8.6709,8.7017,8.7555,8.8171,8.9609,8.7656,8.1289,7.8828,7.9258,8.0898,8.3906,8.7461,8.5195,8.414,8.3633,7.8867,7.5234,7.25,6.9375,0.0,7.1758,7.5039,7.8281,8.1679,8.5703,8.7617,8.7734,8.8437,8.7461,8.5,8.4922,8.3554,8.1015,8.0937,7.9336,7.5859,6.4961,6.0469,6.2539,6.5039,6.8359,7.25,7.832,8.1289,8.1211,8.1913,8.1868,8.1034,8.0124,7.8855,7.7221,7.4648,7.1747,6.8514,6.4286,5.9611,5.4553,0.0,0.0,0.0,0.0,0.0,0.0,0.0,0.0,0.0,0.0,0.0,0.0,0.0,0.0,0.0,5.3794,0.0,6.1206,6.2323,0.0,0.0,0.0,5.8479,6.2598,6.6024,6.9598,7.3665,0.0,0.0,0.0,0.0,8.3217,8.1047,8.1916,8.3401,8.5055,8.594,8.6555,8.6632,8.6671,8.6748,8.6786,8.6209,8.6247,8.7632,8.8564,8.9171,8.9295,8.9295,8.918,8.9295,8.971,9.0509,9.1355,9.2018,9.2441,9.1633,9.1402,9.1556,9.2056,9.221,9.2402,9.4726,9.414,9.1875,8.8398,8.4531,8.6172,8.7812,8.9375,8.9453,8.875,8.7344,8.4844,8.1953,7.8789,7.7305,7.7695,7.9609,8.1094,8.3281,8.5976,8.7656,8.875,8.9414,8.9609,8.8359,8.5976,8.5234,8.3554,8.1094,8.0976,7.9961,7.7812,7.4336,7.1601,6.9687,7.1484,7.3945,7.6914,8.1601,8.3633,8.3008,8.2539,8.2187,8.1951,8.0506,7.9489,7.9018,7.6543,7.4718,7.3694,6.9638,6.552,6.1525,5.5255,0.0,0.0,0.0,0.0,0.0,0.0,0.0,0.0,0.0,4.3619,4.6865,0.0,5.2103,0.0,5.9563,6.409,6.6685,6.8812,0.0,0.0,6.7833,6.7838,7.0767,7.4087,7.7052,7.932,8.2599,8.5305,8.6999,8.754,8.8053,8.8643,8.7849,8.7555,8.8585,8.944,9.0248,9.0787,9.1325,9.1902,9.171,9.1748,9.1595,9.2133,9.2364,9.2518,9.2488,9.2518,9.2518,9.2518,9.2633,9.3133,9.3873,9.4296,9.4566,9.4864,9.4057,9.3172,9.3403,9.3403,9.348,9.7608,9.7449,9.6242,9.3783,9.0778,9.1367,9.2304,9.3398,9.3164,9.2929,9.2578,9.0508,8.8125,8.5586,8.5078,8.5195,8.5781,8.664,8.7812,8.9219,9.0078,9.0703,9.1172,9.1172,8.9609,8.6758,8.5508,8.375,8.1679,8.1601,8.1289,8.0781,8.1054,8.0039,7.7812,7.6836,7.7422,7.9609,8.3086,8.4453,8.3633,8.3125,8.25,8.1719,8.039,7.9336,7.8594,7.6833,7.5609,7.5036,7.1384,6.7836,6.4578,5.8384,5.23,0.0,0.0,0.0,0.0,0.0,0.0,0.0,0.0,0.0,0.0,0.0,5.9422,6.1846,6.5265,6.8664,7.1957,7.4593,7.6413,7.716,7.6393,7.6708,7.8874,8.1116,8.3281,8.5323,8.7569,8.9621,9.1251,9.1523,9.1832,9.2735,9.1835,9.1114,9.1104,9.1505,9.2095,9.2903,9.3403,9.3672,9.3672,9.3672,9.3672,9.3672,9.3672,9.3672,9.3672,9.3672,9.3672,9.3672,9.3672,9.398,9.4797,9.4989,9.5297,9.5903,9.5557,9.4941,9.4864,9.4864,9.4941,9.9234,9.9016,9.7478,9.6836,9.6815,9.6129,9.6562,9.7578,9.6172,9.6289,9.7422,9.5078,9.3164,9.164,9.1406,9.082,9.0039,9.0547,9.0859,9.1015,9.1875,9.2304,9.2422,9.2539,9.0859,8.7656,8.5898,8.414,8.25,8.2461,8.2851,8.3633,8.5351,8.5781,8.4765,8.1289,8.0234,8.1836,8.3984,8.4687,8.3945,8.3711,8.2812,8.1211,8.0117,7.8828,7.7265,7.6249,7.5385,7.4474,7.1459,6.8557,6.5957,6.051,5.5482,0.0,4.9494,0.0,0.0,0.0,0.0,0.0,0.0,0.0,0.0,6.4623,6.6984,7.0109,7.1154,7.3256,7.7134,7.9812,8.1987,8.3506,8.3817,8.4518,8.6076,8.7124,8.8519,9.0731,9.1852,9.3059,9.4379,9.4734,9.4661,9.4552,9.4189,9.3656,9.3176,9.2948,9.3133,9.3787,9.395,9.4249,9.421,9.4134,9.4134,9.4095,9.4172,9.4018,9.4134,9.4095,9.4134,9.4249,9.4364,9.4604,9.5335,9.5566,9.5797,9.6596,9.6673,9.6519,9.6249,9.6134,9.6557,10.0611,10.0366,9.9498,9.9188,9.9259,9.926,9.8662,9.7695,9.7344,9.7031,9.664,9.5469,9.4375,9.332,9.1914,9.082,8.9961,8.875,8.8594,8.9219,9.0078,9.0859,9.1562,9.2265,9.1172,8.8476,8.6758,8.5039,8.3359,8.3359,8.3437,8.3633,8.5351,8.5742,8.4961,0.0,0.0,0.0,8.6054,8.5859,8.5664,8.4336,8.3125,8.207,7.9883,0.0,7.7226,7.5703,7.4765,7.453,7.2616,0.0,0.0,0.0,0.0,0.0,0.0,0.0,0.0,0.0,0.0,0.0,7.0554,7.1032,7.0182,7.221,7.4426,7.6399,7.7967,7.9697,8.1914,8.4405,8.6353,8.7328,8.8072,8.8927,8.9978,9.1343,9.2549,9.2978,9.4376,9.5465,9.578,9.5894,9.5869,9.5798,9.5043,9.4735,9.5125,9.4759,9.4584,9.4797,9.5286,9.5758,9.5788,9.5758,9.5661,9.5826,9.5788,9.5749,9.5711,9.5749,9.6057,9.6519,9.6788,9.698,9.7836,9.8067,9.798,9.8288,9.8288,9.7904,9.6596,9.6288,9.6519,10.0903,0.0,9.9993,9.9769,0.0,10.0035,9.9902,9.9517,9.8709,9.789,9.707,9.6601,9.5508,9.3789,9.164,8.9726,8.8008,8.5898,8.5625,8.6875,8.8164,8.9414,9.0703,9.1992,9.1211,8.8672,8.6992,8.5508,8.4258,8.3828,8.4023,8.4883,8.6172,8.664,8.6211,8.6601,8.7031,8.75,8.707,8.664,8.6172,8.4922,8.3594,8.2304,0.0,0.0,0.0,0.0,0.0,0.0,0.0,0.0,0.0,0.0,0.0,6.3112,6.3254,6.3468,6.3485,6.6622,7.0821,7.5956,7.9562,8.0465,7.7927,7.8903,8.0385,8.2061,8.3381,8.4626,8.5914,8.7592,8.9114,9.0324,9.091,9.1652,9.2939,9.3837,9.454,9.5009,9.5828,9.649,9.6881,9.7349,9.7532,9.7533,9.7379,9.7278,9.7518,9.6294,9.5382,9.5759,9.6145,9.6484,9.6484,9.648,9.6446,9.6403,9.6349,9.6343,9.6326,9.6288,9.6557,9.7288,9.7519,9.7788,9.8557,9.8788,9.8788,9.8788,9.8788,9.8596,9.7673,9.7519,9.7788,10.0948,10.0732,10.0211,10.0029,10.0154,10.0293,10.071,10.1273,0.0,0.0,0.0,9.8005,9.66,9.4178,9.1444,8.8906,8.6523,8.3945,8.3711,8.5429,8.7148,8.8828,9.0508,9.2226,9.1836,8.9609,8.7929,8.664,8.5781,8.4922,8.5195,8.6601,8.75,8.7969,8.7969,8.7929,8.7851,8.7695,8.7578,8.7148,8.6445,8.5586,8.4375,8.2773,8.0937,7.9219,7.7695,7.668,7.6133,7.6094,7.4765,7.4062,7.418,7.2851,7.1482,7.0305,7.0962,7.1811,7.2655,7.4934,7.803,8.202,8.5936,8.7148,8.4687,8.4648,8.539,8.6953,8.8008,8.8906,8.957,9.039,9.1484,9.2929,9.3203,9.3867,9.5195,9.5586,9.5937,9.6562,9.6719,9.7031,9.7812,9.8476,9.9101,9.9246,9.9444,9.9941,9.9625,9.7847,9.6661,9.7204,9.7397,9.7306,9.7254,9.7267,9.7094,9.7131,9.6985,9.6835,9.6786,9.6749,9.7057,9.7942,9.7942,9.8404,9.9058,9.9365,9.925,9.9211,9.925,9.925,9.925,9.925,9.9404,10.1431,10.123,10.1273,10.1378,10.1451,10.1633,10.14,10.0903,10.1068,10.0656,9.9795,9.9055,9.7735,9.5873,9.2602,9.0109,8.82,8.5703,8.5469,0.0,8.8867,9.0586,9.2304,9.4023,9.4258,9.3125,9.1406,9.0117,8.9258,8.8398,8.8125,8.8398,8.9219,8.9609,8.9648,8.9648,8.9297,8.8554,8.7851,8.7422,8.7304,8.6445,8.5547,8.4492,8.2109,8.0351,7.9375,7.789,7.6992,7.6992,7.6797,7.6992,7.7695,7.75,7.7578,7.8086,7.8867,7.9765,8.0586,8.2422,8.4648,8.7343,8.957,8.9961,8.8203,8.8672,8.9492,9.0508,9.1953,9.3047,9.3242,9.3828,9.4375,9.4804,9.5469,9.6054,9.6328,9.6914,9.7344,9.75,9.7539,9.789,9.8672,9.8984,9.9414,9.9955,10.0293,10.0218,10.0074,9.9448,9.908,9.9181,9.9181,9.922,9.9005,9.9086,9.8873,9.8827,9.8679,9.8472,9.8304,9.8267,9.8614,9.9538,9.9567,9.9933,10.0693,10.0943,10.0827,10.075,10.0741,10.0779,10.075,10.0779,10.0712,10.1459,10.1308,10.1489,10.1599,10.1703,10.1902,10.1796,10.1466,10.1696,10.1037,9.9789,9.8935,9.7678,9.5889,9.2585,9.0198,8.8537,8.6053,8.582,8.7578,8.9219,9.0898,9.2656,9.4375,9.5,9.4531,9.332,9.25,9.2031,9.0781,9.0117,9.0078,9.0078,9.0,9.0,9.0,8.957,8.8711,8.832,8.7929,8.75,8.664,8.6015,8.5586,8.3515,8.2226,8.1836,8.0625,7.9961,7.9961,7.9961,8.0156,8.0547,8.1445,8.2148,8.2539,8.3789,8.4883,8.5742,8.7851,8.957,9.0742,9.2422,9.3086,9.2304,9.2148,9.25,9.332,9.4179,9.4609,9.4609,9.4961,9.539,9.5859,9.6289,9.6679,9.7148,9.789,9.8398,9.8437,9.8828,9.9258,9.9648,10.0117,10.0508,10.0975,10.1328,10.1601,10.1562,10.1445,10.0948,10.0083,9.9817,9.9817,9.9853,9.9743,9.9663,9.9489,9.9429,9.9287,9.9131,9.9073,9.9459,10.0145,10.0342,10.0589,10.1314,10.1442,10.1395,10.1289,10.1279,10.1279,10.1279,10.1279,10.1135,10.1395,10.1289,10.1404,10.1534,10.1646,10.1773,10.1857,10.1857,10.1857,10.1081,9.991,9.9147,9.8078,9.6506,9.3662,9.1631,9.0156,8.816,8.8086,8.957,9.0859,9.2265,9.375,9.5156,9.5742,9.5664,9.4883,9.4492,9.4297,9.2734,9.1797,9.1562,9.0898,9.0586,9.0586,9.0586,9.0156,8.9336,8.9297,8.8711,8.7539,8.6836,8.6484,8.6406,8.5,8.4179,8.414,8.3359,8.289,8.289,8.3086,8.3281,8.3515,8.4922,8.582,8.6133,8.7304,8.8515,8.957,9.1445,9.2773,9.3203,9.4414,9.5273,9.5429,9.4883,9.4765,9.539,9.582,9.6094,9.6172,9.6367,9.6601,9.7265,9.7383,9.7695,9.8242,9.8906,9.9297,9.9375,9.9883,10.0312,10.0664,10.1172,10.1601,10.1914,10.25,10.289,10.289,10.289,10.2187,10.1206,10.0664,10.0744,10.0662,10.066,10.0583,10.0379,10.0314,10.0289,10.0127,9.9968,10.0162,10.0859,10.0858,10.1023,10.1482,10.1585,10.1459,10.1337,10.1279,10.1279,10.1279,10.151,10.1481,10.1327,10.1279,10.1337,10.1308,10.1337,10.1375,10.1394,10.1394,10.1375,10.1308,10.1013,10.0657,10.0003,9.9166,9.7399,9.6154,9.541,9.4643,9.4648,9.5429,9.582,9.6367,9.7031,9.7344,9.7461,9.7304,9.6562,9.6094,9.6015,9.4414,9.3203,9.2578,9.2383,9.2304,9.2304,9.2304,9.1914,9.1094,9.1054,8.9883,8.7656,8.7422,8.7383,8.7383,8.6484,8.5976,8.5976,8.5156,8.4687,8.4726,8.5429,8.6211,8.6953,8.7851,8.8711,8.9414,8.9687,9.0469,9.2031,9.2461,9.3359,9.4765,9.5156,9.5664,9.6328,9.6367,9.6289,9.664,9.7773,9.8398,9.8672,9.9219,9.9531,9.957,9.9687,10.0,9.9922,10.0117,10.0195,10.0195,10.039,10.0586,10.1367,10.164,10.1953,10.2578,10.2734,10.289,10.289,10.289,10.2851,10.2578,10.2578,10.25,10.2461,10.2528,10.2212,10.2111,10.2127,10.1867,10.1638,10.1626,10.187,10.1639,10.1806,10.1796,10.1683,10.1656,10.1581,10.1441,10.1356,10.1308,10.1404,10.1818,10.1991,10.1587,10.202,10.151,10.1279,10.1279,10.1279,10.1279,10.1279,10.1279,10.1279,10.127,10.1117,10.0728,10.0114,9.9113,9.8574,9.8458,9.8311,9.8398,9.8711,9.8242,9.8164,9.8398,9.7929,9.7695,9.7617,9.6875,9.6484,9.6211,9.4765,9.3437,9.2695,9.2578,9.2578,9.2578,9.2578,9.2187,9.1328,9.1328,9.0547,8.9179,8.8984,8.8984,8.8945,8.8633,8.8437,8.8437,8.8086,8.7929,8.7929,8.8242,8.8594,8.8984,9.0273,9.1172,9.1562,9.2539,9.3398,9.4101,9.4609,9.5195,9.5937,9.6914,9.7617,9.7969,9.8437,9.875,9.8789,9.8906,9.9179,9.9687,10.0078,10.0312,10.0312,10.0312,10.0312,10.0312,10.0742,10.1054,10.1094,10.1523,10.1914,10.2265,10.2383,10.2539,10.2851,10.289,10.289,10.289,10.289,10.289,10.289,10.289,10.289,10.289,10.2888,10.2796,10.2649,10.2572,10.2521,10.2383,10.239,10.239,10.2355,10.2322,10.2212,10.2031,10.1957,10.1864,10.1669,10.1599,10.1599,10.1599,10.1869,10.1907,10.202,10.2443,10.1904,10.1635,10.1635,10.1394,10.1279,10.1279,10.1279,10.1279,10.1279,10.1279,10.1122,10.0775,10.0388,10.0427,10.067,10.0877,10.1015,10.0937,10.0117,9.957,9.9297,9.8476,9.7929,9.7656,9.7148,9.6719,9.6406,9.5312,9.4179,9.3437,9.332,9.332,9.332,9.332,9.3008,9.2461,9.2383,9.207,9.1523,9.1445,9.0976,9.0117,9.0,9.0,9.0,9.0,9.0,9.0,9.0234,9.0351,9.0429,9.2031,9.3047,9.3359,9.4492,9.5312,9.5547,9.6133,9.6719,9.7226,9.8398,9.9101,9.9414,9.9922,10.039,10.0586,10.0078,10.0078,10.0508,10.0859,10.1015,10.1015,10.1015,10.1015,10.1094,10.1601,10.1953,10.2031,10.2422,10.289,10.289,10.2851,10.289,10.289,10.289,10.289,10.289,10.289,10.289,10.289,10.289,10.289,10.289,10.289,10.2845,10.2799,10.2746,10.2655,10.2509,10.2466,10.2425,10.2199,10.2421,10.2504,10.2322,10.2202,10.2127,10.1931,10.1888,10.1888,10.187,10.205,10.2128,10.2558,10.2635,10.2558,10.252,10.2481,10.1712,10.1356,10.1471,10.1356,10.1317,10.1356,10.1317,10.1404,10.1521,10.164,10.2031,10.2347,10.2443,10.2568,10.2535,10.1757,10.1015,10.0234,9.9336,9.8515,9.7851,9.7617,9.7187,9.6523,9.6367,9.5937,9.5078,9.4922,9.5,9.4922,9.4883,9.5,9.4726,9.4726,9.4844,9.4804,9.4804,9.3242,9.0625,9.0117,9.0273,9.0195,9.0078,9.0117,9.0078,9.0937,9.1328,9.1445,9.2929,9.4258,9.5,9.5234,9.5664,9.6367,9.6679,9.7265,9.8554,9.9023,9.9414,10.0156,10.0429,10.0859,10.1484,10.1445,10.1445,10.1562,10.2109,10.2539,10.2617,10.2695,10.2656,10.2695,10.2617,10.2812,10.2773,10.2851,10.289,10.289,10.289,10.289,10.289,10.289,10.289,10.289,10.289,10.289,10.289,10.289,10.289,10.289,10.289,10.289,10.2851,10.2773,10.2617,10.2344,10.2109,10.2109,10.2145,10.248,10.2603,10.2519,10.2407,10.2304,10.2173,10.2114,10.2104,10.2127,10.2848,10.2843,10.3443,10.3443,10.3443,10.3443,10.3328,10.252,10.2443,10.2904,10.2366,10.2135,10.202,10.1548,10.1404,10.1552,10.1742,10.2009,10.2328,10.2527,10.2651,10.2676,10.1951,10.1445,10.1015,9.9687,9.8867,9.8515,9.7969,9.7304,9.6562,9.6484,9.6054,9.5351,9.5195,9.5195,9.5195,9.5195,9.5195,9.5195,9.5195,9.5195,9.5234,9.5195,9.4531,9.3437,9.332,9.332,9.332,9.332,9.332,9.332,9.3633,9.3789,9.3906,9.4922,9.5937,9.6719,9.7304,9.7773,9.8086,9.8633,9.9179,9.9765,10.0351,10.0742,10.1133,10.164,10.2109,10.2344,10.2422,10.2422,10.2461,10.2734,10.289,10.289,10.289,10.289,10.289,10.289,10.289,10.289,10.289,10.289,10.289,10.289,10.289,10.289,10.289,10.289,10.289,10.289,10.289,10.289,10.289,10.289,10.289,10.289,10.289,10.289,10.2812,10.2422,10.207,10.2304,10.2383,10.164,10.2028,10.2527,10.2372,10.2409,10.2308,10.2446,10.2373,10.2224,10.2401,10.2724,10.272,10.4443,10.4636,10.4405,10.4299,10.4222,10.3405,10.3328,10.3828,10.3251,10.2866,10.252,10.1981,10.1635,10.1481,10.1532,10.1726,10.2048,10.2335,10.2538,10.2636,10.2215,10.1834,10.1445,10.039,9.9687,9.9375,9.8828,9.8242,9.7734,9.7461,9.6992,9.6484,9.6172,9.6015,9.6015,9.6015,9.6015,9.6015,9.6015,9.6015,9.6015,9.6015,9.6015,9.5976,9.6015,9.5742,9.5234,9.5195,9.5195,9.5195,9.5195,9.5312,9.5625,9.6172,9.6992,9.8008,9.8633,9.914,9.9414,9.9961,10.039,10.0703,10.125,10.1679,10.1992,10.2578,10.2851,10.289,10.289,10.289,10.2969,10.3125,10.3203,10.3008,10.289,10.289,10.289,10.289,10.289,10.289,10.289,10.289,10.289,10.289,10.289,10.289,10.289,10.289,10.289,10.289,10.289,10.289,10.289,10.289,10.289,10.289,10.289,10.289,10.289,10.2422,10.1914,10.2265,10.2187,10.1445,10.1406,10.1953,10.2265,10.2304,10.2461,10.2617,10.2361,10.2056,10.2246,10.2359,10.2461,10.5597,10.6097,10.5443,10.5069,10.4982,10.4261,10.3905,10.4059,10.3953,10.352,10.2943,10.2597,10.2097,10.1491,10.1404,10.1432,10.1685,10.2105,10.2425,10.2548,10.2651,10.2332,10.1675,10.1445,10.0898,10.0195,10.0234,10.0195,9.9961,9.9219,9.8828,9.8711,9.7929,9.75,9.7617,9.7461,9.7539,9.7461,9.7422,9.75,9.7656,9.75,9.7461,9.7539,9.75,9.6836,9.539,9.5351,9.5469,9.5469,9.5469,9.5703,9.6601,9.6836,9.7383,9.875,9.9062,9.9492,10.0195,10.0508,10.1094,10.164,10.1758,10.2344,10.3008,10.3047,10.3047,10.3086,10.2969,10.2929,10.3086,10.3633,10.3789,10.3125,10.3164,10.3242,10.3125,10.3008,10.2969,10.3086,10.3203,10.2969,10.2969,10.3203,10.3281,10.3125,10.3086,10.3008,10.2929,10.289,10.289,10.289,10.289,10.289,10.289,10.289,10.289,10.289,10.2851,10.2578,10.1758,10.1679,10.1679,10.1133,10.1367,10.1914,10.2304,10.2383,10.2461,10.2539,10.2187,10.2109,10.2383,10.2578,10.25,10.6174,10.628,10.5482,10.5443,10.5828,10.5059,10.502,10.552,10.4982,10.4559,10.4135,10.3097,10.2443,10.2097,10.1587,10.1395,10.1552,10.1819,10.2066,10.2322,10.2488,10.2532,10.2285,10.1834,10.1133,10.0429,10.0312,10.0312,10.0273,10.0039,9.9609,9.9023,9.875,9.8281,9.7812,9.7695,9.7695,9.7695,9.7695,9.7695,9.7695,9.7695,9.7695,9.7695,9.7695,9.7422,9.6953,9.6914,9.7226,9.7734,9.7812,9.8203,9.8906,9.9101,9.9375,9.9844,10.0469,10.0859,10.1289,10.2304,10.3008,10.3437,10.3906,10.4336,10.4531,10.4101,10.3828,10.3711,10.3281,10.3086,10.3672,10.4023,10.4101,10.3828,10.4297,10.4609,10.4531,10.4609,10.4687,10.4687,10.4687,10.4687,10.4648,10.4648,10.4297,10.3789,10.375,10.3594,10.3047,10.289,10.289,10.289,10.289,10.289,10.289,10.289,10.289,10.289,10.2851,10.2578,10.1758,10.1367,10.125,10.1094,10.1367,10.1719,10.2148,10.2383,10.2422,10.2617,10.2539,10.2617,10.2812,10.2734,10.25,10.6395,10.6318,10.579,10.5905,10.6318,10.579,10.5905,10.629,10.5828,10.5405,10.4905,10.402,10.3366,10.302,10.2481,10.2136,10.1933,10.2015,10.2051,10.2091,10.234,10.2558,10.2654,10.23,10.1836,10.1367,10.1289,10.1289,10.125,10.0937,10.0508,10.0039,9.9648,9.9258,9.8711,9.8672,9.8672,9.8672,9.8711,9.8672,9.8672,9.8672,9.8672,9.8672,9.8672,9.8672,9.8672,9.8633,9.875,9.9023,9.9258,9.9765,10.0273,10.0273,10.0429,10.0859,10.1289,10.1836,10.2539,10.3515,10.4375,10.4726,10.5195,10.5469,10.539,10.4922,10.4726,10.457,10.4258,10.4101,10.4609,10.5,10.5117,10.5117,10.5273,10.5508,10.5508,10.5508,10.5469,10.539,10.5429,10.5508,10.5508,10.5469,10.5156,10.4414,10.4179,10.3906,10.3203,10.2929,10.289,10.289,10.289,10.289,10.289,10.289,10.289,10.289,10.289,10.2422,10.1758,10.1679,10.164,10.0976,10.0937,10.1328,10.1719,10.2031,10.2187,10.2461,10.2773,10.2617,10.2539,10.2344,10.2226,10.6395,10.6395,10.6395,10.6356,10.6395,10.6318,10.6318,10.6395,10.6356,10.5905,10.529,10.4943,10.4569,10.4059,10.3712,10.3261,10.2799,10.2511,10.2369,10.2163,10.2265,10.2476,10.2694,10.2731,10.2656,10.2695,10.2695,10.2734,10.2578,10.1992,10.164,10.1328,10.0664,10.0273,10.0078,10.0234,10.0117,10.0039,10.0117,10.0117,10.0117,10.0156,10.0156,10.0156,10.0117,10.0078,10.0039,10.0117,9.9922,9.9414,10.0117,10.0625,10.0547,10.0508,10.1133,10.1836,10.1836,10.2773,10.3867,10.4453,10.4844,10.5508,10.5742,10.5625,10.5859,10.5742,10.5547,10.5547,10.5351,10.539,10.5625,10.6054,10.6484,10.664,10.6289,10.5937,10.5703,10.5781,10.5898,10.5703,10.5586,10.5547,10.5547,10.5508,10.5078,10.4453,10.4179,10.3789,10.3203,10.289,10.289,10.289,10.289,10.289,10.289,10.289,10.289,10.289,10.289,10.2539,10.2109,10.2109,10.2109,10.1406,10.0976,10.1211,10.1523,10.2031,10.2344,10.2656,10.2656,10.2344,10.2265,10.2265,10.2344,10.6395,10.6395,10.6395,10.6395,10.6395,10.6395,10.6395,10.6395,10.6395,10.6251,10.5944,10.5366,10.503,10.4751,10.4174,10.3751,10.3482,10.2943,10.2738,10.2671,10.2301,10.2473,10.2759,10.289,10.289,10.289,10.289,10.289,10.289,10.2617,10.2226,10.1601,10.1406,10.0937,10.0429,10.039,10.0312,10.0312,10.0312,10.0351,10.039,10.039,10.0312,10.0312,10.0351,10.039,10.039,10.0937,10.1172,10.1054,10.1758,10.2226,10.2187,10.2695,10.3086,10.3437,10.4062,10.457,10.5117,10.5664,10.6093,10.6406,10.6875,10.7344,10.7304,10.6719,10.6445,10.6289,10.5937,10.5781,10.6289,10.6601,10.6992,10.7539,10.7304,10.7187,10.7226,10.7344,10.7148,10.6523,10.6367,10.6054,10.5664,10.5469,10.5156,10.4453,10.414,10.3906,10.3203,10.289,10.289,10.289,10.289,10.289,10.289,10.289,10.289,10.289,10.289,10.2851,10.2656,10.2617,10.2617,10.2344,10.2031,10.2109,10.2344,10.2695,10.2851,10.289,10.2812,10.2617,10.2695,10.2695,10.2695,10.6395,10.6395,10.6395,10.6395,10.6395,10.6395,10.6395,10.6395,10.6395,10.6395,10.629,10.5905,10.5674,10.5597,10.5174,10.4713,10.4366,10.3905,10.3673,10.3584,10.3543,10.329,10.3047,10.289,10.289,10.289,10.289,10.289,10.289,10.289,10.2617,10.2265,10.2148,10.1875,10.1523,10.1406,10.1367,10.1406,10.1367,10.1406,10.1406,10.1406,10.1406,10.1406,10.1406,10.1523,10.1953,10.2773,10.2969,10.2461,10.2617,10.3047,10.3437,10.3906,10.4375,10.4687,10.5234,10.5586,10.6015,10.6445,10.6875,10.7226,10.7773,10.7929,10.789,10.75,10.7226,10.7187,10.6758,10.6836,10.7109,10.7265,10.75,10.7851,10.8008,10.8008,10.8008,10.7929,10.7578,10.6992,10.664,10.6406,10.5586,10.5469,10.5039,10.4492,10.4179,10.3711,10.3125,10.3008,10.289,10.289,10.289,10.289,10.289,10.289,10.289,10.289,10.289,10.289,10.289,10.289,10.2851,10.2812,10.2851,10.289,10.289,10.289,10.289,10.289,10.289,10.289,10.289,10.289,10.289,10.6395,10.6395,10.6395,10.6395,10.6395,10.6395,10.6395,10.6395,10.6395,10.6395,10.6356,10.6395,10.628,10.6395,10.6087,10.5905,10.5213,10.4943,10.4681,10.4562,10.4557,10.4375,10.3515,10.3242,10.3203,10.3125,10.3008,10.289,10.289,10.289,10.289,10.2773,10.2812,10.2851,10.2617,10.2734,10.2851,10.2695,10.2617,10.2578,10.2578,10.2578,10.2539,10.2578,10.2851,10.3281,10.4062,10.4765,10.4687,10.3242,10.3164,10.3672,10.4297,10.4375,10.4844,10.5508,10.5859,10.625,10.6719,10.6914,10.7148,10.7773,10.7929,10.8008,10.7969,10.789,10.7851,10.7812,10.8008,10.7812,10.7851,10.7969,10.7929,10.8008,10.8008,10.8008,10.8008,10.8008,10.7656,10.6758,10.6562,10.6172,10.5547,10.5195,10.4883,10.3906,10.375,10.3476,10.3086,10.2969,10.289,10.289,10.289,10.289,10.289,10.289,10.289,10.289,10.289,10.289,10.289,10.289,10.289,10.289,10.289,10.289,10.289,10.289,10.289,10.289,10.289,10.289,10.289,10.289,10.289,10.6395,10.6395,10.6395,10.6395,10.6395,10.6395,10.6395,10.6395,10.6395,10.6395,10.6395,10.6395,10.6395,10.6395,10.6395,10.628,10.5944,10.5455,10.4889,10.4629,10.4873,10.5077,10.4669,10.4294,10.3945,10.375,10.3164,10.2929,10.289,10.289,10.289,10.289,10.289,10.289,10.289,10.289,10.289,10.289,10.289,10.289,10.2929,10.2969,10.3008,10.3086,10.3672,10.4375,10.5039,10.539,10.5312,10.5039,10.4961,10.5078,10.5273,10.5742,10.6133,10.6484,10.707,10.7461,10.7656,10.7656,10.7773,10.7929,10.8086,10.8008,10.8008,10.8125,10.8086,10.8008,10.8008,10.8164,10.8125,10.8047,10.8047,10.8047,10.8008,10.8008,10.8008,10.8008,10.7383,10.6328,10.5859,10.5234,10.3867,10.3867,10.3633,10.3242,10.3242,10.3164,10.3125,10.3164,10.3281,10.3476,10.3476,10.3554,10.3554,10.3554,10.3554,10.3554,10.3476,10.3437,10.3398,10.3203,10.3359,10.3164,10.289,10.289,10.289,10.289,10.289,10.289,10.289,10.289,10.289,10.289,10.289,10.6395,10.6395,10.6395,10.6395,10.6395,10.6395,10.6395,10.6395,10.6395,10.6395,10.6395,10.6395,10.6395,10.6395,10.6395,10.6395,10.631,10.6064,10.5799,10.5746,10.5988,10.6228,10.6228,10.5647,10.5039,10.4297,10.3789,10.3359,10.3008,10.2969,10.289,10.289,10.2929,10.289,10.289,10.2969,10.289,10.289,10.289,10.289,10.2929,10.332,10.3789,10.4179,10.4922,10.5625,10.6015,10.6484,10.664,10.6679,10.664,10.6445,10.6172,10.6445,10.6836,10.7344,10.7656,10.8008,10.8008,10.8008,10.7969,10.8047,10.8359,10.8554,10.875,10.8945,10.9218,10.9218,10.9218,10.9101,10.8672,10.8593,10.8476,10.8047,10.8008,10.8008,10.8008,10.8008,10.7539,10.6406,10.6133,10.5508,10.4648,10.3984,10.4062,10.4414,10.4453,10.4375,10.4453,10.4453,10.4375,10.4414,10.4336,10.4297,10.4297,10.4336,10.4453,10.4492,10.4531,10.4531,10.4531,10.4219,10.3906,10.3594,10.3242,10.2929,10.289,10.289,10.3047,10.2969,10.2969,10.2929,10.2969,10.3086,10.3008,10.6395,10.6395,10.6395,10.6395,10.6395,10.6395,10.6395,10.6395,10.6395,10.6395,10.6395,10.6395,10.6395,10.6395,10.6395,10.6395,10.6407,10.6517,10.6465,10.6565,10.6867,10.709,10.7172,10.678,10.6054,10.4687,10.4453,10.4023,10.3594,10.332,10.3633,10.3398,10.3398,10.3594,10.3437,10.3359,10.3515,10.3594,10.3594,10.3554,10.3554,10.4101,10.4765,10.5547,10.6054,10.6601,10.6953,10.7422,10.789,10.8008,10.8008,10.7617,10.7148,10.6953,10.7148,10.7929,10.7969,10.8008,10.8008,10.8008,10.8047,10.8164,10.8828,10.9336,10.957,10.9961,11.0234,11.0312,11.0195,10.9804,10.9375,10.8906,10.8593,10.8203,10.8008,10.8008,10.8008,10.8008,10.7539,10.6836,10.6445,10.5937,10.5547,10.5039,10.5312,10.5547,10.5547,10.5547,10.5586,10.5508,10.5273,10.5078,10.4922,10.4844,10.4844,10.4922,10.5039,10.5195,10.5351,10.5351,10.5351,10.4961,10.4531,10.3984,10.3633,10.3476,10.3554,10.3828,10.3789,10.332,10.3437,10.3867,10.3711,10.3359,10.3359,10.6395,10.6395,10.6395,10.6395,10.6395,10.6395,10.6395,10.6395,10.6395,10.6395,10.6395,10.6395,10.6395,10.6395,10.6395,10.6395,10.6436,10.6507,10.6582,10.6735,10.7055,10.731,10.7487,10.7522,10.7004,10.6328,10.5703,10.5234,10.4961,10.5078,10.4765,10.4961,10.4922,10.4922,10.4883,10.5039,10.4804,10.4726,10.4765,10.4765,10.4883,10.5156,10.5664,10.6406,10.6758,10.7109,10.7617,10.7851,10.8008,10.8008,10.8008,10.7929,10.7734,10.7695,10.7812,10.7969,10.8125,10.8164,10.8164,10.8125,10.8437,10.8906,10.9375,10.9804,11.0234,11.0547,11.0859,11.0586,11.0156,10.957,10.9336,10.8867,10.8281,10.8047,10.8008,10.8008,10.8008,10.7929,10.7695,10.7031,10.6758,10.6601,10.6328,10.6054,10.6093,10.6133,10.6133,10.6093,10.6054,10.5937,10.5703,10.5547,10.539,10.539,10.539,10.5469,10.5586,10.5742,10.5859,10.5859,10.5781,10.5547,10.5156,10.5078,10.4883,10.4765,10.4804,10.4804,10.4726,10.4453,10.4726,10.4961,10.4648,10.4375,10.4609,10.6395,10.6395,10.6395,10.6395,10.6395,10.6395,10.6395,10.6395,10.6395,10.6395,10.6395,10.6395,10.6395,10.6395,10.6395,10.6395,10.6415,10.6446,10.6468,10.6601,10.6873,10.7139,10.7434,10.7658,10.7655,10.7304,10.6953,10.625,10.5586,10.5469,10.5586,10.5469,10.5508,10.5508,10.5508,10.5429,10.5547,10.5547,10.5547,10.5547,10.5625,10.5898,10.6562,10.7109,10.7344,10.7578,10.7851,10.8008,10.8008,10.8008,10.8008,10.8008,10.8047,10.8047,10.8047,10.8125,10.8398,10.8672,10.8789,10.9023,10.9609,10.9922,11.0312,11.0781,11.1289,11.164,11.164,11.125,11.1015,11.0234,10.9414,10.8867,10.8515,10.8086,10.8008,10.8008,10.8008,10.8008,10.7695,10.7344,10.7383,10.7304,10.7187,10.6992,10.6875,10.6797,10.6758,10.6679,10.6601,10.6562,10.6445,10.6484,10.6484,10.6445,10.6406,10.6406,10.6367,10.6445,10.6484,10.6484,10.6562,10.6523,10.6679,10.6797,10.6523,10.5898,10.5469,10.5234,10.5429,10.5586,10.5508,10.5469,10.5469,10.5469,10.5703,10.6126,10.6174,10.6318,10.6395,10.6395,10.6395,10.6395,10.6395,10.6395,10.6395,10.6395,10.6395,10.6395,10.6395,10.6395,10.6395,10.6395,10.6405,10.6415,10.6477,10.6783,10.6991,10.727,10.7526,10.7734,10.7851,10.7812,10.7304,10.6484,10.6211,10.6054,10.6211,10.6093,10.6015,10.6133,10.6289,10.6015,10.6015,10.5976,10.5976,10.6172,10.664,10.7265,10.789,10.8008,10.7969,10.8008,10.8008,10.8008,10.8086,10.8203,10.8281,10.8281,10.8437,10.8515,10.8593,10.9062,10.9297,10.9726,11.0039,11.0468,11.082,11.1484,11.1875,11.2226,11.2539,11.2695,11.2109,11.1523,11.0859,10.9531,10.9101,10.8672,10.8242,10.8008,10.8008,10.8008,10.8008,10.8008,10.789,10.8008,10.789,10.7656,10.7617,10.7422,10.7422,10.7383,10.7422,10.7383,10.75,10.75,10.7656,10.7695,10.7695,10.7617,10.75,10.7422,10.7344,10.7383,10.7383,10.7578,10.7734,10.7773,10.7617,10.7187,10.6523,10.6093,10.5976,10.6367,10.6523,10.6172,10.6133,10.6445,10.6523,10.6562,10.5251,10.5328,10.6087,10.6395,10.6395,10.6395,10.6395,10.6395,10.6395,10.6395,10.6395,10.6395,10.6395,10.6395,10.6395,10.6395,10.6395,10.6395,10.6395,10.6427,10.6718,10.6984,10.7241,10.7558,10.7792,10.7969,10.8008,10.7929,10.7461,10.7461,10.7578,10.75,10.7422,10.7617,10.7344,10.7304,10.7734,10.7656,10.7617,10.7578,10.7578,10.7695,10.7851,10.7969,10.8008,10.8008,10.8008,10.8008,10.8047,10.8164,10.8789,10.9101,10.9258,10.9922,11.0234,11.0078,10.9843,10.9648,11.0312,11.0781,11.1172,11.1601,11.1953,11.2343,11.2734,11.2929,11.2812,11.1953,11.1289,11.0351,10.9297,10.8593,10.8203,10.8086,10.8008,10.8008,10.8008,10.8008,10.8008,10.8008,10.8008,10.8008,10.789,10.7929,10.7969,10.8008,10.8008,10.8008,10.8008,10.8008,10.8008,10.8008,10.8008,10.8008,10.8008,10.8008,10.8008,10.8008,10.8008,10.8008,10.8008,10.8008,10.8008,10.7773,10.7422,10.7344,10.7148,10.7187,10.7539,10.7422,10.707,10.7304,10.7734,10.7656,10.7344,10.4251,10.5146,10.552,10.5944,10.6356,10.6395,10.6395,10.6395,10.6395,10.6395,10.6395,10.6395,10.6395,10.6395,10.6395,10.6395,10.6395,10.6395,10.6395,10.6448,10.6718,10.6984,10.7231,10.7526,10.7792,10.7969,10.8008,10.8008,10.8008,10.8008,10.8008,10.8008,10.8008,10.7929,10.8008,10.8008,10.7969,10.7969,10.7969,10.8008,10.8008,10.8008,10.8008,10.8047,10.8047,10.8086,10.8086,10.8008,10.8281,10.8593,10.9179,10.957,10.9961,11.039,11.0742,11.1289,11.1015,11.1015,11.1328,11.1758,11.2148,11.2422,11.2617,11.2851,11.3125,11.3125,11.2578,11.125,11.0859,11.0039,10.8984,10.8242,10.8086,10.8047,10.8281,10.8203,10.8203,10.8008,10.8008,10.8008,10.8086,10.8281,10.8359,10.8359,10.8242,10.8008,10.8008,10.8008,10.8008,10.8008,10.8008,10.8008,10.8008,10.8008,10.8008,10.8008,10.8008,10.8008,10.8008,10.8008,10.8008,10.8008,10.8008,10.8008,10.7812,10.7812,10.8008,10.7929,10.7812,10.789,10.8008,10.8008,10.8008,10.7969,10.7734,10.3135,10.4482,10.4953,10.5482,10.6097,10.628,10.6395,10.6395,10.6395,10.6395,10.6395,10.6395,10.6395,10.6395,10.6395,10.6395,10.6395,10.6395,10.6395,10.6497,10.67,10.6987,10.721,10.7527,10.7809,10.8007,10.8008,10.8008,10.8008,10.8008,10.8008,10.8008,10.8008,10.8008,10.8008,10.8008,10.8008,10.8008,10.8008,10.8008,10.8047,10.8281,10.8359,10.8437,10.8515,10.8633,10.8633,10.8711,10.914,10.9492,11.0,11.0468,11.0898,11.1328,11.1679,11.2109,11.2109,11.2148,11.2343,11.2656,11.3125,11.3203,11.3203,11.3086,11.3164,11.3164,11.2695,11.125,11.1093,11.0195,10.9101,10.8789,10.8867,10.8906,10.8867,10.8711,10.8633,10.8789,10.8945,10.914,10.9179,10.8984,10.9023,10.8867,10.8554,10.8125,10.8008,10.8047,10.8125,10.8203,10.8125,10.8164,10.8125,10.8125,10.8086,10.8047,10.8047,10.8047,10.8047,10.8008,10.8008,10.8008,10.8008,10.8008,10.8008,10.8008,10.8008,10.8008,10.8008,10.8008,10.8008,10.8008,10.8008,10.8008,10.8008,10.1943,10.2904,10.4405,10.5097,10.5251,10.6059,10.6356,10.628,10.6318,10.6367,10.6395,10.6395,10.6395,10.6395,10.6395,10.6395,10.6395,10.6395,10.6395,10.6467,10.6667,10.6913,10.7138,10.7436,10.7746,10.7944,10.7961,10.8006,10.8008,10.8008,10.8008,10.8008,10.8047,10.8047,10.8008,10.8008,10.8008,10.8008,10.8008,10.8008,10.8242,10.8593,10.9062,10.9297,10.9883,11.039,11.039,11.0195,11.0273,11.0508,11.1015,11.1484,11.1836,11.2304,11.2695,11.2812,11.289,11.289,11.3008,11.3047,11.3125,11.3203,11.3203,11.3203,11.3203,11.3203,11.2656,11.1836,11.1562,11.1172,11.0547,11.039,11.0,10.9883,10.9726,10.9765,10.9765,10.9922,11.0117,11.0351,11.0234,10.9843,10.9804,10.9648,10.9375,10.8945,10.8789,10.8828,10.8633,10.8633,10.8437,10.8359,10.8281,10.8242,10.8203,10.8242,10.8398,10.8281,10.8164,10.8086,10.8008,10.8008,10.8008,10.8008,10.8008,10.8008,10.8008,10.8008,10.8008,10.8008,10.8008,10.8008,10.8008,10.8008,10.8008,10.151,10.1933,10.3097,10.3866,10.4376,10.4713,10.5136,10.5559,10.5597,10.5944,10.6395,10.6395,10.6395,10.6395,10.6395,10.6395,10.6395,10.6395,10.6395,10.6438,10.6611,10.6816,10.7012,10.7249,10.7527,10.7731,10.7858,10.7961,10.8008,10.8008,10.8437,10.8515,10.8281,10.8047,10.8008,10.8164,10.8125,10.8086,10.8047,10.8008,10.8164,10.8789,10.9297,10.9375,11.0156,11.0547,11.0547,11.0586,11.0898,11.1367,11.1758,11.2148,11.2539,11.3008,11.3164,11.3203,11.3203,11.3203,11.3203,11.3203,11.3203,11.3203,11.3203,11.3203,11.3203,11.3203,11.2734,11.2226,11.1953,11.164,11.082,11.0586,11.0468,11.0586,11.0664,11.0781,11.0859,11.0976,11.0976,11.1054,11.0781,11.039,11.0429,11.0468,11.0156,10.9843,10.9687,10.9531,10.9375,10.9297,10.9179,10.914,10.9101,10.9218,10.9218,10.9023,10.8828,10.8633,10.8476,10.8437,10.8437,10.8008,10.8008,10.8008,10.8164,10.8281,10.8281,10.8086,10.8008,10.8047,10.8047,10.8008,10.8008,10.8008,10.8008,10.1279,10.1356,10.1981,10.2712,10.3482,10.3789,10.4328,10.503,10.5146,10.5597,10.6395,10.6395,10.6395,10.6395,10.6395,10.6395,10.6395,10.6395,10.6395,10.6476,10.6565,10.6709,10.6851,10.7094,10.7368,10.7551,10.7717,10.7884,10.7958,10.7962,10.8437,10.8789,10.8711,10.8593,10.8906,10.8789,10.875,10.8789,10.8789,10.8789,10.8945,10.9687,11.0156,11.0312,11.1093,11.1523,11.1601,11.164,11.1797,11.2148,11.2422,11.2617,11.2968,11.3203,11.3203,11.3203,11.3203,11.3203,11.3203,11.3203,11.3203,11.3203,11.3203,11.3203,11.3203,11.3203,11.2851,11.2539,11.2304,11.1992,11.1328,11.1562,11.164,11.1836,11.1797,11.1836,11.1797,11.1836,11.1758,11.1718,11.1523,11.1562,11.1601,11.164,11.1015,11.0586,11.0195,11.0117,11.0117,11.0117,11.0195,11.0195,11.0195,11.0351,11.0508,11.0078,10.9687,10.9648,10.9453,10.9258,10.9062,10.8672,10.8711,10.914,10.9179,10.8867,10.8906,10.914,10.8672,10.8086,10.8125,10.8203,10.8008,10.8008,10.8008,10.1279,10.1279,10.1356,10.1866,10.2674,10.352,10.4251,10.4828,10.5069,10.552,10.6241,10.6318,10.6395,10.6395,10.6395,10.6395,10.6395,10.6395,10.6395,10.6436,10.6477,10.6573,10.6731,10.6959,10.7171,10.7486,10.7718,10.7922,10.7974,10.8202,10.8636,10.9158,10.9368,10.9609,11.0429,11.0508,11.0508,11.0508,11.0351,11.0273,11.039,11.1015,11.1367,11.1601,11.2226,11.2617,11.2617,11.2617,11.2734,11.2851,11.2929,11.3047,11.3164,11.3203,11.3203,11.3203,11.3203,11.3203,11.3203,11.3203,11.3203,11.3203,11.3203,11.3203,11.3203,11.3164,11.3164,11.2851,11.2968,11.3008,11.3008,11.2968,11.2812,11.2734,11.2695,11.2656,11.2578,11.2539,11.2422,11.2343,11.2773,11.3086,11.3047,11.2851,11.2031,11.1406,11.0781,11.0664,11.0898,11.1093,11.1289,11.1328,11.1367,11.1367,11.1367,11.0898,11.0586,11.0547,11.0312,11.0,10.9961,10.9883,11.0039,11.0351,11.0117,10.9726,11.0039,11.0468,10.9726,10.8945,10.8515,10.8437,10.8203,10.8242,10.8554,10.1279,10.1279,10.1279,10.1433,10.1779,10.202,10.2674,10.3558,10.4559,10.529,10.5636,10.6097,10.6395,10.6395,10.6395,10.6395,10.6395,10.6395,10.6395,10.6405,10.6417,10.6438,10.6565,10.6735,10.6905,10.7209,10.7614,10.8074,10.8321,10.8489,10.9069,10.9635,11.0113,11.0626,11.0625,11.0586,11.0586,11.0586,11.0586,11.0586,11.0742,11.1484,11.1953,11.1992,11.2812,11.3164,11.3203,11.3203,11.3203,11.3203,11.3203,11.3203,11.3203,11.3203,11.3203,11.3203,11.3203,11.3203,11.3203,11.3203,11.3203,11.3203,11.3203,11.3203,11.3203,11.3203,11.3203,11.3203,11.3203,11.3203,11.3164,11.3125,11.3047,11.3047,11.3008,11.3047,11.3008,11.3008,11.2968,11.2929,11.3164,11.3203,11.3203,11.3203,11.2578,11.2422,11.1953,11.1992,11.2187,11.2383,11.2539,11.2539,11.2578,11.2461,11.2265,11.1758,11.1484,11.1445,11.1015,11.0429,11.0508,11.0898,11.082,11.0859,11.0703,11.0625,11.0898,11.1015,11.0508,10.9922,10.9765,10.9531,10.9414,10.957,10.9883,10.1279,10.1279,10.1279,10.1279,10.1279,10.1279,10.1789,10.2828,10.4328,10.5107,10.529,10.602,10.6395,10.6395,10.6395,10.6395,10.6395,10.6395,10.6395,10.6395,10.6395,10.6415,10.6476,10.6546,10.6688,10.6942,10.7408,10.7928,10.8325,10.8597,10.891,10.948,11.0727,11.1052,11.113,11.1289,11.164,11.1718,11.1758,11.1679,11.1797,11.2109,11.2383,11.2539,11.289,11.3203,11.3203,11.3203,11.3203,11.3203,11.3203,11.3203,11.3203,11.3203,11.3203,11.3203,11.3203,11.3203,11.3203,11.3203,11.3203,11.3203,11.3203,11.3203,11.3203,11.3203,11.3203,11.3203,11.3203,11.3203,11.3203,11.3203,11.3203,11.3203,11.3203,11.3203,11.3203,11.3203,11.3203,11.3203,11.3203,11.3203,11.3203,11.3203,11.3008,11.3047,11.3125,11.3203,11.3203,11.3203,11.3203,11.3164,11.3125,11.2929,11.2773,11.2617,11.2383,11.2343,11.1836,11.1289,11.1562,11.2031,11.1718,11.1484,11.1679,11.1797,11.1679,11.1523,11.1445,11.1484,11.1523,11.1211,11.0781,11.0703,11.0859,10.1279,10.1279,10.1279,10.1279,10.1279,10.1279,10.175,10.2635,10.4212,10.4915,10.4992,10.5751,10.601,10.6164,10.6241,10.6241,10.6318,10.6318,10.6395,10.6395,10.6395,10.6395,10.6387,10.6477,10.6583,10.6691,10.7083,10.7716,10.812,10.795,10.8077,10.8828,11.0083,11.081,11.1383,11.1992,11.25,11.2578,11.2695,11.2656,11.2734,11.2929,11.2968,11.3047,11.3125,11.3203,11.3203,11.3203,11.3203,11.3203,11.3203,11.3203,11.3203,11.3203,11.3203,11.3203,11.3203,11.3203,11.3203,11.3203,11.3203,11.3203,11.3203,11.3203,11.3203,11.3203,11.3203,11.3203,11.3203,11.3203,11.3203,11.3203,11.3203,11.3203,11.3203,11.3203,11.3203,11.3203,11.3203,11.3203,11.3203,11.3203,11.3203,11.3203,11.3203,11.3203,11.3203,11.3203,11.3203,11.3203,11.3203,11.3203,11.3164,11.3164,11.3086,11.2968,11.2929,11.2734,11.2851,11.2539,11.289,11.2851,11.2578,11.2461,11.289,11.2929,11.2539,11.2578,11.2812,11.2851,11.2539,11.2265,11.164,11.1367,11.1328,10.1279,10.1279,10.1279,10.1279,10.1279,10.1279,10.1471,10.1818,10.2866,10.3328,10.3366,10.4251,10.4789,10.4636,10.5174,10.5443,10.5713,10.6059,10.6318,10.6395,10.6395,10.6395,10.6415,10.6407,10.6457,10.669,10.7066,10.748,10.7798,10.7508,10.8004,10.9059,10.9177,10.9984,11.0926,11.1788,11.2381,11.2885,11.2967,11.3047,11.3047,11.3008,11.3047,11.3047,11.3086,11.3086,11.3164,11.3203,11.3203,11.3203,11.3203,11.3203,11.3203,11.3203,11.3203,11.3203,11.3203,11.3203,11.3203,11.3203,11.3203,11.3203,11.3203,11.3203,11.3203,11.3203,11.3203,11.3203,11.3203,11.3203,11.3203,11.3203,11.3203,11.3203,11.3203,11.3203,11.3203,11.3203,11.3203,11.3203,11.3203,11.3203,11.3203,11.3203,11.3203,11.3203,11.3203,11.3203,11.3203,11.3203,11.3203,11.3203,11.3203,11.3203,11.3203,11.3086,11.3125,11.3164,11.3203,11.3203,11.3125,11.3086,11.3164,11.3203,11.3203,11.3203,11.3086,11.3203,11.3203,11.3203,11.2968,11.2773,11.2578,11.2226,11.207,10.1279,10.1279,10.1279,10.1279,10.1279,10.1279,10.1279,10.1471,10.2212,10.2597,10.2712,10.3558,10.3905,10.4097,10.4751,10.5174,10.5213,10.602,10.6395,10.6395,10.6395,10.6395,10.6395,10.6395,10.6415,10.6626,10.6895,10.7236,10.7521,10.7685,10.8066,10.7932,10.7865,10.8864,10.9945,11.0918,11.1587,11.2023,11.2304,11.2617,11.2617,11.2422,11.2383,11.2656,11.2695,11.2851,11.3125,11.3164,11.3203,11.3203,11.3203,11.3203,11.3203,11.3203,11.3203,11.3203,11.3203,11.3203,11.3203,11.3203,11.3203,11.3203,11.3203,11.3203,11.3203,11.3203,11.3203,11.3203,11.3203,11.3203,11.3203,11.3203,11.3203,11.3203,11.3203,11.3203,11.3203,11.3203,11.3203,11.3203,11.3203,11.3203,11.3203,11.3203,11.3203,11.3203,11.3203,11.3203,11.3203,11.3203,11.3203,11.3203,11.3203,11.3203,11.3203,11.3203,11.3203,11.3203,11.3203,11.3203,11.3203,11.3203,11.3203,11.3203,11.3203,11.3203,11.3203,11.3203,11.3203,11.3203,11.3203,11.3047,11.2929,11.289,11.2851,10.1279,10.1279,10.1279,10.1279,10.1279,10.1279,10.1279,10.1394,10.2097,10.2481,10.2597,10.3289,10.3482,10.3482,10.4289,10.4838,10.5174,10.5828,10.6395,10.6395,10.6395,10.6395,10.6395,10.6395,10.6395,10.6395,10.651,10.6895,10.7367,10.7416,10.711,10.6565,10.7314,10.8131,10.8816,10.9937,11.0527,11.0719,11.1097,11.1367,11.1523,11.125,11.0937,11.1679,11.1992,11.2265,11.2851,11.3125,11.3203,11.3203,11.3203,11.3203,11.3203,11.3203,11.3203,11.3203,11.3203,11.3203,11.3203,11.3203,11.3203,11.3203,11.3203,11.3203,11.3203,11.3203,11.3203,11.3203,11.3203,11.3203,11.3203,11.3203,11.3203,11.3203,11.3203,11.3203,11.3203,11.3203,11.3203,11.3203,11.3203,11.3203,11.3203,11.3203,11.3203,11.3203,11.3437,11.3476,11.3359,11.3359,11.3359,11.3359,11.3203,11.3203,11.3203,11.3203,11.3203,11.3203,11.3281,11.3203,11.3203,11.3203,11.3203,11.3203,11.3203,11.3203,11.3203,11.3203,11.3203,11.3203,11.3203,11.3203,11.3203,11.3281,11.3437,10.1279,10.1279,10.1279,10.1279,10.1279,10.1279,10.1279,10.1317,10.151,10.1673,10.1664,10.1866,10.202,10.2279,10.3674,10.4289,10.4559,10.5751,10.628,10.6395,10.6395,10.6395,10.6395,10.6395,10.6395,10.6395,10.6433,10.651,10.678,10.6751,10.6713,10.6484,10.6902,10.7247,10.7916,10.8954,10.9249,10.9466,10.9658,11.0124,11.0468,11.0688,11.0735,11.1091,11.1367,11.1758,11.2343,11.2773,11.3008,11.3203,11.3203,11.3203,11.3203,11.3203,11.3203,11.3203,11.3203,11.3203,11.3203,11.3203,11.3203,11.3203,11.3203,11.3203,11.3203,11.3203,11.3203,11.3203,11.3203,11.3203,11.3203,11.3203,11.3203,11.3203,11.3203,11.3203,11.3203,11.3203,11.3203,11.3203,11.3203,11.3203,11.3203,11.3203,11.3203,11.3476,11.4023,11.414,11.3828,11.375,11.3789,11.3711,11.332,11.3242,11.3281,11.3554,11.375,11.3633,11.3633,11.3476,11.332,11.3554,11.375,11.3359,11.3203,11.3515,11.3633,11.3281,11.3281,11.3515,11.3593,11.3789,11.3593,11.3593,11.3828,10.1279,10.1279,10.1279,10.1279,10.1279,10.1279,10.1279,10.1279,10.1279,10.1279,10.1279,10.1279,10.1279,10.1548,10.3097,10.3828,10.4174,10.5674,10.6203,10.6395,10.6318,10.6395,10.6395,10.6356,10.6395,10.6395,10.6395,10.6395,10.6395,10.6395,10.6433,10.6395,10.6454,10.6688,10.7383,10.7723,10.809,10.8351,10.8336,10.8725,10.928,10.9239,10.9573,10.9944,11.0429,11.0937,11.1406,11.1875,11.2187,11.2656,11.2929,11.3164,11.3203,11.3203,11.3203,11.3203,11.3203,11.3203,11.3203,11.3203,11.3203,11.3203,11.3203,11.3203,11.3203,11.3203,11.3203,11.3203,11.3203,11.3203,11.3203,11.3203,11.3203,11.3203,11.3203,11.3203,11.3203,11.3203,11.3203,11.3203,11.3203,11.3203,11.3203,11.3203,11.332,11.3906,11.4414,11.4843,11.4531,11.4375,11.4375,11.4297,11.4023,11.3828,11.3945,11.4258,11.4609,11.4414,11.414,11.4375,11.4531,11.4414,11.4336,11.4179,11.4179,11.4453,11.4414,11.4101,11.4297,11.4726,11.4609,11.4453,11.4258,11.4179,11.4687,10.1279,10.1279,10.1279,10.1279,10.1279,10.1279,10.1279,10.1279,10.1279,10.1279,10.1279,10.1279,10.1279,10.1856,10.2866,10.3405,10.4097,10.5059,10.5751,10.5944,10.6059,10.5982,10.6097,10.6328,10.6356,10.6395,10.6395,10.6395,10.6395,10.6395,10.6395,10.6395,10.6415,10.6456,10.6738,10.7132,10.7594,10.7431,10.7424,10.7646,10.7598,10.7463,10.824,10.8784,10.9248,10.9765,11.0312,11.0898,11.1289,11.1992,11.2851,11.3086,11.3203,11.3203,11.3203,11.3203,11.3203,11.3203,11.3203,11.3203,11.3203,11.3203,11.3203,11.3203,11.3203,11.3203,11.3203,11.3203,11.3203,11.3203,11.3203,11.3242,11.3242,11.3476,11.3476,11.3593,11.3593,11.3593,11.3593,11.3593,11.3593,11.3593,11.3554,11.3515,11.3867,11.4414,11.4883,11.5195,11.5429,11.5351,11.5312,11.5273,11.5156,11.4961,11.4765,11.4961,11.5351,11.5234,11.5039,11.5429,11.5625,11.5234,11.5117,11.5351,11.5429,11.5351,11.539,11.5195,11.5508,11.5703,11.5351,11.5078,11.5117,11.5156,11.582,10.1279,10.1279,10.1279,10.1279,10.1279,10.1279,10.1279,10.1279,10.1279,10.1279,10.1279,10.1279,10.1317,10.1356,10.2327,10.2904,10.3251,10.4212,10.4366,10.4405,10.5251,10.5405,10.5636,10.6174,10.6318,10.6395,10.6395,10.6395,10.6395,10.6395,10.6395,10.6395,10.6395,10.6415,10.6426,10.6718,10.6806,10.6709,10.6728,10.6905,10.7122,10.724,10.7605,10.8206,10.887,10.9675,11.0508,11.1289,11.2109,11.2734,11.3047,11.3164,11.3203,11.3203,11.3203,11.3203,11.3203,11.3203,11.3203,11.3203,11.3203,11.3203,11.3203,11.3203,11.3203,11.3203,11.3203,11.3203,11.3203,11.3203,11.3203,11.332,11.3437,11.4218,11.4531,11.4804,11.4961,11.5,11.5,11.5,11.4961,11.4961,11.4922,11.4922,11.5,11.5547,11.5976,11.625,11.6133,11.6172,11.6211,11.625,11.6211,11.5976,11.5703,11.5703,11.5937,11.5859,11.5898,11.6211,11.6211,11.5781,11.5742,11.6211,11.6054,11.5859,11.5937,11.6289,11.6093,11.6172,11.5859,11.5664,11.5781,11.6093,11.664]}]]